[[{"header":{"parameterUnit":"m.s-1","parameterCategory":1,"la1":31.0,"la2":29.5877,"lo1":-88.7671,"lo2":-86.6584,"dy":0.0162,"dx":0.0185,"nx":115,"ny":88,"refTime":"2026-03-15T12:00:00:Z","depth":0,"parameterNumber":2,"parameterNumberName":"U-component_of_WINDS"},"data":[0.0,0.0,0.0,0.0,0.0,0.0,0.0,0.0,0.0,0.0,0.0,0.0,0.0,0.0,0.0,0.0,0.0,0.0,0.0,0.0,0.0,0.0,0.0,0.0,0.0,0.0,0.0,0.0,0.0,0.0,0.0,0.0,0.0,0.0,0.0,0.0,0.0,0.0,0.0,0.0,0.0,0.0,0.0,0.0,0.0,0.0,0.0,0.0,0.0,0.0,0.0,0.0,0.0,0.0,0.0,0.0,0.0,0.0,0.0,0.0,0.0,0.0,0.0,0.0,0.0,0.0,0.0,0.0,0.0,0.0,0.0,0.0,0.0,0.0,0.0,0.0,0.0,0.0,0.0,0.0,0.0,0.0,0.0,0.0,0.0,0.0,0.0,0.0,0.0,0.0,0.0,0.0,0.0,0.0,0.0,0.0,0.0,0.0,0.0,0.0,0.0,0.0,0.0,0.0,0.0,0.0,0.0,0.0,0.0,0.0,0.0,0.0,0.0,0.0,0.0,0.0,0.0,0.0,0.0,0.0,0.0,0.0,0.0,0.0,0.0,0.0,0.0,0.0,0.0,0.0,0.0,0.0,0.0,0.0,0.0,0.0,0.0,0.0,0.0,0.0,0.0,0.0,0.0,0.0,0.0,0.0,0.0,0.0,0.0,0.0,0.0,0.0,0.0,0.0,0.0,0.0,0.0,0.0,0.0,0.0,0.0,0.0,0.0,0.0,0.0,0.0,0.0,0.0,0.0,0.0,0.0,0.0,0.0,0.0,0.0,0.0,0.0,0.0,0.0,0.0,0.0,0.0,0.0,0.0,0.0,0.0,0.0,0.0,0.0,0.0,0.0,0.0,0.0,0.0,0.0,0.0,0.0,0.0,0.0,0.0,0.0,0.0,0.0,0.0,0.0,0.0,0.0,0.0,0.0,0.0,0.0,0.0,0.0,0.0,0.0,0.0,0.0,0.0,0.0,0.0,0.0,0.0,0.0,0.0,0.0,0.0,0.0,0.0,0.0,0.0,0.0,0.0,0.0,0.0,0.0,0.0,0.0,0.0,0.0,0.0,0.0,0.0,0.0,0.0,0.0,0.0,0.0,0.0,0.0,0.0,0.0,0.0,0.0,0.0,0.0,0.0,0.0,0.0,0.0,0.0,0.0,0.0,0.0,0.0,0.0,0.0,0.0,0.0,0.0,0.0,0.0,0.0,0.0,0.0,0.0,0.0,0.0,0.0,0.0,0.0,0.0,0.0,0.0,0.0,0.0,0.0,0.0,0.0,0.0,0.0,0.0,0.0,0.0,0.0,0.0,0.0,0.0,0.0,0.0,0.0,0.0,0.0,0.0,0.0,0.0,0.0,0.0,0.0,0.0,0.0,0.0,0.0,0.0,0.0,0.0,0.0,0.0,0.0,0.0,0.0,0.0,0.0,0.0,0.0,0.0,0.0,0.0,0.0,0.0,0.0,0.0,0.0,0.0,0.0,0.0,0.0,0.0,0.0,0.0,0.0,0.0,0.0,0.0,0.0,0.0,0.0,0.0,0.0,0.0,0.0,0.0,0.0,0.0,0.0,0.0,0.0,0.0,0.0,0.0,0.0,0.0,0.0,0.0,0.0,0.0,0.0,0.0,0.0,0.0,0.0,0.0,0.0,0.0,0.0,0.0,0.0,0.0,0.0,0.0,0.0,0.0,0.0,0.0,0.0,0.0,0.0,0.0,0.0,0.0,0.0,0.0,0.0,0.0,0.0,0.0,0.0,0.0,0.0,0.0,0.0,0.0,0.0,0.0,0.0,0.0,0.0,0.0,0.0,0.0,0.0,0.0,0.0,0.0,0.0,0.0,0.0,0.0,0.0,0.0,0.0,0.0,0.0,0.0,0.0,0.0,0.0,0.0,0.0,0.0,0.0,0.0,0.0,0.0,0.0,0.0,0.0,0.0,0.0,0.0,0.0,0.0,0.0,0.0,0.0,0.0,0.0,0.0,0.0,0.0,0.0,0.0,0.0,0.0,0.0,0.0,0.0,0.0,0.0,0.0,0.0,0.0,0.0,0.0,0.0,0.0,0.0,0.0,0.0,0.0,0.0,0.0,0.0,0.0,0.0,0.0,0.0,0.0,0.0,0.0,0.0,0.0,0.0,0.0,0.0,0.0,0.0,0.0,0.0,0.0,0.0,0.0,0.0,0.0,0.0,0.0,0.0,0.0,0.0,0.0,0.0,0.0,0.0,0.0,0.0,0.0,0.0,0.0,0.0,0.0,0.0,0.0,0.0,0.0,0.0,0.0,0.0,0.0,0.0,0.0,0.0,0.0,0.0,0.0,0.0,0.0,0.0,0.0,0.0,0.0,0.0,0.0,0.0,0.0,0.0,0.0,0.0,0.0,0.0,0.0,0.0,0.0,0.0,0.0,0.0,0.0,0.0,0.0,0.0,0.0,0.0,0.0,0.0,0.0,0.0,0.0,0.0,0.0,0.0,0.0,0.0,0.0,0.0,0.0,0.0,0.0,0.0,0.0,0.0,0.0,0.0,0.0,0.0,0.0,0.0,0.0,0.0,0.0,0.0,0.0,0.0,0.0,0.0,0.0,0.0,0.0,0.0,0.0,0.0,0.0,0.0,0.0,0.0,0.0,0.0,0.0,0.0,0.0,0.0,0.0,0.0,0.0,0.0,0.0,0.0,0.0,0.0,0.0,0.0,0.0,0.0,0.0,0.0,0.0,0.0,0.0,0.0,0.0,0.0,0.0,0.0,0.0,0.0,0.0,0.0,0.0,0.0,0.0,0.0,0.0,0.0,0.0,0.0,0.0,0.0,0.0,0.0,0.0,0.0,0.0,0.0,0.0,0.0,0.0,0.0,0.0,0.0,0.0,0.0,0.0,0.0,0.0,0.0,0.0,0.0,0.0,0.0,0.0,0.0,0.0,0.0,0.0,0.0,0.0,0.0,0.0,0.0,0.0,0.0,0.0,0.0,0.0,0.0,0.0,0.0,0.0,0.0,0.0,0.0,0.0,0.0,0.0,0.0,0.0,0.0,0.0,0.0,0.0,0.0,0.0,0.0,0.0,0.0,0.0,0.0,0.0,0.0,0.0,0.0,0.0,0.0,0.0,0.0,0.0,0.0,0.0,0.0,0.0,0.0,0.0,0.0,0.0,0.0,0.0,0.0,0.0,0.0,0.0,0.0,0.0,0.0,0.0,0.0,0.0,0.0,0.0,0.0,0.0,0.0,0.0,0.0,0.0,0.0,0.0,0.0,0.0,0.0,0.0,0.0,0.0,0.0,0.0,0.0,0.0,0.0,0.0,0.0,0.0,0.0,0.0,0.0,0.0,0.0,0.0,0.0,0.0,0.0,0.0,0.0,0.0,0.0,0.0,0.0,0.0,0.0,0.0,0.0,0.0,0.0,0.0,0.0,0.0,0.0,0.0,0.0,0.0,0.0,0.0,0.0,0.0,0.0,0.0,0.0,0.0,0.0,0.0,0.0,0.0,0.0,0.0,0.0,0.0,0.0,0.0,0.0,0.0,0.0,0.0,0.0,0.0,0.0,0.0,0.0,0.0,0.0,0.0,0.0,0.0,0.0,0.0,0.0,0.0,0.0,0.0,0.0,0.0,0.0,0.0,0.0,0.0,0.0,0.0,0.0,0.0,0.0,0.0,0.0,0.0,0.0,0.0,0.0,0.0,0.0,0.0,0.0,0.0,0.0,0.0,0.0,0.0,0.0,0.0,0.0,0.0,0.0,0.0,0.0,0.0,0.0,0.0,0.0,0.0,0.0,0.0,0.0,0.0,0.0,0.0,0.0,0.0,0.0,0.0,0.0,0.0,0.0,0.0,0.0,0.0,0.0,0.0,0.0,0.0,0.0,0.0,0.0,0.0,0.0,0.0,0.0,0.0,0.0,0.0,0.0,0.0,0.0,0.0,0.0,0.0,0.0,0.0,0.0,0.0,0.0,0.0,0.0,0.0,0.0,0.0,0.0,0.0,0.0,0.0,0.0,0.0,0.0,0.0,0.0,0.0,0.0,0.0,0.0,0.0,0.0,0.0,0.0,0.0,0.0,0.0,0.0,0.0,0.0,0.0,0.0,0.0,0.0,0.0,0.0,0.0,0.0,0.0,0.0,0.0,0.0,0.0,0.0,0.0,0.0,0.0,0.0,0.0,0.0,0.0,0.0,0.0,0.0,0.0,0.0,0.0,0.0,0.0,0.0,0.0,0.0,0.0,0.0,0.0,0.0,0.0,0.0,0.0,0.0,0.0,0.0,0.0,0.0,0.0,0.0,7.351,0.0,0.0,0.0,0.0,0.0,0.0,0.0,0.0,0.0,0.0,0.0,0.0,0.0,0.0,0.0,0.0,0.0,0.0,0.0,0.0,0.0,0.0,0.0,0.0,0.0,0.0,0.0,0.0,0.0,0.0,0.0,0.0,0.0,0.0,0.0,0.0,0.0,0.0,0.0,0.0,0.0,0.0,0.0,0.0,0.0,0.0,0.0,0.0,0.0,0.0,0.0,0.0,0.0,0.0,0.0,0.0,0.0,0.0,0.0,0.0,0.0,0.0,0.0,0.0,0.0,0.0,0.0,0.0,0.0,0.0,0.0,0.0,0.0,0.0,0.0,0.0,0.0,0.0,0.0,0.0,0.0,0.0,0.0,0.0,0.0,0.0,0.0,0.0,0.0,0.0,0.0,0.0,0.0,0.0,0.0,0.0,0.0,0.0,0.0,0.0,0.0,0.0,0.0,0.0,0.0,0.0,0.0,0.0,0.0,0.0,7.9295,7.9667,7.7908,7.6048,7.4119,0.0,0.0,0.0,0.0,0.0,0.0,0.0,0.0,0.0,0.0,0.0,0.0,0.0,0.0,0.0,0.0,0.0,0.0,0.0,0.0,0.0,0.0,0.0,0.0,0.0,0.0,0.0,0.0,0.0,0.0,0.0,0.0,0.0,0.0,0.0,0.0,0.0,0.0,0.0,0.0,0.0,0.0,0.0,0.0,0.0,0.0,0.0,0.0,0.0,0.0,0.0,0.0,0.0,0.0,0.0,0.0,0.0,0.0,0.0,0.0,0.0,0.0,0.0,0.0,0.0,0.0,0.0,0.0,0.0,0.0,0.0,0.0,0.0,0.0,0.0,0.0,0.0,0.0,0.0,0.0,0.0,0.0,0.0,0.0,0.0,0.0,0.0,0.0,0.0,0.0,0.0,0.0,0.0,0.0,0.0,0.0,0.0,0.0,0.0,0.0,0.0,0.0,0.0,0.0,0.0,0.0,0.0,0.0,0.0,0.0,0.0,0.0,7.8923,7.686,7.3916,0.0,0.0,0.0,0.0,0.0,0.0,0.0,0.0,0.0,0.0,0.0,0.0,0.0,0.0,0.0,0.0,0.0,0.0,0.0,0.0,0.0,0.0,0.0,0.0,0.0,0.0,0.0,0.0,0.0,0.0,0.0,0.0,0.0,0.0,0.0,0.0,0.0,0.0,0.0,0.0,0.0,0.0,0.0,0.0,0.0,0.0,0.0,0.0,0.0,0.0,0.0,0.0,0.0,0.0,0.0,0.0,0.0,0.0,0.0,0.0,0.0,0.0,0.0,0.0,0.0,0.0,0.0,0.0,0.0,0.0,0.0,0.0,0.0,0.0,0.0,0.0,0.0,0.0,0.0,0.0,0.0,0.0,0.0,0.0,0.0,0.0,0.0,0.0,0.0,0.0,0.0,0.0,0.0,0.0,0.0,0.0,0.0,0.0,0.0,0.0,0.0,0.0,0.0,0.0,0.0,0.0,0.0,0.0,0.0,0.0,7.9464,8.0175,7.9397,0.0,7.1988,0.0,0.0,0.0,0.0,0.0,0.0,0.0,0.0,0.0,0.0,0.0,0.0,0.0,0.0,0.0,0.0,0.0,0.0,0.0,0.0,0.0,0.0,0.0,0.0,0.0,0.0,0.0,0.0,0.0,0.0,0.0,0.0,0.0,0.0,0.0,0.0,0.0,0.0,0.0,0.0,0.0,0.0,0.0,0.0,0.0,0.0,0.0,0.0,0.0,0.0,0.0,0.0,0.0,0.0,0.0,0.0,0.0,0.0,0.0,0.0,0.0,0.0,0.0,0.0,0.0,0.0,0.0,0.0,0.0,0.0,0.0,0.0,0.0,0.0,0.0,0.0,0.0,0.0,0.0,0.0,0.0,0.0,0.0,0.0,0.0,0.0,0.0,0.0,0.0,0.0,0.0,0.0,0.0,0.0,0.0,0.0,0.0,0.0,0.0,0.0,0.0,0.0,0.0,0.0,0.0,0.0,0.0,0.0,0.0,0.0,0.0,7.9566,7.669,7.3916,0.0,0.0,0.0,0.0,0.0,0.0,0.0,0.0,0.0,0.0,0.0,0.0,0.0,0.0,0.0,0.0,0.0,0.0,0.0,0.0,0.0,0.0,0.0,0.0,0.0,0.0,0.0,0.0,0.0,0.0,0.0,0.0,0.0,0.0,0.0,0.0,0.0,0.0,0.0,0.0,0.0,0.0,0.0,0.0,0.0,0.0,0.0,0.0,0.0,0.0,0.0,0.0,0.0,0.0,0.0,0.0,0.0,0.0,0.0,0.0,0.0,0.0,0.0,0.0,0.0,0.0,0.0,0.0,0.0,0.0,0.0,0.0,0.0,0.0,0.0,0.0,0.0,0.0,0.0,0.0,0.0,0.0,0.0,0.0,0.0,0.0,0.0,0.0,0.0,0.0,0.0,0.0,0.0,0.0,0.0,0.0,0.0,0.0,0.0,0.0,0.0,0.0,0.0,0.0,0.0,0.0,0.0,0.0,0.0,0.0,7.9431,0.0,7.8686,7.5439,7.2529,7.0161,0.0,0.0,0.0,0.0,0.0,0.0,0.0,0.0,0.0,0.0,0.0,0.0,0.0,0.0,0.0,0.0,0.0,0.0,0.0,0.0,0.0,0.0,0.0,0.0,0.0,0.0,0.0,0.0,0.0,0.0,0.0,0.0,0.0,0.0,0.0,0.0,0.0,0.0,0.0,0.0,0.0,0.0,0.0,0.0,0.0,0.0,0.0,0.0,0.0,0.0,0.0,0.0,0.0,0.0,0.0,0.0,0.0,0.0,0.0,0.0,0.0,0.0,0.0,0.0,0.0,0.0,0.0,0.0,0.0,0.0,0.0,0.0,0.0,0.0,0.0,0.0,0.0,0.0,0.0,0.0,0.0,0.0,0.0,0.0,0.0,0.0,0.0,0.0,0.0,0.0,0.0,0.0,0.0,0.0,0.0,0.0,0.0,0.0,0.0,0.0,0.0,0.0,0.0,0.0,0.0,0.0,0.0,0.0,0.0,8.0141,7.8754,7.8077,7.7164,7.3646,0.0,0.0,0.0,0.0,0.0,0.0,0.0,0.0,0.0,0.0,0.0,0.0,0.0,0.0,0.0,0.0,0.0,0.0,0.0,0.0,0.0,0.0,0.0,0.0,0.0,0.0,0.0,0.0,0.0,0.0,0.0,0.0,0.0,0.0,0.0,0.0,0.0,0.0,0.0,0.0,0.0,0.0,0.0,0.0,0.0,0.0,0.0,0.0,0.0,0.0,0.0,0.0,0.0,0.0,0.0,0.0,0.0,0.0,0.0,0.0,0.0,0.0,0.0,0.0,0.0,0.0,0.0,0.0,0.0,0.0,0.0,0.0,0.0,0.0,0.0,0.0,0.0,0.0,0.0,0.0,0.0,0.0,0.0,0.0,0.0,0.0,0.0,0.0,0.0,0.0,0.0,0.0,0.0,0.0,0.0,0.0,0.0,0.0,0.0,0.0,0.0,0.0,0.0,0.0,0.0,0.0,0.0,0.0,0.0,7.8788,7.7604,7.7502,7.8517,7.4322,7.0973,0.0,0.0,0.0,0.0,0.0,0.0,0.0,0.0,0.0,0.0,0.0,0.0,0.0,0.0,0.0,0.0,0.0,0.0,0.0,0.0,0.0,0.0,0.0,0.0,0.0,0.0,0.0,0.0,0.0,0.0,0.0,0.0,0.0,0.0,0.0,0.0,0.0,0.0,0.0,0.0,0.0,0.0,0.0,0.0,0.0,0.0,0.0,0.0,0.0,0.0,0.0,0.0,0.0,0.0,0.0,0.0,0.0,0.0,0.0,0.0,0.0,0.0,0.0,0.0,0.0,0.0,0.0,0.0,0.0,0.0,0.0,0.0,0.0,0.0,0.0,0.0,0.0,0.0,0.0,0.0,0.0,0.0,0.0,0.0,0.0,0.0,0.0,0.0,0.0,0.0,0.0,0.0,0.0,0.0,0.0,0.0,0.0,0.0,0.0,0.0,0.0,0.0,0.0,0.0,0.0,0.0,0.0,0.0,0.0,7.7232,0.0,7.7096,0.0,7.3037,6.962,0.0,0.0,0.0,0.0,0.0,0.0,0.0,0.0,0.0,0.0,0.0,0.0,0.0,0.0,0.0,0.0,0.0,0.0,0.0,0.0,0.0,0.0,0.0,0.0,0.0,0.0,0.0,0.0,0.0,0.0,0.0,0.0,0.0,0.0,0.0,0.0,0.0,0.0,0.0,0.0,0.0,0.0,0.0,0.0,0.0,0.0,0.0,0.0,0.0,0.0,0.0,0.0,0.0,0.0,0.0,0.0,0.0,0.0,0.0,0.0,0.0,0.0,0.0,0.0,0.0,0.0,0.0,0.0,0.0,0.0,0.0,0.0,0.0,0.0,0.0,0.0,0.0,0.0,0.0,0.0,0.0,0.0,0.0,0.0,0.0,0.0,0.0,0.0,0.0,0.0,0.0,0.0,0.0,0.0,0.0,0.0,0.0,0.0,0.0,0.0,0.0,0.0,0.0,0.0,0.0,0.0,0.0,0.0,7.6454,7.7874,7.8619,7.7705,7.4864,7.3849,6.9992,0.0,0.0,0.0,0.0,0.0,0.0,0.0,0.0,0.0,0.0,0.0,0.0,0.0,0.0,0.0,0.0,0.0,0.0,0.0,0.0,0.0,0.0,0.0,0.0,0.0,0.0,0.0,0.0,0.0,0.0,0.0,0.0,0.0,0.0,0.0,0.0,0.0,0.0,0.0,0.0,0.0,0.0,0.0,0.0,0.0,0.0,0.0,0.0,0.0,0.0,0.0,0.0,0.0,0.0,0.0,0.0,0.0,0.0,0.0,0.0,0.0,0.0,0.0,0.0,0.0,0.0,0.0,0.0,0.0,0.0,0.0,0.0,0.0,0.0,0.0,0.0,0.0,0.0,0.0,0.0,0.0,0.0,0.0,0.0,0.0,0.0,0.0,0.0,0.0,0.0,0.0,0.0,0.0,0.0,0.0,0.0,0.0,0.0,0.0,0.0,0.0,0.0,0.0,0.0,0.0,0.0,0.0,0.0,0.0,7.5743,7.7401,7.8619,7.9025,7.4018,7.0838,0.0,0.0,0.0,0.0,0.0,0.0,0.0,0.0,0.0,0.0,0.0,0.0,0.0,0.0,0.0,0.0,0.0,0.0,0.0,0.0,0.0,0.0,0.0,0.0,0.0,0.0,0.0,0.0,0.0,0.0,0.0,0.0,0.0,0.0,0.0,0.0,0.0,0.0,0.0,0.0,0.0,0.0,0.0,0.0,0.0,0.0,0.0,0.0,0.0,0.0,0.0,0.0,0.0,0.0,0.0,0.0,0.0,0.0,0.0,0.0,0.0,0.0,0.0,0.0,0.0,0.0,0.0,0.0,0.0,0.0,0.0,0.0,0.0,0.0,0.0,0.0,0.0,0.0,0.0,0.0,0.0,0.0,0.0,0.0,0.0,0.0,0.0,0.0,0.0,0.0,0.0,0.0,0.0,0.0,0.0,0.0,0.0,0.0,0.0,0.0,0.0,0.0,0.0,0.0,0.0,0.0,0.0,0.0,0.0,7.8483,8.004,8.1021,8.1291,7.5946,7.2529,7.1345,0.0,0.0,0.0,0.0,0.0,0.0,0.0,0.0,0.0,0.0,0.0,0.0,0.0,0.0,0.0,0.0,0.0,0.0,0.0,0.0,0.0,0.0,0.0,0.0,0.0,0.0,0.0,0.0,0.0,0.0,0.0,0.0,0.0,0.0,0.0,0.0,0.0,0.0,0.0,0.0,0.0,0.0,0.0,0.0,0.0,0.0,0.0,0.0,0.0,0.0,0.0,0.0,0.0,0.0,0.0,0.0,0.0,0.0,0.0,0.0,0.0,0.0,0.0,0.0,0.0,0.0,0.0,0.0,0.0,0.0,0.0,0.0,0.0,0.0,0.0,0.0,0.0,0.0,0.0,0.0,0.0,0.0,0.0,0.0,0.0,0.0,0.0,0.0,0.0,0.0,0.0,0.0,0.0,0.0,0.0,0.0,0.0,0.0,0.0,0.0,0.0,0.0,0.0,0.0,0.0,0.0,0.0,0.0,8.5046,8.6027,8.5148,8.2171,7.96,7.5202,0.0,0.0,0.0,0.0,0.0,0.0,0.0,0.0,0.0,0.0,0.0,0.0,0.0,0.0,0.0,0.0,0.0,0.0,0.0,0.0,0.0,0.0,0.0,0.0,0.0,0.0,0.0,0.0,0.0,0.0,0.0,0.0,0.0,0.0,0.0,0.0,0.0,0.0,0.0,0.0,0.0,0.0,0.0,0.0,0.0,0.0,0.0,0.0,0.0,0.0,0.0,0.0,0.0,0.0,0.0,0.0,0.0,0.0,0.0,0.0,0.0,0.0,0.0,0.0,0.0,0.0,0.0,0.0,0.0,0.0,0.0,0.0,0.0,0.0,0.0,0.0,0.0,0.0,0.0,0.0,0.0,0.0,0.0,0.0,0.0,0.0,0.0,0.0,0.0,0.0,0.0,0.0,0.0,0.0,0.0,0.0,0.0,0.0,0.0,0.0,0.0,0.0,0.0,0.0,0.0,0.0,0.0,0.0,0.0,8.9512,9.3503,9.3943,9.0391,8.4471,7.9904,0.0,0.0,0.0,0.0,0.0,0.0,0.0,0.0,0.0,0.0,0.0,0.0,0.0,0.0,0.0,0.0,0.0,0.0,0.0,0.0,0.0,0.0,0.0,0.0,0.0,0.0,0.0,0.0,0.0,0.0,0.0,0.0,0.0,0.0,0.0,0.0,0.0,0.0,0.0,0.0,0.0,0.0,0.0,0.0,0.0,0.0,0.0,0.0,0.0,0.0,0.0,0.0,0.0,0.0,0.0,0.0,0.0,0.0,0.0,0.0,0.0,0.0,0.0,0.0,0.0,0.0,0.0,0.0,0.0,0.0,0.0,0.0,0.0,0.0,0.0,0.0,0.0,0.0,0.0,0.0,0.0,0.0,0.0,0.0,0.0,0.0,0.0,0.0,0.0,0.0,0.0,0.0,0.0,0.0,0.0,0.0,0.0,0.0,0.0,0.0,0.0,0.0,0.0,0.0,0.0,0.0,0.0,0.0,8.9309,9.4045,9.9525,10.1047,9.8307,9.1338,8.5384,0.0,0.0,0.0,0.0,0.0,0.0,0.0,0.0,0.0,0.0,0.0,0.0,0.0,0.0,0.0,0.0,0.0,0.0,0.0,0.0,0.0,0.0,0.0,0.0,0.0,0.0,0.0,0.0,0.0,0.0,0.0,0.0,0.0,0.0,0.0,0.0,0.0,0.0,0.0,0.0,0.0,0.0,0.0,0.0,0.0,0.0,0.0,0.0,0.0,0.0,0.0,0.0,0.0,0.0,0.0,0.0,0.0,0.0,0.0,0.0,0.0,0.0,0.0,0.0,0.0,0.0,0.0,0.0,0.0,0.0,0.0,0.0,0.0,0.0,0.0,0.0,0.0,0.0,0.0,0.0,0.0,0.0,0.0,0.0,0.0,0.0,0.0,0.0,0.0,0.0,0.0,0.0,0.0,0.0,0.0,0.0,0.0,0.0,0.0,0.0,0.0,0.0,0.0,0.0,0.0,0.0,0.0,0.0,9.3199,9.8409,10.4126,10.6494,10.5005,9.8307,9.056,0.0,0.0,0.0,0.0,0.0,0.0,0.0,0.0,0.0,0.0,0.0,0.0,0.0,0.0,0.0,0.0,0.0,0.0,0.0,0.0,0.0,0.0,0.0,0.0,0.0,0.0,0.0,0.0,0.0,0.0,0.0,0.0,0.0,0.0,0.0,0.0,0.0,0.0,0.0,0.0,0.0,0.0,0.0,0.0,0.0,0.0,0.0,0.0,0.0,0.0,0.0,0.0,0.0,0.0,0.0,0.0,0.0,0.0,0.0,0.0,0.0,0.0,0.0,0.0,0.0,0.0,0.0,0.0,0.0,0.0,0.0,0.0,0.0,0.0,0.0,0.0,0.0,0.0,0.0,0.0,0.0,0.0,0.0,0.0,0.0,0.0,0.0,0.0,0.0,0.0,0.0,0.0,0.0,0.0,0.0,0.0,0.0,0.0,0.0,0.0,0.0,0.0,0.0,0.0,0.0,0.0,0.0,0.0,9.6277,10.1453,10.6223,10.8557,10.8185,9.8848,9.1,0.0,0.0,0.0,0.0,0.0,0.0,0.0,0.0,0.0,0.0,0.0,0.0,0.0,0.0,0.0,0.0,0.0,0.0,0.0,0.0,0.0,0.0,0.0,0.0,0.0,0.0,0.0,0.0,0.0,0.0,0.0,0.0,0.0,0.0,0.0,0.0,0.0,0.0,0.0,0.0,0.0,0.0,0.0,0.0,0.0,0.0,0.0,0.0,7.5231,0.0,0.0,0.0,0.0,0.0,0.0,0.0,0.0,0.0,0.0,0.0,0.0,0.0,0.0,0.0,0.0,0.0,0.0,0.0,0.0,0.0,0.0,0.0,0.0,0.0,0.0,0.0,0.0,0.0,0.0,0.0,0.0,0.0,0.0,0.0,0.0,0.0,0.0,0.0,0.0,0.0,0.0,0.0,0.0,0.0,0.0,0.0,0.0,0.0,0.0,0.0,0.0,0.0,0.0,0.0,0.0,0.0,0.0,0.0,9.9288,10.4464,10.8253,10.9877,10.8963,10.1419,9.4315,0.0,0.0,0.0,0.0,0.0,0.0,0.0,0.0,0.0,0.0,0.0,0.0,0.0,0.0,0.0,0.0,0.0,0.0,0.0,0.0,0.0,0.0,0.0,0.0,0.0,0.0,0.0,0.0,0.0,0.0,0.0,0.0,0.0,0.0,0.0,0.0,0.0,0.0,0.0,0.0,0.0,0.0,0.0,0.0,0.0,0.0,0.0,0.0,0.0,0.0,0.0,0.0,0.0,0.0,0.0,0.0,0.0,0.0,0.0,0.0,0.0,0.0,0.0,0.0,0.0,0.0,0.0,0.0,0.0,0.0,0.0,0.0,0.0,0.0,0.0,0.0,0.0,0.0,0.0,0.0,0.0,0.0,0.0,0.0,0.0,0.0,0.0,0.0,0.0,0.0,0.0,0.0,0.0,0.0,0.0,0.0,0.0,0.0,0.0,0.0,0.0,0.0,0.0,0.0,0.0,0.0,0.0,9.5195,10.1521,10.7373,11.0181,11.0858,10.9335,10.4498,9.8307,9.0865,0.0,0.0,0.0,0.0,0.0,0.0,0.0,0.0,0.0,0.0,0.0,0.0,0.0,0.0,0.0,0.0,0.0,0.0,0.0,0.0,0.0,0.0,0.0,0.0,0.0,0.0,0.0,0.0,0.0,0.0,0.0,0.0,0.0,0.0,0.0,0.0,0.0,0.0,6.961,7.3402,0.0,0.0,0.0,0.0,0.0,0.0,0.0,0.0,7.4423,0.0,0.0,0.0,0.0,0.0,0.0,0.0,0.0,0.0,0.0,0.0,0.0,0.0,0.0,0.0,0.0,0.0,0.0,0.0,0.0,0.0,0.0,0.0,0.0,0.0,0.0,0.0,0.0,0.0,0.0,0.0,0.0,0.0,0.0,0.0,0.0,0.0,0.0,0.0,0.0,0.0,0.0,0.0,0.0,0.0,0.0,0.0,0.0,0.0,0.0,0.0,0.0,0.0,0.0,0.0,0.0,9.5939,9.6311,10.098,11.0384,11.1737,11.1602,11.008,10.6257,10.0337,9.2421,0.0,0.0,0.0,0.0,0.0,0.0,0.0,0.0,0.0,0.0,0.0,0.0,0.0,0.0,0.0,0.0,0.0,0.0,0.0,0.0,0.0,0.0,0.0,0.0,0.0,0.0,0.0,0.0,0.0,0.0,0.0,0.0,0.0,0.0,0.0,0.0,0.0,0.0,0.0,7.7503,7.9122,0.0,0.0,0.0,0.0,0.0,0.0,0.0,0.0,7.3101,0.0,0.0,0.0,0.0,0.0,0.0,0.0,0.0,0.0,0.0,0.0,0.0,0.0,0.0,0.0,0.0,0.0,0.0,0.0,0.0,0.0,0.0,0.0,0.0,0.0,0.0,0.0,0.0,0.0,0.0,0.0,0.0,0.0,0.0,0.0,0.0,0.0,0.0,0.0,0.0,0.0,0.0,0.0,0.0,0.0,0.0,0.0,0.0,0.0,0.0,0.0,0.0,0.0,0.0,0.0,9.5263,9.9931,10.5513,11.2245,11.2888,11.2177,11.0283,10.5141,9.9051,0.0,0.0,0.0,0.0,0.0,0.0,0.0,0.0,0.0,0.0,0.0,0.0,0.0,0.0,0.0,0.0,0.0,0.0,0.0,0.0,0.0,0.0,0.0,0.0,0.0,0.0,0.0,0.0,0.0,0.0,0.0,0.0,0.0,0.0,0.0,0.0,0.0,0.0,0.0,0.0,7.9471,8.1769,8.4865,0.0,0.0,0.0,0.0,0.0,0.0,7.7443,7.5246,0.0,0.0,0.0,0.0,0.0,0.0,0.0,0.0,0.0,0.0,0.0,0.0,0.0,0.0,0.0,0.0,0.0,0.0,0.0,0.0,0.0,0.0,0.0,0.0,0.0,0.0,0.0,0.0,0.0,0.0,0.0,0.0,0.0,0.0,0.0,0.0,0.0,0.0,0.0,0.0,0.0,0.0,0.0,0.0,0.0,0.0,0.0,0.0,0.0,0.0,0.0,0.0,0.0,0.0,0.0,9.3808,10.2603,10.9302,11.3564,11.3835,11.2854,11.0722,10.4633,9.8341,0.0,0.0,0.0,0.0,0.0,0.0,0.0,0.0,0.0,0.0,0.0,0.0,0.0,0.0,0.0,0.0,0.0,0.0,0.0,0.0,0.0,0.0,0.0,0.0,0.0,0.0,0.0,0.0,0.0,0.0,0.0,0.0,0.0,0.0,0.0,0.0,0.0,0.0,0.0,0.0,0.0,8.4093,8.6724,8.4331,0.0,0.0,0.0,0.0,8.0716,8.0782,0.0,0.0,0.0,0.0,0.0,0.0,0.0,0.0,0.0,0.0,0.0,0.0,0.0,0.0,0.0,0.0,0.0,0.0,0.0,0.0,0.0,0.0,0.0,0.0,0.0,0.0,0.0,0.0,0.0,0.0,0.0,0.0,0.0,0.0,0.0,0.0,0.0,0.0,0.0,0.0,0.0,0.0,0.0,0.0,0.0,0.0,0.0,0.0,0.0,0.0,0.0,0.0,0.0,0.0,0.0,0.0,9.4383,10.0878,10.7509,11.4139,11.4545,11.3835,11.2211,10.7644,10.1419,0.0,0.0,0.0,0.0,0.0,0.0,0.0,0.0,0.0,0.0,0.0,0.0,0.0,0.0,0.0,0.0,0.0,0.0,0.0,0.0,0.0,0.0,0.0,0.0,0.0,0.0,0.0,0.0,0.0,0.0,0.0,0.0,0.0,0.0,0.0,0.0,0.0,0.0,0.0,0.0,0.0,8.4868,8.4341,8.4833,8.4708,0.0,0.0,8.4573,8.6636,8.863,0.0,0.0,0.0,0.0,0.0,0.0,0.0,0.0,0.0,0.0,0.0,0.0,0.0,0.0,0.0,0.0,0.0,0.0,0.0,0.0,0.0,0.0,0.0,0.0,0.0,0.0,0.0,0.0,0.0,0.0,0.0,0.0,0.0,0.0,0.0,0.0,0.0,0.0,0.0,0.0,0.0,0.0,0.0,0.0,0.0,0.0,0.0,0.0,0.0,0.0,0.0,0.0,0.0,0.0,0.0,8.8057,9.5905,10.4735,11.167,11.6372,11.5763,11.4613,11.3158,10.6325,9.939,0.0,0.0,0.0,0.0,0.0,0.0,0.0,0.0,0.0,0.0,0.0,0.0,0.0,0.0,0.0,0.0,0.0,0.0,0.0,0.0,0.0,0.0,0.0,0.0,0.0,0.0,0.0,0.0,0.0,0.0,0.0,0.0,0.0,0.0,0.0,0.0,0.0,0.0,0.0,0.0,0.0,0.0,8.7095,8.8276,0.0,0.0,0.0,8.8125,8.9106,0.0,0.0,0.0,0.0,0.0,0.0,0.0,0.0,0.0,0.0,0.0,0.0,0.0,0.0,0.0,0.0,0.0,0.0,0.0,0.0,0.0,0.0,0.0,0.0,0.0,0.0,0.0,0.0,0.0,0.0,0.0,0.0,0.0,0.0,0.0,0.0,0.0,0.0,0.0,0.0,0.0,0.0,0.0,0.0,0.0,0.0,0.0,0.0,0.0,0.0,0.0,0.0,0.0,0.0,0.0,0.0,0.0,9.692,10.8118,11.5256,11.7928,11.6778,11.5391,11.3801,10.6257,0.0,0.0,0.0,0.0,0.0,0.0,0.0,0.0,0.0,0.0,0.0,0.0,0.0,0.0,0.0,0.0,0.0,0.0,0.0,0.0,0.0,0.0,0.0,0.0,0.0,0.0,0.0,5.6433,0.0,0.0,0.0,0.0,0.0,0.0,0.0,0.0,0.0,0.0,0.0,0.0,0.0,0.0,8.6297,8.8644,9.1456,9.3436,0.0,0.0,9.2015,9.2387,9.4958,9.3654,0.0,0.0,0.0,0.0,0.0,0.0,0.0,0.0,0.0,0.0,0.0,0.0,0.0,0.0,0.0,0.0,0.0,0.0,0.0,0.0,0.0,0.0,0.0,0.0,0.0,0.0,0.0,0.0,0.0,0.0,0.0,0.0,0.0,0.0,0.0,0.0,0.0,0.0,0.0,0.0,0.0,0.0,0.0,0.0,0.0,0.0,0.0,0.0,0.0,0.0,0.0,0.0,0.0,0.0,0.0,9.7022,10.8591,11.5763,11.7996,11.7285,11.6101,11.4613,10.9978,10.2705,0.0,0.0,0.0,0.0,0.0,0.0,0.0,0.0,0.0,0.0,0.0,0.0,0.0,0.0,0.0,0.0,0.0,0.0,0.0,0.0,0.0,0.0,0.0,0.0,0.0,0.0,0.0,0.0,0.0,0.0,0.0,0.0,0.0,0.0,0.0,0.0,0.0,0.0,0.0,0.0,0.0,8.6662,8.6112,9.314,9.8578,0.0,0.0,9.692,9.8273,10.2671,10.1622,8.8655,0.0,0.0,0.0,0.0,0.0,0.0,0.0,0.0,0.0,0.0,0.0,0.0,0.0,0.0,0.0,0.0,0.0,0.0,0.0,0.0,0.0,0.0,0.0,0.0,0.0,0.0,0.0,0.0,0.0,0.0,0.0,0.0,0.0,0.0,0.0,0.0,0.0,0.0,0.0,0.0,0.0,0.0,0.0,0.0,0.0,0.0,0.0,0.0,0.0,0.0,0.0,0.0,0.0,9.0696,9.7563,10.8862,11.6237,11.9247,11.8266,11.715,11.6067,11.1298,10.4381,0.0,0.0,0.0,0.0,0.0,0.0,0.0,0.0,0.0,0.0,0.0,0.0,0.0,0.0,0.0,0.0,0.0,0.0,0.0,0.0,0.0,0.0,0.0,0.0,0.0,0.0,0.0,0.0,6.3972,6.3202,6.0826,0.0,0.0,0.0,0.0,0.0,0.0,0.0,0.0,0.0,0.0,8.7756,9.0911,9.5435,0.0,0.0,10.0608,9.9999,10.1047,10.1318,9.8295,8.9082,8.5114,0.0,0.0,0.0,0.0,0.0,0.0,0.0,0.0,0.0,0.0,0.0,0.0,0.0,0.0,0.0,0.0,0.0,0.0,0.0,0.0,0.0,0.0,0.0,0.0,0.0,0.0,0.0,0.0,0.0,0.0,0.0,0.0,0.0,0.0,0.0,0.0,0.0,0.0,0.0,0.0,0.0,0.0,0.0,0.0,0.0,0.0,0.0,0.0,0.0,0.0,0.0,0.0,9.0797,9.7969,10.9234,11.6744,12.0195,11.9078,11.7962,11.6845,11.2515,10.6273,0.0,0.0,0.0,0.0,0.0,0.0,0.0,0.0,0.0,0.0,0.0,0.0,0.0,0.0,0.0,0.0,0.0,0.0,0.0,0.0,0.0,0.0,0.0,0.0,0.0,0.0,0.0,0.0,6.7313,6.5448,6.1849,0.0,0.0,0.0,0.0,0.0,0.0,0.0,0.0,0.0,0.0,8.9371,9.3609,9.6841,9.9736,10.2391,10.1467,10.0641,10.1386,9.9897,9.6125,8.8714,0.0,0.0,0.0,0.0,0.0,0.0,0.0,0.0,0.0,0.0,0.0,0.0,0.0,0.0,0.0,0.0,0.0,0.0,0.0,0.0,0.0,0.0,0.0,0.0,0.0,0.0,0.0,0.0,0.0,0.0,0.0,0.0,0.0,0.0,0.0,0.0,0.0,0.0,0.0,0.0,0.0,0.0,0.0,0.0,0.0,0.0,0.0,0.0,0.0,0.0,0.0,0.0,0.0,0.0,9.8037,10.9741,11.7218,12.0161,11.9552,11.8435,11.6913,11.397,10.8891,10.1163,0.0,0.0,0.0,0.0,0.0,0.0,0.0,0.0,0.0,0.0,0.0,0.0,0.0,0.0,0.0,0.0,0.0,0.0,0.0,0.0,0.0,0.0,0.0,0.0,0.0,0.0,6.7273,6.488,6.255,0.0,0.0,0.0,0.0,0.0,0.0,0.0,0.0,0.0,0.0,8.6231,9.1968,9.2716,9.7253,10.0548,10.072,9.9344,9.8442,9.9221,9.9694,9.7101,0.0,0.0,0.0,0.0,0.0,0.0,0.0,0.0,0.0,0.0,0.0,0.0,0.0,0.0,0.0,0.0,0.0,0.0,0.0,0.0,0.0,0.0,0.0,0.0,0.0,0.0,0.0,0.0,8.278,0.0,0.0,0.0,0.0,0.0,0.0,0.0,0.0,0.0,0.0,0.0,8.7719,9.0662,0.0,0.0,0.0,0.0,0.0,0.0,0.0,0.0,0.0,0.0,0.0,0.0,9.1068,9.8815,10.9505,11.6744,12.0127,11.9586,11.8706,11.7691,11.5289,10.93,9.9225,0.0,0.0,0.0,0.0,0.0,0.0,0.0,0.0,0.0,0.0,0.0,0.0,0.0,0.0,0.0,0.0,0.0,0.0,0.0,0.0,0.0,0.0,0.0,0.0,0.0,6.9795,0.0,0.0,0.0,0.0,0.0,0.0,0.0,0.0,0.0,0.0,0.0,8.0801,8.4105,8.9806,9.4011,9.4609,9.8852,10.1866,0.0,0.0,0.0,0.0,0.0,0.0,0.0,0.0,0.0,0.0,0.0,0.0,0.0,0.0,8.5556,7.4769,7.1309,7.0305,7.1103,0.0,0.0,0.0,0.0,0.0,0.0,0.0,0.0,0.0,0.0,0.0,0.0,0.0,0.0,0.0,0.0,8.5723,0.0,0.0,0.0,0.0,0.0,0.0,0.0,0.0,9.2015,9.489,9.4992,9.8375,9.8099,0.0,9.3773,8.8569,0.0,0.0,0.0,0.0,0.0,0.0,0.0,0.0,9.2083,10.0303,11.0046,11.6778,12.0059,11.9822,11.9214,11.8469,11.6263,11.0644,10.1464,9.6419,9.0464,0.0,0.0,0.0,0.0,0.0,0.0,0.0,0.0,0.0,0.0,0.0,0.0,0.0,0.0,0.0,0.0,0.0,0.0,0.0,0.0,0.0,0.0,0.0,7.2229,0.0,0.0,0.0,0.0,0.0,0.0,0.0,0.0,0.0,7.7138,8.2069,8.678,9.0335,9.3795,9.5864,9.5404,0.0,0.0,0.0,0.0,0.0,0.0,0.0,9.5427,9.534,9.3775,9.297,9.4345,9.8338,10.0751,9.8496,0.0,0.0,8.2113,7.7794,7.6343,7.747,7.9481,8.1715,8.3931,8.6882,8.9091,0.0,0.0,0.0,0.0,0.0,0.0,0.0,0.0,9.0459,9.0966,0.0,8.9613,0.0,0.0,0.0,0.0,0.0,0.0,0.0,0.0,10.1183,10.5073,10.3957,10.531,10.487,0.0,10.3879,10.0586,9.302,8.4922,0.0,0.0,0.0,0.0,0.0,0.0,9.4417,10.2502,11.1331,11.7285,12.0093,12.0262,11.989,11.9194,11.6953,11.3211,10.8034,10.4952,9.9785,9.1655,8.5701,0.0,0.0,0.0,0.0,0.0,0.0,0.0,0.0,0.0,0.0,0.0,0.0,0.0,0.0,0.0,0.0,0.0,0.0,0.0,0.0,7.4796,0.0,0.0,0.0,0.0,0.0,0.0,0.0,0.0,0.0,0.0,8.3047,8.7922,9.2943,9.6597,0.0,0.0,0.0,0.0,9.8773,9.648,9.7855,9.9457,9.9559,10.0574,10.0332,9.7525,0.0,0.0,9.9538,10.2893,10.4068,9.8122,9.8425,9.8352,9.5994,8.8979,8.4569,8.609,8.591,8.6459,8.9097,9.2461,9.5202,10.054,0.0,0.0,0.0,0.0,9.6277,9.8882,10.2401,10.1995,10.0066,9.7056,9.5195,0.0,0.0,0.0,0.0,0.0,0.0,9.4485,9.939,10.3246,10.6731,10.9944,11.0925,11.0486,10.8828,10.825,10.6073,10.2623,9.9112,9.1422,7.9894,0.0,0.0,0.0,0.0,9.7461,10.4126,11.2346,11.7522,11.945,12.0025,11.9687,11.8435,11.62,11.4034,11.1881,10.8591,10.4681,10.0001,9.2318,0.0,0.0,0.0,0.0,0.0,0.0,0.0,0.0,0.0,0.0,0.0,0.0,0.0,0.0,0.0,0.0,0.0,0.0,0.0,7.3172,7.4356,7.4525,0.0,0.0,0.0,0.0,0.0,0.0,0.0,0.0,0.0,9.3081,9.4992,9.6439,0.0,0.0,9.9186,9.5595,9.9212,10.2255,10.1811,0.0,0.0,0.0,10.443,10.3386,10.4573,10.7128,10.8876,10.8573,10.9666,10.9975,10.7968,10.6138,10.4105,10.1653,9.495,8.9875,9.007,9.0743,9.2043,9.479,9.809,10.0793,10.9403,10.2976,9.9322,9.9254,10.1589,10.2806,10.5513,10.9065,10.849,10.6967,10.4667,10.2028,9.8079,9.3316,9.0905,0.0,0.0,0.0,9.939,10.4769,10.6528,10.9471,11.326,11.4444,11.4139,11.2685,11.1771,11.0188,10.8015,10.6732,10.0695,9.0179,0.0,0.0,8.9319,9.5337,10.1167,10.6866,11.3226,11.7218,11.8706,11.918,11.8841,11.7624,11.6649,11.5785,11.5,11.2897,11.0151,10.6821,9.9314,9.2484,0.0,0.0,0.0,0.0,0.0,0.0,0.0,0.0,0.0,0.0,0.0,7.0737,6.7354,0.0,0.0,0.0,7.1244,7.4153,7.6792,7.7435,0.0,0.0,0.0,0.0,0.0,0.0,0.0,8.5919,9.1094,9.5844,9.967,10.098,10.1758,10.2367,10.284,10.2251,9.9576,0.0,10.5314,10.5078,10.6811,10.8659,10.9809,10.8422,10.7915,11.0283,11.2008,11.309,11.3293,11.3361,11.3158,11.2373,10.999,10.7528,10.6012,10.0163,9.5165,9.4162,9.4558,9.5798,9.7747,10.0443,10.2909,11.7128,11.4376,10.6933,10.5307,10.7644,10.849,11.035,11.2685,11.1433,11.1839,11.3158,10.9031,10.6608,10.5245,10.0573,0.0,0.0,10.2149,10.5239,10.8625,11.0689,11.2752,11.4816,11.6237,11.6203,11.4883,11.4883,11.3463,11.0862,10.9921,10.7582,10.3834,10.0622,9.8898,9.9026,10.1541,10.5466,11.0458,11.3936,11.6575,11.8063,11.803,11.7624,11.6845,11.7402,11.7571,11.6999,11.6881,11.5416,11.194,10.6256,9.9415,9.1631,0.0,0.0,0.0,0.0,0.0,0.0,0.0,0.0,0.0,0.0,0.0,0.0,0.0,0.0,0.0,7.6826,0.0,8.2577,8.2712,0.0,0.0,0.0,8.1697,8.3456,8.7347,9.0696,9.2793,0.0,0.0,10.3585,0.0,10.7712,10.9166,10.7373,10.5785,10.5387,10.6783,10.7804,10.7191,10.9063,11.0925,11.1771,11.2177,11.2854,11.4173,11.5256,11.5154,11.4545,11.4274,11.3801,11.2583,11.0771,10.91,10.829,10.4569,10.1385,9.8317,9.7639,9.77,9.8359,10.0302,10.2231,12.0268,11.7975,11.6271,11.4796,11.3801,11.5154,11.5763,11.5797,11.5492,11.4376,11.2617,11.0452,10.9058,10.8381,10.7688,10.8085,10.923,11.0506,11.1817,11.3057,11.3666,11.4477,11.5594,11.6473,11.6744,11.6372,11.6372,11.5729,11.4477,11.428,11.3172,11.1149,11.0763,10.807,10.3123,10.6022,10.9123,11.1997,11.4545,11.6575,11.803,11.7522,11.6812,11.6101,11.5179,11.4968,11.5413,11.4881,11.4696,11.4839,10.9231,10.3977,9.9835,8.8605,0.0,0.0,0.0,0.0,0.0,0.0,0.0,0.0,0.0,7.4695,6.9519,0.0,7.4593,0.0,7.987,8.3389,8.5587,8.5317,0.0,0.0,8.9072,8.9545,9.3808,9.5736,9.7157,9.824,10.2434,10.5513,10.6054,10.8084,10.9809,11.0689,10.8422,10.6596,10.6525,10.7878,10.9637,11.1406,11.2771,11.3902,11.4511,11.4883,11.5086,11.5492,11.4816,11.4072,11.3902,11.2921,11.2042,11.1703,11.132,11.026,10.8524,10.7214,10.5241,10.1524,9.9395,9.8329,9.8478,10.0105,10.188,12.1547,11.9702,11.944,11.8749,11.7827,11.803,11.803,11.7894,11.759,11.6507,11.4883,11.3057,11.2368,11.2459,11.2806,11.3777,11.5208,11.525,11.5473,11.5821,11.5417,11.5391,11.5831,11.6575,11.6744,11.644,11.6744,11.6372,11.5323,11.5337,11.5346,11.5224,11.5644,11.4236,11.1154,11.0857,11.1552,11.3,11.4481,11.6266,11.8005,11.7013,11.5628,11.3902,11.3057,11.2231,11.1465,11.119,11.1474,11.2279,10.8568,10.4558,10.0528,9.1539,8.4489,0.0,0.0,0.0,0.0,0.0,0.0,0.0,0.0,0.0,0.0,0.0,7.8483,0.0,8.4573,8.7888,9.0188,9.0594,9.215,9.5669,9.5533,9.6447,9.9694,10.1521,10.284,10.3618,10.6494,10.8524,10.8862,11.0012,11.0925,11.1365,11.0249,10.9505,10.9877,11.0655,11.1974,11.4207,11.4951,11.5323,11.5797,11.5797,11.5797,11.5729,11.485,11.4004,11.3632,11.2651,11.1771,11.1467,11.1399,11.105,10.9769,10.8822,10.7214,10.5114,10.205,9.9814,9.8688,9.9491,10.0455,12.1988,12.0228,11.9852,11.992,12.0025,11.8774,11.8605,11.9146,11.8435,11.7996,11.7691,11.5695,11.5443,11.671,11.671,11.7539,11.8981,11.8367,11.7718,11.7256,11.6502,11.6087,11.5864,11.6575,11.6575,11.6,11.6609,11.6237,11.4985,11.4883,11.5653,11.7346,11.7275,11.8183,11.9509,11.5243,11.3262,11.4064,11.4657,11.5989,11.8018,11.657,11.4358,11.1298,11.1027,10.9607,10.6682,10.6994,10.7239,10.7296,10.6028,10.3205,9.8561,9.3409,8.8157,0.0,7.9532,0.0,0.0,0.0,0.0,0.0,0.0,0.0,0.0,8.2678,8.42,8.6704,9.0188,9.3165,9.5229,9.6819,9.8341,9.9796,10.1318,10.257,10.3483,10.5783,10.761,10.8354,10.964,11.0722,11.1196,11.1399,11.1399,11.1568,11.194,11.2448,11.3463,11.3564,11.4105,11.5628,11.5797,11.5763,11.5797,11.5797,11.5763,11.5628,11.4951,11.4342,11.3699,11.2888,11.2143,11.167,11.1467,11.1399,11.1399,10.9769,10.8706,10.8021,10.521,10.2081,9.9638,9.8838,9.9166,12.3495,12.0413,12.1661,12.1098,11.9383,11.9078,11.9044,11.9146,11.8435,11.7421,11.6237,11.5797,11.7131,11.9839,11.9839,12.0818,12.2254,12.217,12.0668,11.8118,11.7851,11.7056,11.5864,11.6575,11.6812,11.671,11.6845,11.6744,11.6473,11.5898,11.6443,11.8089,11.8053,11.8972,0.0,0.0,0.0,0.0,11.6297,11.6884,11.739,11.6435,11.3939,10.9845,10.8997,0.0,10.3592,10.4004,10.4157,10.3589,10.4224,0.0,0.0,0.0,0.0,0.0,0.0,0.0,0.0,0.0,0.0,0.0,9.0662,8.914,8.6298,9.0256,9.3064,9.3098,9.5838,9.8037,9.9085,10.1081,10.2908,10.4396,10.5851,10.7306,10.8659,10.9335,10.9944,11.0655,11.1027,11.123,11.1365,11.1399,11.1602,11.2143,11.238,11.3023,11.4308,11.4444,11.4816,11.5628,11.5763,11.5797,11.5797,11.5797,11.5628,11.5019,11.4274,11.3801,11.353,11.2482,11.1873,11.2076,11.1805,11.1399,11.1433,11.1084,11.0327,10.9251,10.7913,10.5781,10.188,9.9638,9.8688,12.3342,0.0,12.1343,12.1059,0.0,0.0,11.9383,11.9653,11.8571,11.7251,11.5831,11.5797,11.7196,11.9536,11.9536,12.0881,12.3172,12.2342,12.1604,12.0758,11.9884,11.8691,11.7091,11.7467,11.7105,11.6372,11.6372,11.6372,11.6338,11.6,11.6474,11.7692,11.8499,11.9634,12.0767,11.8847,11.7669,11.735,11.7162,11.7927,11.9372,11.8274,11.5204,11.0049,0.0,0.0,0.0,0.0,0.0,0.0,0.0,0.0,0.0,0.0,0.0,9.4163,9.1913,9.1169,9.2286,9.3064,9.462,9.7225,9.8781,9.7563,9.2759,9.5499,9.7766,9.8544,10.0269,10.1927,10.3382,10.4904,10.6257,10.7373,10.849,10.9335,10.9741,11.0418,11.0824,11.0858,11.1162,11.1399,11.1399,11.1399,11.1703,11.238,11.282,11.3395,11.4444,11.468,11.4883,11.5222,11.5256,11.5256,11.5289,11.5628,11.556,11.4816,11.4105,11.3496,11.309,11.2143,11.1636,11.2279,11.2177,11.2008,11.238,11.2211,11.1826,11.1252,10.9733,10.7902,10.5498,10.2637,9.9814,12.2935,12.1548,12.0973,12.0973,12.1311,11.9958,11.9653,11.9992,0.0,0.0,0.0,11.5864,11.6702,11.8291,11.8291,11.9884,12.2572,12.1365,12.1521,12.2722,12.1543,12.0187,11.8824,11.8564,11.7681,11.6308,11.5942,11.5797,11.5797,11.5797,11.6253,11.7326,11.8753,11.9726,12.0249,12.0001,11.9397,11.8516,11.7657,11.8598,12.1555,11.9986,11.6441,11.1038,10.9744,10.6528,10.1047,10.0463,9.9974,9.9228,10.054,10.0439,9.8618,9.9803,9.9808,9.8261,9.8645,9.9424,10.0405,10.1047,10.1927,10.3077,10.5276,10.4667,10.01,10.0438,10.1656,10.3551,10.4227,10.5344,10.7137,10.7982,10.8693,10.9335,11.0046,11.0249,10.9775,11.0587,11.1162,11.0689,11.1061,11.1399,11.1399,11.1399,11.167,11.238,11.2921,11.3666,11.4342,11.4579,11.4782,11.4985,11.4951,11.4782,11.4951,11.5222,11.5289,11.4545,11.3869,11.3192,11.2583,11.1873,11.1771,11.2617,11.2583,11.2752,11.3361,11.3057,11.2955,11.3632,11.1431,10.9268,10.9192,10.6204,10.2406,12.3679,12.2326,12.2224,12.1886,12.1345,12.0499,11.9822,11.9315,11.8923,11.8009,11.671,11.6101,11.6702,11.8291,11.8291,11.9278,12.1124,12.0916,12.0916,0.0,12.1589,12.1307,12.0458,11.9715,11.8814,11.7818,11.6451,11.5797,11.5797,11.5797,11.6634,11.7917,11.8385,11.858,11.8738,11.9961,11.9835,11.8344,11.7592,11.8354,12.0935,11.8729,11.6149,11.3458,11.063,10.7306,10.3314,10.2556,10.1437,10.0205,10.1853,10.2282,10.1043,10.2214,10.2799,10.2631,10.2739,10.3686,10.5614,10.5885,10.7137,10.964,10.9809,10.8794,10.6866,10.734,10.7915,10.8219,10.8151,10.849,10.8896,10.9505,10.9944,11.0181,11.079,11.1162,11.0993,11.123,11.1331,11.1196,11.1331,11.1399,11.1399,11.1399,11.167,11.2279,11.2718,11.2955,11.3699,11.4308,11.4917,11.5391,11.5086,11.5019,11.5154,11.512,11.4613,11.3869,11.3158,11.2651,11.2448,11.1839,11.1873,11.3158,11.2888,11.2888,11.3496,11.3564,11.3767,11.4308,11.3267,11.2281,11.1372,10.9256,10.6458,12.4085,12.3138,12.3104,12.2901,12.2495,12.2446,12.2134,12.1585,12.0268,11.864,11.6891,11.6077,11.6194,11.6916,11.6916,11.7818,11.9442,11.9442,12.0634,12.2755,12.3148,12.3327,12.3245,12.1713,12.0125,11.8915,11.673,11.5797,11.5797,11.5797,11.6198,11.7056,11.8691,11.9664,11.9664,12.0422,11.9919,11.8291,11.7979,11.8726,12.0632,11.9561,11.7818,11.5618,11.3685,11.123,10.7948,10.7137,10.602,10.4498,10.5763,10.5926,10.4562,10.5694,10.6403,10.5986,10.6764,10.7678,10.8693,10.9471,11.0689,11.2414,11.2279,11.1805,11.1095,10.9911,10.9166,10.9166,10.9166,10.9335,10.9741,11.0114,11.0486,11.0858,11.123,11.1399,11.1399,11.1399,11.1399,11.1399,11.1399,11.1399,11.1399,11.1399,11.167,11.2346,11.2786,11.3192,11.3496,11.3496,11.3598,11.3902,11.3699,11.3632,11.397,11.4105,11.3767,11.3124,11.2718,11.2346,11.2008,11.1568,11.1906,11.2786,11.2989,11.3395,11.4038,11.4207,11.4511,11.4985,11.4342,11.3537,11.2972,11.042,10.6332,12.4389,12.3848,12.3679,12.351,12.336,12.3806,12.4008,12.3836,12.2438,12.0667,11.8465,11.6615,11.603,11.6417,11.6112,11.6832,11.7819,11.8129,12.0152,12.3388,12.4108,12.4779,12.5368,12.3769,12.2136,12.0245,11.7779,11.6436,11.6034,11.5898,11.5797,11.6198,11.9183,12.0741,12.0544,12.1286,12.074,11.8911,11.8811,11.94,12.0508,12.0372,11.9533,11.8051,11.6935,11.5154,11.2786,11.194,11.0925,10.964,10.9944,10.964,10.8557,10.9369,10.9741,10.9437,11.0384,11.1061,11.1128,11.2245,11.3226,11.3801,11.3869,11.3835,11.3632,11.1636,11.008,10.9978,11.0012,11.0181,11.0486,11.0587,11.079,11.1331,11.1399,11.1399,11.1399,11.1399,11.1399,11.1399,11.1399,11.1399,11.1399,11.1399,11.1602,11.2143,11.2752,11.309,11.3023,11.2583,11.2279,11.2279,11.2346,11.2685,11.2685,11.3057,11.309,11.2549,11.2312,11.2008,11.1568,11.1399,11.1703,11.238,11.2955,11.3463,11.4207,11.4545,11.4816,11.5222,11.4748,11.4274,11.3918,11.0179,10.5585,12.466,12.4491,12.3916,12.3205,12.287,12.36,12.4043,12.4219,12.5723,12.5341,12.3118,11.8211,11.6849,11.7784,11.7132,11.6925,11.7105,11.7817,11.9146,12.1151,12.3316,12.4684,12.5584,12.6089,12.52,12.2702,12.0146,11.8122,11.671,11.6101,11.5797,11.6198,11.9183,12.0398,12.0091,12.2518,12.2874,12.0472,12.037,12.0405,12.0475,11.9747,11.9909,12.1202,11.9014,11.7454,11.6304,11.5695,11.4917,11.4105,11.3496,11.3124,11.2921,11.2482,11.2448,11.2989,11.3226,11.3293,11.3361,11.4038,11.4545,11.4579,11.468,11.468,11.4579,11.3767,11.2888,11.2279,11.2143,11.1805,11.1399,11.1298,11.1298,11.1433,11.1433,11.1399,11.1433,11.1399,11.1399,11.1399,11.1433,11.1399,11.1399,11.1399,11.1433,11.1568,11.1737,11.1873,11.1839,11.1737,11.167,11.1703,11.2042,11.2685,11.309,11.2888,11.2583,11.238,11.1906,11.1568,11.1399,11.1433,11.1602,11.2109,11.2549,11.2955,11.3564,11.4173,11.468,11.4816,11.4917,11.5154,11.3638,11.0146,10.6291,12.4694,12.466,12.4389,12.4085,12.4076,12.5434,12.6082,12.6344,12.8296,12.8332,12.6864,12.3221,12.0961,11.9541,11.823,11.7624,11.7657,11.7962,11.9227,12.1236,12.3318,12.5205,12.6882,12.6931,12.5831,12.3697,12.0894,11.854,11.7037,11.6169,11.5797,11.6232,11.9637,12.1269,12.1207,12.3721,12.415,12.2074,12.1504,12.0957,12.0328,11.9627,11.9797,12.0626,11.9933,11.9011,11.8334,11.7962,11.7454,11.6744,11.6406,11.6034,11.556,11.5256,11.5019,11.4985,11.5323,11.5797,11.6237,11.6541,11.671,11.671,11.671,11.6541,11.6034,11.5729,11.5086,11.3902,11.3023,11.2482,11.2583,11.1906,11.1568,11.1873,11.167,11.1568,11.2008,11.1636,11.1534,11.1906,11.1636,11.1399,11.1399,11.1399,11.1399,11.1399,11.1399,11.1399,11.1399,11.1399,11.1568,11.194,11.2312,11.2346,11.238,11.2076,11.1873,11.1805,11.1602,11.1399,11.1399,11.1399,11.1534,11.1839,11.2143,11.2482,11.2854,11.3869,11.4613,11.4477,11.4579,11.4816,11.3801,11.0179,10.694,12.4694,12.4694,12.4694,12.4592,12.4532,12.6724,12.7461,12.7622,12.9568,13.0162,12.9367,12.7201,12.4912,12.2575,12.0121,11.8892,11.8435,11.8605,11.9583,12.1474,12.3549,12.5528,12.7242,12.7809,12.6722,12.4425,12.1874,11.9402,11.7378,11.6213,11.6198,11.7543,12.0436,12.2315,12.3173,12.5404,12.5872,12.4548,12.3479,12.2482,12.1377,12.053,12.0262,12.0567,12.0601,12.0228,11.9518,11.9687,11.9586,11.9044,11.8841,11.8435,11.786,11.7454,11.6981,11.6541,11.6913,11.7488,11.8063,11.8131,11.8131,11.8131,11.8131,11.7759,11.7116,11.6913,11.6338,11.512,11.3835,11.3327,11.3361,11.2617,11.2312,11.2685,11.2279,11.2211,11.238,11.194,11.1805,11.2076,11.167,11.1399,11.1399,11.1399,11.1399,11.1399,11.1399,11.1399,11.1433,11.1568,11.1906,11.238,11.2482,11.2279,11.1805,11.1805,11.1636,11.1399,11.1399,11.1399,11.1399,11.1399,11.1399,11.1636,11.1974,11.2177,11.2245,11.3158,11.4105,11.3835,11.3869,11.4004,11.3327,10.9696,10.7104,12.4694,12.4694,12.4694,12.4322,12.3854,12.6514,12.7142,12.6764,12.935,13.0455,13.0137,12.8693,12.7747,12.7098,12.3347,12.0774,11.9513,11.9789,12.0244,12.0876,12.3787,12.536,12.5811,12.8691,12.8506,12.5113,12.3387,12.1113,11.8298,11.677,11.744,12.0493,12.1643,12.3208,12.5217,12.7676,12.8622,12.7451,12.6399,12.541,12.3901,12.2763,12.1954,12.148,12.1345,12.1006,12.0431,12.0905,12.1243,12.1243,12.0533,12.0127,11.9992,11.8808,11.8063,11.8063,11.8063,11.8097,11.8199,11.8232,11.8232,11.8199,11.83,11.7827,11.7218,11.7048,11.6643,11.5831,11.4985,11.4342,11.3835,11.3463,11.3395,11.3496,11.3496,11.3124,11.2617,11.2482,11.2109,11.1737,11.1534,11.1399,11.1399,11.1399,11.1399,11.1399,11.1399,11.1399,11.1467,11.194,11.2346,11.2448,11.2515,11.2482,11.2414,11.2076,11.1873,11.1737,11.1568,11.1399,11.1399,11.1399,11.1399,11.1399,11.1534,11.1636,11.1636,11.2076,11.2888,11.3023,11.2921,11.282,11.2617,10.8973,10.6492,12.4694,12.4694,12.4694,12.4288,12.3974,12.6479,12.7107,12.675,12.9313,13.0492,13.0388,12.9857,12.8986,12.7856,12.6427,12.4514,12.2217,12.0898,12.0533,12.1257,12.4102,12.4751,12.409,12.7195,12.7075,12.395,12.2675,12.1395,12.0052,11.9665,12.0307,12.1643,12.3412,12.4807,12.5996,12.8547,12.935,12.8044,12.7059,12.5894,12.4736,12.3765,12.307,12.2799,12.2326,12.1988,12.1717,12.1514,12.1615,12.2055,12.1412,12.1006,12.0905,12.0059,11.9721,12.0093,11.9755,11.9484,11.9484,11.9484,11.9484,11.9484,11.9484,11.9146,11.8469,11.7928,11.7353,11.6575,11.5831,11.5256,11.4917,11.4207,11.3801,11.4139,11.3902,11.3733,11.3666,11.309,11.2549,11.2583,11.2042,11.1399,11.1433,11.1399,11.1399,11.1399,11.1399,11.1399,11.1501,11.2008,11.2515,11.2583,11.2854,11.3023,11.2482,11.2008,11.1737,11.1906,11.1839,11.1501,11.1399,11.1399,11.1399,11.1399,11.1399,11.1399,11.1501,11.1602,11.2245,11.2549,11.2448,11.2211,11.1873,10.885,10.6803,12.4559,12.4389,12.4592,12.4153,12.3634,12.5714,12.6749,12.675,12.8791,13.0,13.0388,13.0492,12.9893,12.8875,12.8238,12.7264,12.541,12.2573,12.1068,12.1359,12.4102,12.4786,12.4356,12.7195,12.6955,12.3752,12.1684,12.0924,12.1354,12.1453,12.2351,12.4108,12.544,12.6325,12.7169,12.9304,12.9966,12.905,12.8223,12.7308,12.6273,12.5276,12.4501,12.4038,12.3476,12.2969,12.2529,12.2224,12.2326,12.2698,12.236,12.1988,12.1751,12.1277,12.148,12.2388,12.131,12.0903,12.1251,12.0816,12.0262,12.0262,12.0262,11.9958,11.9247,11.874,11.7996,11.7082,11.6507,11.6135,11.5695,11.4917,11.4545,11.4917,11.4613,11.441,11.4613,11.3801,11.3429,11.3361,11.2786,11.2143,11.1805,11.1771,11.1636,11.1433,11.1399,11.1399,11.1467,11.2245,11.2854,11.2921,11.3496,11.3869,11.3666,11.3192,11.2008,11.194,11.1873,11.1568,11.1467,11.1467,11.1399,11.1399,11.1399,11.1399,11.1399,11.1399,11.167,11.2076,11.2042,11.1805,11.0783,10.9219,10.72,12.4288,12.3848,12.4389,12.3814,12.2904,12.4399,12.571,12.6493,12.7554,12.8763,13.0146,13.0425,13.0357,13.0142,12.8984,12.8477,12.7779,12.4672,12.2405,12.1524,12.4196,12.5523,12.5396,12.8352,12.8202,12.4881,12.1221,12.0782,12.2963,12.218,12.3468,12.7093,12.7205,12.7531,12.9038,12.9844,13.0755,13.0809,13.0197,12.9606,12.883,12.7562,12.6227,12.4905,12.4626,12.4017,12.2698,12.3172,12.3476,12.3577,12.3544,12.3239,12.2664,12.2393,12.324,12.4185,12.2742,12.2366,12.344,12.1718,12.0533,12.0499,12.0364,12.0127,11.9619,11.9214,11.8537,11.7454,11.7015,11.6676,11.6135,11.5932,11.5763,11.5797,11.5628,11.5492,11.5019,11.4748,11.441,11.3801,11.3463,11.326,11.2718,11.238,11.2109,11.167,11.1433,11.1399,11.1534,11.2549,11.3429,11.3598,11.397,11.4376,11.4545,11.4545,11.3057,11.194,11.1771,11.1602,11.167,11.167,11.1568,11.1534,11.1399,11.1399,11.1467,11.1467,11.1501,11.1771,11.1602,11.1568,11.0615,10.935,10.6882,12.4559,12.4322,12.4051,12.3408,12.2735,12.3806,12.4602,12.484,12.575,12.7518,12.9226,12.9525,12.9899,13.0504,13.0442,12.9788,12.8332,12.682,12.5679,12.4988,12.6435,12.6555,12.6062,12.7703,12.6955,12.3957,12.2377,12.2622,12.4362,12.4693,12.642,12.8394,12.8682,12.8186,12.7786,12.9454,13.0402,13.0037,13.019,12.98,12.883,12.7913,12.6593,12.5041,12.5235,12.5032,12.4085,12.3747,12.3882,12.4322,12.3882,12.3713,12.378,12.3036,12.3547,12.5378,12.3642,12.2933,12.4233,12.2993,12.187,12.1683,12.1345,12.1006,12.0601,11.9789,11.9078,11.8435,11.8063,11.759,11.7454,11.7387,11.6947,11.5932,11.6237,11.6473,11.6237,11.6203,11.5357,11.4004,11.4038,11.397,11.3361,11.2921,11.2448,11.2109,11.1703,11.1399,11.1602,11.2617,11.326,11.3057,11.3869,11.4477,11.4308,11.4139,11.3361,11.2414,11.2143,11.1771,11.1805,11.1771,11.167,11.1568,11.1433,11.1399,11.1467,11.1534,11.1602,11.167,11.1771,11.1495,11.1151,10.9298,10.6597,12.4525,12.4288,12.4085,12.3577,12.3022,12.3586,12.4192,12.4736,12.5081,12.6564,12.8373,12.9324,12.9842,13.0555,13.1676,13.1246,12.9858,12.9568,12.9039,12.8356,12.8306,12.7637,12.6627,12.7468,12.6555,12.4125,12.3073,12.3722,12.5396,12.6091,12.7478,12.9373,12.9758,12.8876,12.7515,12.8657,12.9235,12.8859,12.9709,12.9698,12.8653,12.8331,12.7397,12.5536,12.537,12.5472,12.5404,12.4592,12.422,12.4559,12.4254,12.4288,12.4592,12.3814,12.433,12.5742,12.5217,12.451,12.5281,12.4314,12.3157,12.2667,12.2055,12.1818,12.1649,12.0803,12.0398,11.9958,11.9349,11.8808,11.8537,11.8199,11.7657,11.6845,11.7082,11.7319,11.7353,11.7353,11.671,11.5492,11.5289,11.4985,11.4173,11.3361,11.2786,11.2515,11.1873,11.1399,11.1602,11.2414,11.2583,11.2854,11.3496,11.3801,11.3699,11.3564,11.3429,11.2989,11.2617,11.2143,11.1839,11.1771,11.1636,11.1501,11.1399,11.1399,11.1433,11.1602,11.1703,11.1839,11.1805,11.1602,11.0908,10.8341,10.5939,12.4288,12.378,12.4356,12.4153,12.3544,12.353,12.4277,12.5689,12.5108,12.5854,12.7638,12.8984,12.9925,13.0552,13.1831,13.2485,13.2626,13.186,13.153,13.1101,13.0406,12.925,12.8346,12.8123,12.6955,12.514,12.3621,12.3587,12.4881,12.5452,12.7075,12.9747,13.0247,12.9498,12.8087,12.7928,12.8164,12.7835,12.9232,12.9264,12.7626,12.8853,12.8505,12.5765,12.5235,12.5438,12.6013,12.5337,12.4795,12.4795,12.4795,12.4863,12.4897,12.4829,12.566,12.732,12.6739,12.6422,12.6255,12.5716,12.4568,12.3191,12.3002,12.2563,12.2563,12.236,12.1988,12.1379,12.077,12.0161,11.9552,11.9112,11.8638,11.8334,11.8266,11.8165,11.8165,11.8165,11.759,11.6947,11.6778,11.6372,11.4917,11.4105,11.3463,11.2888,11.2211,11.1906,11.1906,11.2482,11.2583,11.3057,11.3733,11.3869,11.4004,11.397,11.3767,11.2921,11.2651,11.2346,11.1906,11.1771,11.1805,11.1636,11.1399,11.1399,11.1501,11.1703,11.167,11.1568,11.1534,11.1399,11.027,10.8191,10.6096,12.4592,12.4389,12.4051,12.378,12.3544,12.3036,12.3413,12.4144,12.3497,12.4589,12.6376,12.7176,12.8559,13.0307,13.1355,13.2192,13.2669,13.2695,13.2584,13.2695,13.2852,13.1611,12.9826,12.8502,12.7111,12.5431,12.3927,12.3108,12.3621,12.4821,12.6627,12.8651,13.0442,12.9531,12.6892,12.8427,12.8164,12.6573,12.8072,12.861,12.7626,12.7835,12.707,12.5244,12.537,12.5472,12.5438,12.554,12.5573,12.5573,12.5573,12.5844,12.6216,12.6284,12.7057,12.8223,12.762,12.7399,12.8131,12.7277,12.6031,12.5223,12.4863,12.4525,12.3408,12.3341,12.2935,12.236,12.1954,12.1818,12.1615,12.1345,12.104,12.0499,11.9619,11.8943,11.8909,11.8875,11.8402,11.7218,11.6947,11.6406,11.5628,11.4816,11.4274,11.3936,11.3395,11.282,11.2685,11.2752,11.2955,11.3801,11.4376,11.441,11.4444,11.4444,11.4004,11.2921,11.2515,11.2448,11.2042,11.1771,11.194,11.2042,11.1534,11.1399,11.1602,11.1839,11.1636,11.1433,11.167,11.1737,11.0834,10.915,10.7061,12.4694,12.466,12.4254,12.4085,12.4017,12.3611,12.3679,12.395,12.3645,12.4161,12.546,12.6491,12.7563,12.9185,13.1158,13.2304,13.2777,13.3181,13.3429,13.3392,13.3465,13.2731,13.142,13.0081,12.8324,12.6019,12.4848,12.4319,12.4115,12.5156,12.6987,12.9062,13.0737,12.9815,12.6877,12.7575,12.7365,12.5424,12.662,12.7423,12.6857,12.7485,12.7201,12.5943,12.5912,12.5641,12.5404,12.625,12.6588,12.6148,12.6182,12.6554,12.6927,12.6994,12.7527,12.8443,12.8204,12.8392,12.8666,12.8254,12.7773,12.6883,12.6588,12.5776,12.4897,12.4559,12.4254,12.3577,12.3205,12.3002,12.2901,12.2698,12.2326,12.1751,12.0803,11.9992,11.9687,11.9349,11.8672,11.7759,11.7082,11.6643,11.5898,11.5154,11.4782,11.4511,11.3902,11.3395,11.309,11.3192,11.3226,11.3699,11.3835,11.3598,11.3463,11.3463,11.3361,11.2414,11.2177,11.2143,11.1873,11.1602,11.1703,11.1737,11.1501,11.1365,11.1433,11.1568,11.1602,11.1568,11.1906,11.1698,11.0867,11.0126,10.8008,12.4694,12.4694,12.4694,12.4884,12.5075,12.5075,12.5385,12.5366,12.5332,12.521,12.5555,12.672,12.7466,12.7796,13.0534,13.2214,13.2471,13.3211,13.4022,13.3909,13.3649,13.3025,13.2878,13.2002,12.9655,12.7054,12.667,12.5702,12.5019,12.5632,12.7572,12.941,13.0918,13.0125,12.8126,12.7543,12.5889,12.4633,12.578,12.6651,12.6614,12.7331,12.7417,12.6838,12.6318,12.6148,12.6351,12.713,12.7468,12.6216,12.6757,12.7163,12.7231,12.7265,12.7366,12.7822,12.8922,12.9248,12.8683,12.9283,12.9026,12.8093,12.7468,12.6825,12.6148,12.5844,12.554,12.4761,12.422,12.4017,12.3848,12.3273,12.2698,12.2393,12.1751,12.1176,12.0364,11.9653,11.8943,11.8266,11.7488,11.6643,11.6,11.5323,11.485,11.5086,11.4579,11.4173,11.3632,11.3327,11.2989,11.2651,11.2617,11.2414,11.2346,11.2279,11.2143,11.1771,11.167,11.1602,11.1331,11.1128,11.1196,11.1162,11.0993,11.0858,11.079,11.0959,11.1196,11.1095,11.1027,11.1162,11.1056,11.038,10.8822,12.4694,12.4694,12.4694,12.5864,12.7568,12.7751,12.8062,12.8544,12.8579,12.7639,12.686,12.7017,12.7468,12.8304,12.9205,12.9862,13.103,13.2435,13.3644,13.497,13.4236,13.3869,13.3722,13.3135,13.079,12.8252,12.7449,12.5887,12.4288,12.5009,12.6433,12.8446,13.0693,13.0393,12.8439,12.9194,12.8227,12.5438,12.6099,12.6779,12.6872,12.7166,12.7391,12.7028,12.6859,12.6791,12.6927,12.7637,12.7941,12.7772,12.7806,12.8077,12.8449,12.8584,12.8787,12.9288,12.9687,12.9984,12.983,12.9916,12.9669,12.8543,12.8449,12.8178,12.6893,12.6757,12.6419,12.581,12.5506,12.5235,12.5066,12.4626,12.3679,12.2833,12.2326,12.1683,12.0533,11.9653,11.9112,11.8706,11.7759,11.6845,11.6676,11.6034,11.5661,11.556,11.5289,11.4951,11.4342,11.3632,11.309,11.2583,11.2583,11.2515,11.2042,11.1974,11.1771,11.1568,11.1467,11.1331,11.1061,11.0587,11.0587,11.0553,11.0486,11.0384,11.0316,11.0418,11.0655,11.0384,11.0181,11.0519,11.0684,11.0287,10.9117,12.5523,12.4694,12.4694,12.6,12.7812,12.8027,12.8987,12.9973,12.9393,12.8786,12.8136,12.7403,12.7289,12.7894,12.8659,12.9335,13.0319,13.2203,13.3995,13.5012,13.4897,13.4934,13.5227,13.4498,13.25,12.8994,12.8264,12.6447,12.4762,12.531,12.7354,12.9361,13.1486,13.2301,13.102,13.1209,12.9766,12.7648,12.6928,12.713,12.7468,12.7535,12.7502,12.7502,12.7535,12.7535,12.7603,12.8246,12.8584,12.8618,12.8618,12.8753,12.9092,12.9193,12.943,12.9701,13.0174,13.0479,13.0648,13.0479,13.0073,12.9633,12.943,12.8584,12.784,12.7535,12.7163,12.6554,12.6081,12.5776,12.537,12.5032,12.4085,12.3307,12.2664,12.1988,12.0939,11.9856,11.918,11.8977,11.8165,11.7691,11.7251,11.6643,11.6338,11.6169,11.5661,11.5323,11.4782,11.4072,11.3496,11.309,11.3057,11.2786,11.2109,11.1805,11.167,11.1534,11.1433,11.1331,11.1196,11.0553,10.9911,10.9978,11.0046,11.008,11.0046,11.0114,10.9978,10.9809,10.9775,11.008,11.0211,11.0167,10.8605,12.6445,12.5094,12.4851,12.5981,12.7831,12.8151,12.9555,13.1548,13.0186,12.9862,12.9325,12.7997,12.7663,12.7369,12.8408,12.9142,13.0256,13.1802,13.3444,13.5158,13.5337,13.5668,13.6145,13.5854,13.4371,13.0082,12.9705,12.8051,12.6685,12.6673,12.8138,13.0698,13.2684,13.3135,13.3673,13.2739,13.0887,12.9577,12.8182,12.7738,12.8178,12.8314,12.8314,12.8517,12.855,12.8686,12.8855,12.9193,12.9362,12.9362,12.9261,12.9193,12.9227,12.9362,12.9362,12.9464,13.0174,13.0648,13.0817,13.0614,13.0445,13.1054,12.9971,12.9024,12.8449,12.8077,12.7603,12.6893,12.6216,12.554,12.51,12.4829,12.4322,12.351,12.2799,12.2157,12.1243,12.0093,11.9552,11.9315,11.8808,11.8266,11.7793,11.7251,11.7015,11.671,11.6169,11.5628,11.5086,11.4545,11.397,11.326,11.309,11.2583,11.1906,11.1703,11.1568,11.1467,11.1399,11.1264,11.1095,11.0249,10.9606,10.964,10.9674,10.9538,10.9369,10.9268,10.9166,10.9132,10.9234,10.9403,10.9741,11.0147,10.8306,12.7259,12.6854,12.537,12.6937,13.0315,13.0622,13.1909,13.4103,13.3654,13.2193,12.9837,12.9867,12.8528,12.7731,12.7279,12.8395,13.0319,13.1506,13.2768,13.4938,13.5341,13.5708,13.6441,13.666,13.5583,13.4187,13.2656,13.085,12.8693,12.7981,12.8486,12.9996,13.1857,13.2842,13.3452,13.283,13.229,13.1068,12.9538,12.8975,12.8855,12.9024,12.9261,12.9633,12.9734,13.0073,13.0445,13.0309,13.0106,13.0039,12.9531,12.9295,12.943,12.9836,13.0073,13.0106,13.0682,13.102,13.0614,13.0445,13.0005,12.9667,12.9362,12.9227,12.8889,12.8483,12.7908,12.7028,12.6047,12.5404,12.6487,12.5438,12.4119,12.3172,12.2563,12.1988,12.0905,12.0262,11.9992,11.989,11.9349,11.8875,11.8469,11.7962,11.7522,11.7082,11.6473,11.5932,11.5357,11.4883,11.4376,11.3666,11.2955,11.2312,11.1568,11.1568,11.1501,11.1467,11.1331,11.1095,11.0722,10.9843,10.9369,10.9437,10.8997,10.849,10.8388,10.8557,10.8219,10.8118,10.8354,10.8659,10.9268,10.9704,10.9465,12.8191,12.7259,12.5523,12.7061,13.0333,13.0671,13.2651,13.5221,13.3904,13.2284,13.0886,12.951,12.8386,12.7947,12.863,13.0454,13.2345,13.2142,13.326,13.4976,13.4808,13.5244,13.6463,13.6878,13.75,13.7055,13.5864,13.2907,12.9907,12.8338,12.8596,13.0086,13.1544,13.3025,13.4449,13.4468,13.3693,13.2597,13.1469,13.0146,12.9423,12.9498,13.0005,13.0242,13.0682,13.1054,13.1223,13.1155,13.0885,13.0817,13.0546,13.0174,13.0174,13.0614,13.0885,13.0242,13.0783,13.1088,13.0445,13.0309,13.0106,12.9836,12.9464,12.9227,12.9125,12.8821,12.828,12.7535,12.6724,12.6148,12.6825,12.5573,12.4491,12.3713,12.2969,12.1988,12.1108,12.0567,12.0364,12.0262,11.9924,11.9552,11.9417,11.8808,11.8097,11.7454,11.6778,11.6203,11.5628,11.5289,11.485,11.4173,11.3429,11.2718,11.2042,11.1839,11.1568,11.1433,11.1365,11.1128,11.079,11.0114,10.9538,10.9302,10.8625,10.805,10.8388,10.8862,10.7982,10.7272,10.7813,10.8422,10.8997,10.9295,10.9088,12.9264,12.78,12.5676,12.6593,12.9264,12.9535,13.1881,13.4656,13.2866,13.1706,13.1469,12.9301,12.8133,12.8275,12.998,13.2501,13.5468,13.3844,13.3949,13.4778,13.4553,13.4864,13.618,13.7484,13.8567,13.9183,13.7858,13.5104,13.1723,12.9694,12.9625,13.0344,13.1283,13.3448,13.5543,13.5072,13.4843,13.4671,13.3448,13.1525,13.0522,13.0236,13.0614,13.0749,13.1324,13.1696,13.2035,13.1764,13.1663,13.1561,13.1392,13.1121,13.0851,13.1764,13.1493,13.0073,13.0715,13.0783,13.0309,13.0039,12.9937,12.9802,12.9633,12.943,12.9092,12.8956,12.8686,12.828,12.7434,12.6859,12.6791,12.5776,12.4863,12.4119,12.3172,12.219,12.1412,12.0803,12.033,12.0262,12.0296,12.0025,11.9619,11.8909,11.8063,11.7319,11.6643,11.6304,11.5831,11.5763,11.5357,11.4748,11.4038,11.3361,11.2752,11.2312,11.1906,11.1433,11.1399,11.1264,11.1027,11.0689,11.0181,10.9674,10.893,10.8524,10.8896,10.8727,10.7779,10.7306,10.7678,10.8219,10.893,10.9606,10.9656,12.9936,12.94,12.6029,12.5912,12.7657,12.78,12.9803,13.288,13.2516,13.1702,13.06,13.0319,12.8841,12.8375,12.9945,13.225,13.3414,13.3735,13.4057,13.5175,13.48,13.5124,13.6408,13.8115,13.8969,13.9849,13.8425,13.6398,13.3905,13.2076,13.05,13.0168,13.1151,13.3086,13.498,13.498,13.5517,13.647,13.5151,13.3546,13.2373,13.1565,13.1659,13.1967,13.2339,13.2644,13.2982,13.2677,13.2407,13.2305,13.1798,13.146,13.1426,13.2035,13.1595,13.0918,13.0749,13.0817,12.9734,12.9464,12.9464,12.9599,12.9768,12.9734,12.943,12.8922,12.8753,12.9058,12.7874,12.7163,12.6994,12.6182,12.5167,12.4186,12.3273,12.2393,12.1649,12.1074,12.0634,12.0398,12.0431,11.9958,11.9518,11.8706,11.7928,11.7218,11.6609,11.6304,11.6034,11.5932,11.5763,11.5154,11.4714,11.4072,11.326,11.282,11.2177,11.1568,11.1399,11.1399,11.1196,11.0993,11.0858,11.0316,10.9505,10.8659,10.8422,10.8016,10.734,10.7306,10.761,10.8253,10.9031,10.9535,11.0143,12.9535,12.8332,12.5795,12.576,12.7259,12.7404,12.94,13.1773,13.0593,12.9901,12.9605,12.8113,12.7522,12.8301,13.1325,13.3844,13.5019,13.5162,13.5557,13.5594,13.5198,13.5215,13.6597,13.7326,13.817,13.9885,13.9795,13.8873,13.6521,13.355,13.0947,12.9805,13.0215,13.1977,13.4467,13.4707,13.6068,13.6724,13.5769,13.3456,13.218,13.1784,13.2204,13.2508,13.2948,13.332,13.3489,13.3456,13.3185,13.3117,13.2813,13.2238,13.1967,13.2272,13.2272,12.9971,13.1223,13.1054,12.9565,12.9261,12.9295,12.9396,12.9836,13.0073,12.9768,12.9531,12.9159,12.9159,12.828,12.7671,12.7197,12.6115,12.5472,12.4592,12.3611,12.3138,12.2393,12.1446,12.0973,12.077,12.0533,12.0093,11.9755,11.945,11.8841,11.8165,11.7454,11.6913,11.6473,11.6067,11.5864,11.5526,11.5188,11.4816,11.3936,11.3226,11.2414,11.1839,11.1399,11.1365,11.1331,11.123,11.1095,11.079,11.008,10.92,10.8287,10.7779,10.7543,10.7509,10.7475,10.8287,10.9099,10.9809,10.9965,12.8991,12.7259,12.5523,12.5523,12.6741,12.6707,12.8472,13.0852,12.8715,12.8261,12.8541,12.6707,12.6546,12.9109,13.2467,13.4983,13.6272,13.703,13.7318,13.6601,13.5839,13.5803,13.6906,13.7375,13.8651,14.0513,14.0878,14.0211,13.8183,13.5385,13.2566,13.0203,13.0018,13.158,13.3872,13.534,13.6684,13.8527,13.6727,13.4464,13.2582,13.2468,13.2644,13.3016,13.3354,13.3692,13.3692,13.3692,13.3659,13.3625,13.3591,13.3016,13.2508,13.2677,13.2238,13.0715,13.1426,13.129,13.0174,12.9734,12.9734,12.9937,13.014,13.0648,13.058,13.0445,12.9971,12.9261,12.8787,12.8246,12.7603,12.6182,12.5607,12.5032,12.4254,12.3916,12.3375,12.219,12.1311,12.104,12.0736,12.0364,12.0161,12.0195,11.9789,11.9146,11.8435,11.7556,11.6845,11.6135,11.5932,11.5661,11.5526,11.5086,11.4105,11.3327,11.2617,11.2042,11.1602,11.1399,11.1365,11.1331,11.123,11.0858,11.0486,10.9978,10.92,10.8524,10.7915,10.7881,10.7982,10.849,10.9166,10.9944,11.0274,12.8991,12.7259,12.5523,12.4851,12.4973,12.4817,12.6029,12.8191,12.7513,12.7681,12.8097,12.6837,12.6784,12.9058,13.2326,13.4957,13.6148,13.7066,13.7478,13.7514,13.723,13.723,13.7991,13.9045,14.0102,14.1211,14.1578,14.0957,13.952,13.7341,13.4991,13.3121,13.1273,13.2298,13.4577,13.6736,13.794,13.9262,13.8062,13.6563,13.4649,13.3968,13.3489,13.3523,13.3659,13.3692,13.3692,13.3692,13.3692,13.3692,13.3692,13.3557,13.305,13.2847,13.2001,13.1257,13.1392,13.1223,13.0546,13.0648,13.1121,13.1257,13.1223,13.1223,13.1324,13.0648,13.0039,12.943,12.9092,12.8347,12.7603,12.6791,12.5912,12.5066,12.4423,12.4153,12.351,12.2563,12.1751,12.1345,12.0973,12.0601,12.0262,12.0262,11.9924,11.9247,11.7962,11.7082,11.6507,11.5898,11.5864,11.5763,11.5763,11.5188,11.4004,11.3327,11.2888,11.2211,11.1636,11.1467,11.1399,11.1331,11.1298,11.1162,11.0824,11.0486,11.0114,10.9335,10.8693,10.8388,10.8456,10.8997,10.964,11.0452,11.0925,12.8991,12.7259,12.5523,12.4694,12.4694,12.4694,12.5795,12.7001,12.618,12.617,12.682,12.6431,12.6702,12.8358,13.1164,13.3591,13.4819,13.6619,13.7846,13.8353,13.8233,13.8523,13.9173,13.9655,14.0138,14.1718,14.2165,14.2382,14.2115,13.8931,13.7466,13.5393,13.2763,13.3329,13.5316,13.8716,14.026,13.96,13.9108,13.7668,13.5546,13.4241,13.3692,13.3692,13.3692,13.3692,13.3692,13.3692,13.3692,13.3692,13.3659,13.3388,13.3016,13.2576,13.1899,13.1155,13.1527,13.1561,13.1155,13.1324,13.1561,13.1933,13.173,13.1629,13.2001,13.1392,13.0682,13.0073,12.9396,12.855,12.7332,12.6554,12.581,12.4964,12.4525,12.4356,12.378,12.2935,12.2258,12.1886,12.1379,12.0905,12.0567,12.0262,11.9822,11.9214,11.786,11.671,11.6237,11.5831,11.5797,11.5797,11.5797,11.5459,11.4342,11.3733,11.3226,11.2515,11.1771,11.1771,11.1771,11.1399,11.1365,11.1264,11.123,11.0993,11.0587,10.9978,10.9471,10.9031,10.9132,10.9505,11.0215,11.0959,11.1196,12.94,12.7943,12.5642,12.4694,12.4694,12.4694,12.537,12.6214,12.5521,12.5506,12.625,12.6757,12.713,12.8207,13.0447,13.2807,13.4447,13.6347,13.8316,13.9052,13.9162,13.9599,14.0306,14.0745,14.1001,14.2528,14.3009,14.3225,14.3691,13.9769,13.8137,13.6639,13.4598,13.4284,13.6654,14.0867,14.2636,14.0963,13.9536,13.8125,13.5858,13.4378,13.3692,13.3692,13.3692,13.3692,13.3692,13.3692,13.3489,13.3354,13.3185,13.288,13.2407,13.1899,13.1392,13.129,13.1426,13.1933,13.1866,13.2069,13.2407,13.3083,13.261,13.2576,13.2508,13.2001,13.0986,13.0309,12.9599,12.8686,12.74,12.7028,12.6318,12.5607,12.5269,12.4998,12.4423,12.3679,12.3002,12.2427,12.192,12.1379,12.0601,12.0262,11.9856,11.9315,11.83,11.7218,11.6507,11.6101,11.5797,11.5797,11.5797,11.5357,11.4782,11.4308,11.3801,11.3226,11.2617,11.2448,11.2312,11.194,11.1703,11.1771,11.1703,11.1501,11.0993,11.0384,10.9978,10.9606,10.9843,11.0114,11.0587,11.123,11.1264,13.0069,12.9535,12.618,12.4851,12.4694,12.4694,12.4851,12.523,12.5664,12.6216,12.6927,12.8195,12.8602,12.8728,13.0552,13.2475,13.4565,13.6398,13.8233,13.9622,13.9922,14.0548,14.1098,14.1461,14.197,14.3299,14.3707,14.3964,14.4729,14.1024,13.9262,13.7708,13.5669,13.4872,13.7185,14.1425,14.3027,14.2138,14.0386,13.8666,13.7109,13.5484,13.4685,13.4127,13.4127,13.4259,13.3692,13.3523,13.3219,13.2847,13.261,13.2272,13.1866,13.1121,13.0986,13.146,13.1493,13.1866,13.2441,13.3185,13.3692,13.4031,13.3388,13.3354,13.3253,13.2407,13.1257,13.0648,12.9802,12.8956,12.8347,12.7874,12.6994,12.6318,12.5946,12.5506,12.4931,12.4322,12.3645,12.2935,12.2495,12.1988,12.0973,12.0195,11.989,11.9349,11.8571,11.7759,11.6913,11.627,11.5864,11.5797,11.5797,11.556,11.5154,11.4816,11.4376,11.3835,11.3361,11.309,11.2921,11.2718,11.2549,11.2414,11.2076,11.1737,11.1298,11.079,11.0621,11.0519,11.0486,11.0722,11.1162,11.1602,11.1873,13.1108,12.9936,12.7548,12.576,12.4851,12.4694,12.4694,12.4897,12.5901,12.668,12.7289,12.8466,12.9076,12.9339,12.9818,13.1827,13.4569,13.5115,13.6889,13.9922,14.0256,14.11,14.1761,14.2348,14.3046,14.4037,14.4257,14.4257,14.4955,14.183,14.0065,13.8528,13.67,13.6783,13.8707,14.1557,14.284,14.3551,14.2319,14.0899,14.0081,13.8336,13.6602,13.5449,13.5255,13.4677,13.3657,13.3151,13.2745,13.2407,13.2136,13.1866,13.1764,13.1257,13.1324,13.1899,13.2102,13.2508,13.3083,13.3591,13.3726,13.3929,13.3929,13.3726,13.3557,13.2779,13.1866,13.1054,13.0276,12.9396,12.8415,12.8144,12.7468,12.6791,12.6318,12.5912,12.5404,12.4795,12.4153,12.3442,12.2901,12.1954,12.0939,12.0364,12.0025,11.9619,11.8909,11.8063,11.7184,11.6372,11.5831,11.5797,11.5797,11.5695,11.5459,11.5154,11.4917,11.4511,11.3936,11.3463,11.3361,11.3395,11.2989,11.2685,11.2312,11.1974,11.1568,11.1298,11.1501,11.1501,11.1534,11.1602,11.1974,11.2515,11.2989,13.1648,12.9936,12.8191,12.6295,12.4817,12.4694,12.4829,12.5167,12.5901,12.6578,12.7594,12.8669,12.9212,12.9092,12.9483,13.1254,13.4431,13.4843,13.6726,13.9846,14.055,14.1431,14.2275,14.2936,14.3707,14.4551,14.4624,14.4551,14.4839,14.2674,14.03,13.8341,13.7214,13.6992,13.8666,14.0558,14.2699,14.3182,14.2319,14.1716,14.0977,13.9547,13.7592,13.6144,13.5219,13.4659,13.3307,13.2475,13.2102,13.1967,13.1798,13.1493,13.1595,13.1663,13.1493,13.173,13.2339,13.2644,13.3083,13.3591,13.3692,13.376,13.3692,13.3828,13.376,13.305,13.2407,13.1663,13.0851,12.9937,12.9024,12.8719,12.8077,12.74,12.6791,12.6385,12.5743,12.5134,12.4389,12.3713,12.3408,12.2292,12.1108,12.0634,12.0195,11.9755,11.9281,11.8435,11.759,11.6744,11.6101,11.6067,11.5898,11.5729,11.5628,11.5459,11.5256,11.512,11.468,11.4173,11.4072,11.4105,11.353,11.2854,11.2312,11.1873,11.1839,11.1771,11.1873,11.2245,11.2685,11.2786,11.2888,11.326,11.3767,13.1808,13.0069,12.8191,12.6593,12.4973,12.4851,12.51,12.5776,12.5145,12.6091,12.8043,12.8712,12.9186,12.9159,12.9193,13.1135,13.3732,13.4293,13.6726,13.919,14.0203,14.1384,14.2455,14.334,14.411,14.4698,14.4881,14.4771,14.4723,14.2877,14.0249,13.778,13.6944,13.6671,13.7666,13.9202,14.1468,14.219,14.2446,14.2121,14.156,14.0163,13.8139,13.6574,13.5367,13.4218,13.2867,13.179,13.1392,13.1324,13.1257,13.0851,13.0783,13.102,13.0783,13.0986,13.1866,13.2373,13.2745,13.3286,13.3625,13.3692,13.3692,13.4098,13.4031,13.3354,13.2677,13.1967,13.1155,13.058,12.9971,12.9396,12.8787,12.8077,12.7332,12.6724,12.6047,12.5303,12.4525,12.4119,12.4153,12.3307,12.1785,12.104,12.0431,12.0059,11.9687,11.945,11.8537,11.7251,11.671,11.6507,11.6304,11.5864,11.5729,11.5628,11.5594,11.5425,11.5526,11.5188,11.5053,11.4748,11.4241,11.3463,11.2279,11.1839,11.2008,11.2076,11.2143,11.2651,11.3395,11.353,11.353,11.3869,11.4207,13.3516,13.1773,13.0069,12.8332,12.6593,12.5249,12.4829,12.5066,12.554,12.6453,12.7366,12.8644,12.9118,12.9193,12.9193,13.0706,13.1908,13.3161,13.5214,13.7339,13.9369,14.0884,14.2226,14.3486,14.4257,14.4734,14.4991,14.4991,14.457,14.3182,14.1203,13.8916,13.733,13.6239,13.6117,13.6944,13.9345,14.13,14.186,14.2281,14.2615,14.1802,13.9765,13.7868,13.6092,13.4705,13.3009,13.1207,13.0812,13.0648,13.014,12.9802,13.0411,13.0546,13.0512,13.1223,13.1967,13.2542,13.2644,13.3253,13.3692,13.3692,13.3692,13.376,13.3828,13.3489,13.2813,13.2069,13.1324,13.0682,13.0039,12.943,12.9092,12.8618,12.7806,12.6893,12.6182,12.5404,12.4626,12.4186,12.4254,12.3172,12.1751,12.1243,12.0702,12.0364,12.0127,11.9958,11.9417,11.8131,11.7285,11.7082,11.6541,11.6067,11.5864,11.5729,11.5763,11.5763,11.5797,11.5797,11.556,11.5222,11.4883,11.4004,11.2685,11.2279,11.2346,11.2346,11.2245,11.3293,11.4038,11.4105,11.4241,11.4545,11.485,13.4348,13.2699,13.1523,13.0069,12.8191,12.576,12.5109,12.6,12.5821,12.6148,12.7062,12.8043,12.8753,12.9159,12.9322,13.0146,13.1908,13.2206,13.3837,13.6363,13.8239,14.0164,14.185,14.3361,14.4514,14.4881,14.4991,14.4991,14.4723,14.4023,14.2319,14.0457,13.8482,13.6636,13.5643,13.5677,13.6944,13.9238,14.0977,14.2238,14.2754,14.2932,14.0846,13.845,13.6571,13.4921,13.2701,13.046,13.0202,13.0208,12.9734,12.9802,13.0174,13.0106,13.0208,13.0783,13.1189,13.1696,13.2001,13.2711,13.3253,13.3625,13.3692,13.3726,13.3557,13.3286,13.2711,13.2069,13.1324,13.0614,12.9971,12.9396,12.9295,12.9125,12.8111,12.7062,12.625,12.5472,12.4829,12.422,12.3442,12.2393,12.1649,12.1277,12.0871,12.0465,12.0228,12.0195,11.9789,11.8977,11.8097,11.7624,11.6913,11.627,11.6034,11.5797,11.5797,11.5797,11.5797,11.5797,11.5763,11.5323,11.468,11.3869,11.2955,11.2854,11.2921,11.2448,11.2448,11.3632,11.4613,11.4613,11.485,11.5256,11.5492,13.4314,13.2865,13.2699,13.1523,12.9705,12.681,12.6694,12.8331,12.6665,12.6002,12.7222,12.7865,12.8805,12.9254,12.9611,13.0304,13.1101,13.1407,13.2588,13.5562,13.7085,13.9133,14.1359,14.3282,14.394,14.4656,14.4918,14.4771,14.4955,14.4452,14.3587,14.219,14.0045,13.7894,13.6239,13.4446,13.5209,13.7062,13.8701,14.0059,14.1413,14.1074,13.9381,13.6068,13.4434,13.3191,13.0687,12.9457,12.9498,12.9937,13.014,13.0073,12.9904,12.9667,12.9802,13.0174,13.0614,13.1121,13.173,13.2475,13.3117,13.3523,13.3692,13.3557,13.332,13.3016,13.2508,13.1866,13.1155,13.0411,12.9734,12.9396,12.9227,12.8821,12.8009,12.7265,12.6656,12.5675,12.4626,12.4051,12.3476,12.2461,12.1582,12.1209,12.0871,12.0465,12.0262,12.0262,11.9958,11.9383,11.874,11.803,11.6981,11.6203,11.6,11.5797,11.5797,11.5797,11.5797,11.5797,11.5797,11.5154,11.4342,11.3902,11.3564,11.3496,11.3429,11.3023,11.3226,11.4545,11.5256,11.5154,11.5391,11.5695,11.5797,13.4132,13.3695,13.2993,13.1648,13.0175,12.9897,12.9974,13.0632,13.0676,12.9577,12.8535,12.9709,13.0276,12.9863,13.0706,13.0981,13.0215,13.0496,13.1617,13.3283,13.5061,13.8082,14.029,14.1613,14.2871,14.421,14.4588,14.4514,14.4881,14.4723,14.4023,14.219,14.0457,13.8627,13.6721,13.4566,13.4156,13.541,13.5673,13.7626,13.9628,13.9584,13.8168,13.6068,13.4707,13.2761,13.0861,12.9771,12.9551,12.9464,12.9464,12.9464,12.943,12.9261,12.9295,12.9599,13.0445,13.0986,13.1629,13.2441,13.3253,13.3523,13.3625,13.3253,13.2948,13.2644,13.2204,13.1595,13.0918,13.0174,12.9667,12.9362,12.9125,12.855,12.7908,12.74,12.6927,12.5709,12.4457,12.3916,12.3476,12.2664,12.1717,12.1142,12.0837,12.0567,12.0364,12.0228,11.9992,11.9552,11.8875,11.8063,11.6744,11.6034,11.5932,11.5797,11.5797,11.5797,11.5797,11.5797,11.5797,11.5425,11.4917,11.4613,11.4342,11.4173,11.397,11.3733,11.4207,11.5323,11.556,11.5357,11.5492,11.5763,11.5797,13.3576,13.3435,13.2493,13.229,13.2322,13.1707,13.1813,13.2798,13.2984,13.2256,13.1215,13.2126,13.2154,13.1338,13.1908,13.1918,13.0612,12.9585,13.0952,13.2296,13.3744,13.6652,13.8551,14.047,14.2774,14.4313,14.4472,14.4661,14.4955,14.4991,14.4179,14.3146,14.1468,13.9591,13.7491,13.5323,13.3745,13.4032,13.3389,13.4701,13.7263,13.7285,13.7843,13.6506,13.4944,13.2906,13.1373,13.0304,12.9483,12.9193,12.9227,12.9227,12.9261,12.9227,12.9193,12.9498,13.0174,13.1054,13.1629,13.2373,13.3286,13.3489,13.3659,13.332,13.3151,13.2779,13.1595,13.0918,13.0208,12.9498,12.943,12.9227,12.9193,12.8855,12.7738,12.6893,12.6148,12.5167,12.4288,12.378,12.3205,12.2461,12.1582,12.0837,12.0601,12.0465,12.0296,12.0262,12.0025,11.9653,11.9011,11.8266,11.7048,11.6406,11.6406,11.6135,11.5797,11.5797,11.5797,11.5797,11.5797,11.5797,11.5594,11.5053,11.4714,11.4579,11.4376,11.4308,11.4647,11.5526,11.556,11.5425,11.5628,11.5797,11.5797,13.2878,13.2886,13.2402,13.3353,13.5085,13.3221,13.3439,13.5139,13.4851,13.4841,13.5206,13.4841,13.4717,13.3942,13.3623,13.3207,13.2368,13.1063,13.1556,13.1981,13.2886,13.5252,13.7716,14.0121,14.2047,14.3859,14.4656,14.4844,14.4991,14.4991,14.4876,14.457,14.3146,14.13,13.9272,13.6608,13.4477,13.3243,13.2631,13.2595,13.3896,13.5198,13.589,13.5914,13.4944,13.3161,13.1525,13.027,12.9322,12.9193,12.9193,12.9193,12.9193,12.9193,12.9193,12.943,12.9971,13.0648,13.1189,13.1866,13.2677,13.3219,13.3422,13.332,13.3016,13.2238,13.1088,13.0309,12.9565,12.9261,12.9227,12.9193,12.9193,12.8889,12.7671,12.6385,12.554,12.4761,12.4254,12.3713,12.2969,12.2258,12.1514,12.077,12.0431,12.033,12.0262,12.0262,12.0127,11.9653,11.9112,11.8503,11.7657,11.7218,11.6879,11.6304,11.5797,11.5797,11.5797,11.5797,11.5797,11.5797,11.5628,11.5222,11.4951,11.5053,11.5086,11.5053,11.5492,11.5898,11.5661,11.5594,11.5661,11.5797,11.5797,13.2695,13.3943,13.439,13.5341,13.6257,13.6398,13.7202,13.8155,13.8621,13.9095,13.8745,13.8745,13.776,13.4879,13.6963,13.621,13.2911,13.1959,13.1637,13.175,13.1429,13.3372,13.5944,13.8906,14.0331,14.2579,14.4582,14.4955,14.4844,14.4918,14.4955,14.4766,14.311,14.1536,14.0163,13.7293,13.4195,13.2821,13.1204,13.0804,13.1835,13.2719,13.2649,13.2206,13.1254,13.027,12.9611,12.9483,12.9193,12.9193,12.9193,12.9193,12.9193,12.9193,12.9193,12.9362,12.9904,13.0309,13.0885,13.1426,13.217,13.2576,13.2542,13.217,13.1798,13.1324,13.0411,12.9836,12.9328,12.9227,12.9193,12.9193,12.9159,12.8618,12.7705,12.6318,12.5167,12.4761,12.4356,12.3679,12.2935,12.2224,12.1514,12.0871,12.0364,12.0262,12.0262,12.0262,12.0228,11.9721,11.918,11.8672,11.8097,11.7421,11.6879,11.6237,11.5797,11.5797,11.5797,11.5797,11.5797,11.5797,11.5594,11.5391,11.556,11.5729,11.5763,11.5797,11.6169,11.644,11.6,11.5797,11.5898,11.5786,11.574]},{"header":{"parameterUnit":"m.s-1","parameterCategory":1,"la1":31.0,"la2":29.5877,"lo1":-88.7671,"lo2":-86.6584,"dy":0.0162,"dx":0.0185,"nx":115,"ny":88,"refTime":"2026-03-15T12:00:00:Z","depth":0,"parameterNumber":3,"parameterNumberName":"V-component_of_WINDS"},"data":[0.0,0.0,0.0,0.0,0.0,0.0,0.0,0.0,0.0,0.0,0.0,0.0,0.0,0.0,0.0,0.0,0.0,0.0,0.0,0.0,0.0,0.0,0.0,0.0,0.0,0.0,0.0,0.0,0.0,0.0,0.0,0.0,0.0,0.0,0.0,0.0,0.0,0.0,0.0,0.0,0.0,0.0,0.0,0.0,0.0,0.0,0.0,0.0,0.0,0.0,0.0,0.0,0.0,0.0,0.0,0.0,0.0,0.0,0.0,0.0,0.0,0.0,0.0,0.0,0.0,0.0,0.0,0.0,0.0,0.0,0.0,0.0,0.0,0.0,0.0,0.0,0.0,0.0,0.0,0.0,0.0,0.0,0.0,0.0,0.0,0.0,0.0,0.0,0.0,0.0,0.0,0.0,0.0,0.0,0.0,0.0,0.0,0.0,0.0,0.0,0.0,0.0,0.0,0.0,0.0,0.0,0.0,0.0,0.0,0.0,0.0,0.0,0.0,0.0,0.0,0.0,0.0,0.0,0.0,0.0,0.0,0.0,0.0,0.0,0.0,0.0,0.0,0.0,0.0,0.0,0.0,0.0,0.0,0.0,0.0,0.0,0.0,0.0,0.0,0.0,0.0,0.0,0.0,0.0,0.0,0.0,0.0,0.0,0.0,0.0,0.0,0.0,0.0,0.0,0.0,0.0,0.0,0.0,0.0,0.0,0.0,0.0,0.0,0.0,0.0,0.0,0.0,0.0,0.0,0.0,0.0,0.0,0.0,0.0,0.0,0.0,0.0,0.0,0.0,0.0,0.0,0.0,0.0,0.0,0.0,0.0,0.0,0.0,0.0,0.0,0.0,0.0,0.0,0.0,0.0,0.0,0.0,0.0,0.0,0.0,0.0,0.0,0.0,0.0,0.0,0.0,0.0,0.0,0.0,0.0,0.0,0.0,0.0,0.0,0.0,0.0,0.0,0.0,0.0,0.0,0.0,0.0,0.0,0.0,0.0,0.0,0.0,0.0,0.0,0.0,0.0,0.0,0.0,0.0,0.0,0.0,0.0,0.0,0.0,0.0,0.0,0.0,0.0,0.0,0.0,0.0,0.0,0.0,0.0,0.0,0.0,0.0,0.0,0.0,0.0,0.0,0.0,0.0,0.0,0.0,0.0,0.0,0.0,0.0,0.0,0.0,0.0,0.0,0.0,0.0,0.0,0.0,0.0,0.0,0.0,0.0,0.0,0.0,0.0,0.0,0.0,0.0,0.0,0.0,0.0,0.0,0.0,0.0,0.0,0.0,0.0,0.0,0.0,0.0,0.0,0.0,0.0,0.0,0.0,0.0,0.0,0.0,0.0,0.0,0.0,0.0,0.0,0.0,0.0,0.0,0.0,0.0,0.0,0.0,0.0,0.0,0.0,0.0,0.0,0.0,0.0,0.0,0.0,0.0,0.0,0.0,0.0,0.0,0.0,0.0,0.0,0.0,0.0,0.0,0.0,0.0,0.0,0.0,0.0,0.0,0.0,0.0,0.0,0.0,0.0,0.0,0.0,0.0,0.0,0.0,0.0,0.0,0.0,0.0,0.0,0.0,0.0,0.0,0.0,0.0,0.0,0.0,0.0,0.0,0.0,0.0,0.0,0.0,0.0,0.0,0.0,0.0,0.0,0.0,0.0,0.0,0.0,0.0,0.0,0.0,0.0,0.0,0.0,0.0,0.0,0.0,0.0,0.0,0.0,0.0,0.0,0.0,0.0,0.0,0.0,0.0,0.0,0.0,0.0,0.0,0.0,0.0,0.0,0.0,0.0,0.0,0.0,0.0,0.0,0.0,0.0,0.0,0.0,0.0,0.0,0.0,0.0,0.0,0.0,0.0,0.0,0.0,0.0,0.0,0.0,0.0,0.0,0.0,0.0,0.0,0.0,0.0,0.0,0.0,0.0,0.0,0.0,0.0,0.0,0.0,0.0,0.0,0.0,0.0,0.0,0.0,0.0,0.0,0.0,0.0,0.0,0.0,0.0,0.0,0.0,0.0,0.0,0.0,0.0,0.0,0.0,0.0,0.0,0.0,0.0,0.0,0.0,0.0,0.0,0.0,0.0,0.0,0.0,0.0,0.0,0.0,0.0,0.0,0.0,0.0,0.0,0.0,0.0,0.0,0.0,0.0,0.0,0.0,0.0,0.0,0.0,0.0,0.0,0.0,0.0,0.0,0.0,0.0,0.0,0.0,0.0,0.0,0.0,0.0,0.0,0.0,0.0,0.0,0.0,0.0,0.0,0.0,0.0,0.0,0.0,0.0,0.0,0.0,0.0,0.0,0.0,0.0,0.0,0.0,0.0,0.0,0.0,0.0,0.0,0.0,0.0,0.0,0.0,0.0,0.0,0.0,0.0,0.0,0.0,0.0,0.0,0.0,0.0,0.0,0.0,0.0,0.0,0.0,0.0,0.0,0.0,0.0,0.0,0.0,0.0,0.0,0.0,0.0,0.0,0.0,0.0,0.0,0.0,0.0,0.0,0.0,0.0,0.0,0.0,0.0,0.0,0.0,0.0,0.0,0.0,0.0,0.0,0.0,0.0,0.0,0.0,0.0,0.0,0.0,0.0,0.0,0.0,0.0,0.0,0.0,0.0,0.0,0.0,0.0,0.0,0.0,0.0,0.0,0.0,0.0,0.0,0.0,0.0,0.0,0.0,0.0,0.0,0.0,0.0,0.0,0.0,0.0,0.0,0.0,0.0,0.0,0.0,0.0,0.0,0.0,0.0,0.0,0.0,0.0,0.0,0.0,0.0,0.0,0.0,0.0,0.0,0.0,0.0,0.0,0.0,0.0,0.0,0.0,0.0,0.0,0.0,0.0,0.0,0.0,0.0,0.0,0.0,0.0,0.0,0.0,0.0,0.0,0.0,0.0,0.0,0.0,0.0,0.0,0.0,0.0,0.0,0.0,0.0,0.0,0.0,0.0,0.0,0.0,0.0,0.0,0.0,0.0,0.0,0.0,0.0,0.0,0.0,0.0,0.0,0.0,0.0,0.0,0.0,0.0,0.0,0.0,0.0,0.0,0.0,0.0,0.0,0.0,0.0,0.0,0.0,0.0,0.0,0.0,0.0,0.0,0.0,0.0,0.0,0.0,0.0,0.0,0.0,0.0,0.0,0.0,0.0,0.0,0.0,0.0,0.0,0.0,0.0,0.0,0.0,0.0,0.0,0.0,0.0,0.0,0.0,0.0,0.0,0.0,0.0,0.0,0.0,0.0,0.0,0.0,0.0,0.0,0.0,0.0,0.0,0.0,0.0,0.0,0.0,0.0,0.0,0.0,0.0,0.0,0.0,0.0,0.0,0.0,0.0,0.0,0.0,0.0,0.0,0.0,0.0,0.0,0.0,0.0,0.0,0.0,0.0,0.0,0.0,0.0,0.0,0.0,0.0,0.0,0.0,0.0,0.0,0.0,0.0,0.0,0.0,0.0,0.0,0.0,0.0,0.0,0.0,0.0,0.0,0.0,0.0,0.0,0.0,0.0,0.0,0.0,0.0,0.0,0.0,0.0,0.0,0.0,0.0,0.0,0.0,0.0,0.0,0.0,0.0,0.0,0.0,0.0,0.0,0.0,0.0,0.0,0.0,0.0,0.0,0.0,0.0,0.0,0.0,0.0,0.0,0.0,0.0,0.0,0.0,0.0,0.0,0.0,0.0,0.0,0.0,0.0,0.0,0.0,0.0,0.0,0.0,0.0,0.0,0.0,0.0,0.0,0.0,0.0,0.0,0.0,0.0,0.0,0.0,0.0,0.0,0.0,0.0,0.0,0.0,0.0,0.0,0.0,0.0,0.0,0.0,0.0,0.0,0.0,0.0,0.0,0.0,0.0,0.0,0.0,0.0,0.0,0.0,0.0,0.0,0.0,0.0,0.0,0.0,0.0,0.0,0.0,0.0,0.0,0.0,0.0,0.0,0.0,0.0,0.0,0.0,0.0,0.0,0.0,0.0,0.0,0.0,0.0,0.0,0.0,0.0,0.0,0.0,0.0,0.0,0.0,0.0,0.0,0.0,0.0,0.0,0.0,0.0,0.0,0.0,0.0,0.0,0.0,0.0,0.0,0.0,0.0,0.0,0.0,0.0,0.0,0.0,0.0,0.0,0.0,0.0,0.0,0.0,0.0,0.0,0.0,0.0,0.0,0.0,0.0,0.0,0.0,0.0,0.0,0.0,0.0,0.0,0.0,0.0,0.0,0.0,0.0,0.0,0.0,0.0,0.0,0.0,0.0,0.0,0.0,0.0,0.0,0.0,0.0,-4.2441,0.0,0.0,0.0,0.0,0.0,0.0,0.0,0.0,0.0,0.0,0.0,0.0,0.0,0.0,0.0,0.0,0.0,0.0,0.0,0.0,0.0,0.0,0.0,0.0,0.0,0.0,0.0,0.0,0.0,0.0,0.0,0.0,0.0,0.0,0.0,0.0,0.0,0.0,0.0,0.0,0.0,0.0,0.0,0.0,0.0,0.0,0.0,0.0,0.0,0.0,0.0,0.0,0.0,0.0,0.0,0.0,0.0,0.0,0.0,0.0,0.0,0.0,0.0,0.0,0.0,0.0,0.0,0.0,0.0,0.0,0.0,0.0,0.0,0.0,0.0,0.0,0.0,0.0,0.0,0.0,0.0,0.0,0.0,0.0,0.0,0.0,0.0,0.0,0.0,0.0,0.0,0.0,0.0,0.0,0.0,0.0,0.0,0.0,0.0,0.0,0.0,0.0,0.0,0.0,0.0,0.0,0.0,0.0,0.0,0.0,-4.5781,-4.5996,-4.498,-4.3906,-4.2793,0.0,0.0,0.0,0.0,0.0,0.0,0.0,0.0,0.0,0.0,0.0,0.0,0.0,0.0,0.0,0.0,0.0,0.0,0.0,0.0,0.0,0.0,0.0,0.0,0.0,0.0,0.0,0.0,0.0,0.0,0.0,0.0,0.0,0.0,0.0,0.0,0.0,0.0,0.0,0.0,0.0,0.0,0.0,0.0,0.0,0.0,0.0,0.0,0.0,0.0,0.0,0.0,0.0,0.0,0.0,0.0,0.0,0.0,0.0,0.0,0.0,0.0,0.0,0.0,0.0,0.0,0.0,0.0,0.0,0.0,0.0,0.0,0.0,0.0,0.0,0.0,0.0,0.0,0.0,0.0,0.0,0.0,0.0,0.0,0.0,0.0,0.0,0.0,0.0,0.0,0.0,0.0,0.0,0.0,0.0,0.0,0.0,0.0,0.0,0.0,0.0,0.0,0.0,0.0,0.0,0.0,0.0,0.0,0.0,0.0,0.0,0.0,-4.5566,-4.4375,-4.2676,0.0,0.0,0.0,0.0,0.0,0.0,0.0,0.0,0.0,0.0,0.0,0.0,0.0,0.0,0.0,0.0,0.0,0.0,0.0,0.0,0.0,0.0,0.0,0.0,0.0,0.0,0.0,0.0,0.0,0.0,0.0,0.0,0.0,0.0,0.0,0.0,0.0,0.0,0.0,0.0,0.0,0.0,0.0,0.0,0.0,0.0,0.0,0.0,0.0,0.0,0.0,0.0,0.0,0.0,0.0,0.0,0.0,0.0,0.0,0.0,0.0,0.0,0.0,0.0,0.0,0.0,0.0,0.0,0.0,0.0,0.0,0.0,0.0,0.0,0.0,0.0,0.0,0.0,0.0,0.0,0.0,0.0,0.0,0.0,0.0,0.0,0.0,0.0,0.0,0.0,0.0,0.0,0.0,0.0,0.0,0.0,0.0,0.0,0.0,0.0,0.0,0.0,0.0,0.0,0.0,0.0,0.0,0.0,0.0,0.0,-4.5879,-4.6289,-4.584,0.0,-4.1562,0.0,0.0,0.0,0.0,0.0,0.0,0.0,0.0,0.0,0.0,0.0,0.0,0.0,0.0,0.0,0.0,0.0,0.0,0.0,0.0,0.0,0.0,0.0,0.0,0.0,0.0,0.0,0.0,0.0,0.0,0.0,0.0,0.0,0.0,0.0,0.0,0.0,0.0,0.0,0.0,0.0,0.0,0.0,0.0,0.0,0.0,0.0,0.0,0.0,0.0,0.0,0.0,0.0,0.0,0.0,0.0,0.0,0.0,0.0,0.0,0.0,0.0,0.0,0.0,0.0,0.0,0.0,0.0,0.0,0.0,0.0,0.0,0.0,0.0,0.0,0.0,0.0,0.0,0.0,0.0,0.0,0.0,0.0,0.0,0.0,0.0,0.0,0.0,0.0,0.0,0.0,0.0,0.0,0.0,0.0,0.0,0.0,0.0,0.0,0.0,0.0,0.0,0.0,0.0,0.0,0.0,0.0,0.0,0.0,0.0,0.0,-4.5937,-4.4277,-4.2676,0.0,0.0,0.0,0.0,0.0,0.0,0.0,0.0,0.0,0.0,0.0,0.0,0.0,0.0,0.0,0.0,0.0,0.0,0.0,0.0,0.0,0.0,0.0,0.0,0.0,0.0,0.0,0.0,0.0,0.0,0.0,0.0,0.0,0.0,0.0,0.0,0.0,0.0,0.0,0.0,0.0,0.0,0.0,0.0,0.0,0.0,0.0,0.0,0.0,0.0,0.0,0.0,0.0,0.0,0.0,0.0,0.0,0.0,0.0,0.0,0.0,0.0,0.0,0.0,0.0,0.0,0.0,0.0,0.0,0.0,0.0,0.0,0.0,0.0,0.0,0.0,0.0,0.0,0.0,0.0,0.0,0.0,0.0,0.0,0.0,0.0,0.0,0.0,0.0,0.0,0.0,0.0,0.0,0.0,0.0,0.0,0.0,0.0,0.0,0.0,0.0,0.0,0.0,0.0,0.0,0.0,0.0,0.0,0.0,0.0,-4.5859,0.0,-4.543,-4.3555,-4.1875,-4.0508,0.0,0.0,0.0,0.0,0.0,0.0,0.0,0.0,0.0,0.0,0.0,0.0,0.0,0.0,0.0,0.0,0.0,0.0,0.0,0.0,0.0,0.0,0.0,0.0,0.0,0.0,0.0,0.0,0.0,0.0,0.0,0.0,0.0,0.0,0.0,0.0,0.0,0.0,0.0,0.0,0.0,0.0,0.0,0.0,0.0,0.0,0.0,0.0,0.0,0.0,0.0,0.0,0.0,0.0,0.0,0.0,0.0,0.0,0.0,0.0,0.0,0.0,0.0,0.0,0.0,0.0,0.0,0.0,0.0,0.0,0.0,0.0,0.0,0.0,0.0,0.0,0.0,0.0,0.0,0.0,0.0,0.0,0.0,0.0,0.0,0.0,0.0,0.0,0.0,0.0,0.0,0.0,0.0,0.0,0.0,0.0,0.0,0.0,0.0,0.0,0.0,0.0,0.0,0.0,0.0,0.0,0.0,0.0,0.0,-4.6269,-4.5469,-4.5078,-4.4551,-4.2519,0.0,0.0,0.0,0.0,0.0,0.0,0.0,0.0,0.0,0.0,0.0,0.0,0.0,0.0,0.0,0.0,0.0,0.0,0.0,0.0,0.0,0.0,0.0,0.0,0.0,0.0,0.0,0.0,0.0,0.0,0.0,0.0,0.0,0.0,0.0,0.0,0.0,0.0,0.0,0.0,0.0,0.0,0.0,0.0,0.0,0.0,0.0,0.0,0.0,0.0,0.0,0.0,0.0,0.0,0.0,0.0,0.0,0.0,0.0,0.0,0.0,0.0,0.0,0.0,0.0,0.0,0.0,0.0,0.0,0.0,0.0,0.0,0.0,0.0,0.0,0.0,0.0,0.0,0.0,0.0,0.0,0.0,0.0,0.0,0.0,0.0,0.0,0.0,0.0,0.0,0.0,0.0,0.0,0.0,0.0,0.0,0.0,0.0,0.0,0.0,0.0,0.0,0.0,0.0,0.0,0.0,0.0,0.0,0.0,-4.5488,-4.4805,-4.4746,-4.5332,-4.291,-4.0976,0.0,0.0,0.0,0.0,0.0,0.0,0.0,0.0,0.0,0.0,0.0,0.0,0.0,0.0,0.0,0.0,0.0,0.0,0.0,0.0,0.0,0.0,0.0,0.0,0.0,0.0,0.0,0.0,0.0,0.0,0.0,0.0,0.0,0.0,0.0,0.0,0.0,0.0,0.0,0.0,0.0,0.0,0.0,0.0,0.0,0.0,0.0,0.0,0.0,0.0,0.0,0.0,0.0,0.0,0.0,0.0,0.0,0.0,0.0,0.0,0.0,0.0,0.0,0.0,0.0,0.0,0.0,0.0,0.0,0.0,0.0,0.0,0.0,0.0,0.0,0.0,0.0,0.0,0.0,0.0,0.0,0.0,0.0,0.0,0.0,0.0,0.0,0.0,0.0,0.0,0.0,0.0,0.0,0.0,0.0,0.0,0.0,0.0,0.0,0.0,0.0,0.0,0.0,0.0,0.0,0.0,0.0,0.0,0.0,-4.459,0.0,-4.4512,0.0,-4.2168,-4.0195,0.0,0.0,0.0,0.0,0.0,0.0,0.0,0.0,0.0,0.0,0.0,0.0,0.0,0.0,0.0,0.0,0.0,0.0,0.0,0.0,0.0,0.0,0.0,0.0,0.0,0.0,0.0,0.0,0.0,0.0,0.0,0.0,0.0,0.0,0.0,0.0,0.0,0.0,0.0,0.0,0.0,0.0,0.0,0.0,0.0,0.0,0.0,0.0,0.0,0.0,0.0,0.0,0.0,0.0,0.0,0.0,0.0,0.0,0.0,0.0,0.0,0.0,0.0,0.0,0.0,0.0,0.0,0.0,0.0,0.0,0.0,0.0,0.0,0.0,0.0,0.0,0.0,0.0,0.0,0.0,0.0,0.0,0.0,0.0,0.0,0.0,0.0,0.0,0.0,0.0,0.0,0.0,0.0,0.0,0.0,0.0,0.0,0.0,0.0,0.0,0.0,0.0,0.0,0.0,0.0,0.0,0.0,0.0,-4.4141,-4.4961,-4.5391,-4.4863,-4.3223,-4.2637,-4.041,0.0,0.0,0.0,0.0,0.0,0.0,0.0,0.0,0.0,0.0,0.0,0.0,0.0,0.0,0.0,0.0,0.0,0.0,0.0,0.0,0.0,0.0,0.0,0.0,0.0,0.0,0.0,0.0,0.0,0.0,0.0,0.0,0.0,0.0,0.0,0.0,0.0,0.0,0.0,0.0,0.0,0.0,0.0,0.0,0.0,0.0,0.0,0.0,0.0,0.0,0.0,0.0,0.0,0.0,0.0,0.0,0.0,0.0,0.0,0.0,0.0,0.0,0.0,0.0,0.0,0.0,0.0,0.0,0.0,0.0,0.0,0.0,0.0,0.0,0.0,0.0,0.0,0.0,0.0,0.0,0.0,0.0,0.0,0.0,0.0,0.0,0.0,0.0,0.0,0.0,0.0,0.0,0.0,0.0,0.0,0.0,0.0,0.0,0.0,0.0,0.0,0.0,0.0,0.0,0.0,0.0,0.0,0.0,0.0,-4.373,-4.4687,-4.5391,-4.5625,-4.2734,-4.0898,0.0,0.0,0.0,0.0,0.0,0.0,0.0,0.0,0.0,0.0,0.0,0.0,0.0,0.0,0.0,0.0,0.0,0.0,0.0,0.0,0.0,0.0,0.0,0.0,0.0,0.0,0.0,0.0,0.0,0.0,0.0,0.0,0.0,0.0,0.0,0.0,0.0,0.0,0.0,0.0,0.0,0.0,0.0,0.0,0.0,0.0,0.0,0.0,0.0,0.0,0.0,0.0,0.0,0.0,0.0,0.0,0.0,0.0,0.0,0.0,0.0,0.0,0.0,0.0,0.0,0.0,0.0,0.0,0.0,0.0,0.0,0.0,0.0,0.0,0.0,0.0,0.0,0.0,0.0,0.0,0.0,0.0,0.0,0.0,0.0,0.0,0.0,0.0,0.0,0.0,0.0,0.0,0.0,0.0,0.0,0.0,0.0,0.0,0.0,0.0,0.0,0.0,0.0,0.0,0.0,0.0,0.0,0.0,0.0,-4.5312,-4.6211,-4.6777,-4.6933,-4.3848,-4.1875,-4.1191,0.0,0.0,0.0,0.0,0.0,0.0,0.0,0.0,0.0,0.0,0.0,0.0,0.0,0.0,0.0,0.0,0.0,0.0,0.0,0.0,0.0,0.0,0.0,0.0,0.0,0.0,0.0,0.0,0.0,0.0,0.0,0.0,0.0,0.0,0.0,0.0,0.0,0.0,0.0,0.0,0.0,0.0,0.0,0.0,0.0,0.0,0.0,0.0,0.0,0.0,0.0,0.0,0.0,0.0,0.0,0.0,0.0,0.0,0.0,0.0,0.0,0.0,0.0,0.0,0.0,0.0,0.0,0.0,0.0,0.0,0.0,0.0,0.0,0.0,0.0,0.0,0.0,0.0,0.0,0.0,0.0,0.0,0.0,0.0,0.0,0.0,0.0,0.0,0.0,0.0,0.0,0.0,0.0,0.0,0.0,0.0,0.0,0.0,0.0,0.0,0.0,0.0,0.0,0.0,0.0,0.0,0.0,0.0,-4.9101,-4.9668,-4.916,-4.7441,-4.5957,-4.3418,0.0,0.0,0.0,0.0,0.0,0.0,0.0,0.0,0.0,0.0,0.0,0.0,0.0,0.0,0.0,0.0,0.0,0.0,0.0,0.0,0.0,0.0,0.0,0.0,0.0,0.0,0.0,0.0,0.0,0.0,0.0,0.0,0.0,0.0,0.0,0.0,0.0,0.0,0.0,0.0,0.0,0.0,0.0,0.0,0.0,0.0,0.0,0.0,0.0,0.0,0.0,0.0,0.0,0.0,0.0,0.0,0.0,0.0,0.0,0.0,0.0,0.0,0.0,0.0,0.0,0.0,0.0,0.0,0.0,0.0,0.0,0.0,0.0,0.0,0.0,0.0,0.0,0.0,0.0,0.0,0.0,0.0,0.0,0.0,0.0,0.0,0.0,0.0,0.0,0.0,0.0,0.0,0.0,0.0,0.0,0.0,0.0,0.0,0.0,0.0,0.0,0.0,0.0,0.0,0.0,0.0,0.0,0.0,0.0,-5.168,-5.3984,-5.4238,-5.2187,-4.8769,-4.6133,0.0,0.0,0.0,0.0,0.0,0.0,0.0,0.0,0.0,0.0,0.0,0.0,0.0,0.0,0.0,0.0,0.0,0.0,0.0,0.0,0.0,0.0,0.0,0.0,0.0,0.0,0.0,0.0,0.0,0.0,0.0,0.0,0.0,0.0,0.0,0.0,0.0,0.0,0.0,0.0,0.0,0.0,0.0,0.0,0.0,0.0,0.0,0.0,0.0,0.0,0.0,0.0,0.0,0.0,0.0,0.0,0.0,0.0,0.0,0.0,0.0,0.0,0.0,0.0,0.0,0.0,0.0,0.0,0.0,0.0,0.0,0.0,0.0,0.0,0.0,0.0,0.0,0.0,0.0,0.0,0.0,0.0,0.0,0.0,0.0,0.0,0.0,0.0,0.0,0.0,0.0,0.0,0.0,0.0,0.0,0.0,0.0,0.0,0.0,0.0,0.0,0.0,0.0,0.0,0.0,0.0,0.0,0.0,-5.1562,-5.4297,-5.7461,-5.834,-5.6758,-5.2734,-4.9297,0.0,0.0,0.0,0.0,0.0,0.0,0.0,0.0,0.0,0.0,0.0,0.0,0.0,0.0,0.0,0.0,0.0,0.0,0.0,0.0,0.0,0.0,0.0,0.0,0.0,0.0,0.0,0.0,0.0,0.0,0.0,0.0,0.0,0.0,0.0,0.0,0.0,0.0,0.0,0.0,0.0,0.0,0.0,0.0,0.0,0.0,0.0,0.0,0.0,0.0,0.0,0.0,0.0,0.0,0.0,0.0,0.0,0.0,0.0,0.0,0.0,0.0,0.0,0.0,0.0,0.0,0.0,0.0,0.0,0.0,0.0,0.0,0.0,0.0,0.0,0.0,0.0,0.0,0.0,0.0,0.0,0.0,0.0,0.0,0.0,0.0,0.0,0.0,0.0,0.0,0.0,0.0,0.0,0.0,0.0,0.0,0.0,0.0,0.0,0.0,0.0,0.0,0.0,0.0,0.0,0.0,0.0,0.0,-5.3808,-5.6816,-6.0117,-6.1484,-6.0625,-5.6758,-5.2285,0.0,0.0,0.0,0.0,0.0,0.0,0.0,0.0,0.0,0.0,0.0,0.0,0.0,0.0,0.0,0.0,0.0,0.0,0.0,0.0,0.0,0.0,0.0,0.0,0.0,0.0,0.0,0.0,0.0,0.0,0.0,0.0,0.0,0.0,0.0,0.0,0.0,0.0,0.0,0.0,0.0,0.0,0.0,0.0,0.0,0.0,0.0,0.0,0.0,0.0,0.0,0.0,0.0,0.0,0.0,0.0,0.0,0.0,0.0,0.0,0.0,0.0,0.0,0.0,0.0,0.0,0.0,0.0,0.0,0.0,0.0,0.0,0.0,0.0,0.0,0.0,0.0,0.0,0.0,0.0,0.0,0.0,0.0,0.0,0.0,0.0,0.0,0.0,0.0,0.0,0.0,0.0,0.0,0.0,0.0,0.0,0.0,0.0,0.0,0.0,0.0,0.0,0.0,0.0,0.0,0.0,0.0,0.0,-5.5586,-5.8574,-6.1328,-6.2676,-6.2461,-5.707,-5.2539,0.0,0.0,0.0,0.0,0.0,0.0,0.0,0.0,0.0,0.0,0.0,0.0,0.0,0.0,0.0,0.0,0.0,0.0,0.0,0.0,0.0,0.0,0.0,0.0,0.0,0.0,0.0,0.0,0.0,0.0,0.0,0.0,0.0,0.0,0.0,0.0,0.0,0.0,0.0,0.0,0.0,0.0,0.0,0.0,0.0,0.0,0.0,0.0,-4.4758,0.0,0.0,0.0,0.0,0.0,0.0,0.0,0.0,0.0,0.0,0.0,0.0,0.0,0.0,0.0,0.0,0.0,0.0,0.0,0.0,0.0,0.0,0.0,0.0,0.0,0.0,0.0,0.0,0.0,0.0,0.0,0.0,0.0,0.0,0.0,0.0,0.0,0.0,0.0,0.0,0.0,0.0,0.0,0.0,0.0,0.0,0.0,0.0,0.0,0.0,0.0,0.0,0.0,0.0,0.0,0.0,0.0,0.0,0.0,-5.7324,-6.0312,-6.25,-6.3437,-6.291,-5.8555,-5.4453,0.0,0.0,0.0,0.0,0.0,0.0,0.0,0.0,0.0,0.0,0.0,0.0,0.0,0.0,0.0,0.0,0.0,0.0,0.0,0.0,0.0,0.0,0.0,0.0,0.0,0.0,0.0,0.0,0.0,0.0,0.0,0.0,0.0,0.0,0.0,0.0,0.0,0.0,0.0,0.0,0.0,0.0,0.0,0.0,0.0,0.0,0.0,0.0,0.0,0.0,0.0,0.0,0.0,0.0,0.0,0.0,0.0,0.0,0.0,0.0,0.0,0.0,0.0,0.0,0.0,0.0,0.0,0.0,0.0,0.0,0.0,0.0,0.0,0.0,0.0,0.0,0.0,0.0,0.0,0.0,0.0,0.0,0.0,0.0,0.0,0.0,0.0,0.0,0.0,0.0,0.0,0.0,0.0,0.0,0.0,0.0,0.0,0.0,0.0,0.0,0.0,0.0,0.0,0.0,0.0,0.0,0.0,-5.4961,-5.8613,-6.1992,-6.3613,-6.4004,-6.3125,-6.0332,-5.6758,-5.2461,0.0,0.0,0.0,0.0,0.0,0.0,0.0,0.0,0.0,0.0,0.0,0.0,0.0,0.0,0.0,0.0,0.0,0.0,0.0,0.0,0.0,0.0,0.0,0.0,0.0,0.0,0.0,0.0,0.0,0.0,0.0,0.0,0.0,0.0,0.0,0.0,0.0,0.0,-4.4133,-4.4541,0.0,0.0,0.0,0.0,0.0,0.0,0.0,0.0,-4.7412,0.0,0.0,0.0,0.0,0.0,0.0,0.0,0.0,0.0,0.0,0.0,0.0,0.0,0.0,0.0,0.0,0.0,0.0,0.0,0.0,0.0,0.0,0.0,0.0,0.0,0.0,0.0,0.0,0.0,0.0,0.0,0.0,0.0,0.0,0.0,0.0,0.0,0.0,0.0,0.0,0.0,0.0,0.0,0.0,0.0,0.0,0.0,0.0,0.0,0.0,0.0,0.0,0.0,0.0,0.0,0.0,-5.539,-5.5605,-5.8301,-6.373,-6.4512,-6.4433,-6.3555,-6.1348,-5.793,-5.3359,0.0,0.0,0.0,0.0,0.0,0.0,0.0,0.0,0.0,0.0,0.0,0.0,0.0,0.0,0.0,0.0,0.0,0.0,0.0,0.0,0.0,0.0,0.0,0.0,0.0,0.0,0.0,0.0,0.0,0.0,0.0,0.0,0.0,0.0,0.0,0.0,0.0,0.0,0.0,-4.8901,-4.8962,0.0,0.0,0.0,0.0,0.0,0.0,0.0,0.0,-4.9773,0.0,0.0,0.0,0.0,0.0,0.0,0.0,0.0,0.0,0.0,0.0,0.0,0.0,0.0,0.0,0.0,0.0,0.0,0.0,0.0,0.0,0.0,0.0,0.0,0.0,0.0,0.0,0.0,0.0,0.0,0.0,0.0,0.0,0.0,0.0,0.0,0.0,0.0,0.0,0.0,0.0,0.0,0.0,0.0,0.0,0.0,0.0,0.0,0.0,0.0,0.0,0.0,0.0,0.0,0.0,-5.5,-5.7695,-6.0918,-6.4805,-6.5176,-6.4765,-6.3672,-6.0703,-5.7187,0.0,0.0,0.0,0.0,0.0,0.0,0.0,0.0,0.0,0.0,0.0,0.0,0.0,0.0,0.0,0.0,0.0,0.0,0.0,0.0,0.0,0.0,0.0,0.0,0.0,0.0,0.0,0.0,0.0,0.0,0.0,0.0,0.0,0.0,0.0,0.0,0.0,0.0,0.0,0.0,-5.1118,-5.0847,-4.9492,0.0,0.0,0.0,0.0,0.0,0.0,-4.6993,-4.7937,0.0,0.0,0.0,0.0,0.0,0.0,0.0,0.0,0.0,0.0,0.0,0.0,0.0,0.0,0.0,0.0,0.0,0.0,0.0,0.0,0.0,0.0,0.0,0.0,0.0,0.0,0.0,0.0,0.0,0.0,0.0,0.0,0.0,0.0,0.0,0.0,0.0,0.0,0.0,0.0,0.0,0.0,0.0,0.0,0.0,0.0,0.0,0.0,0.0,0.0,0.0,0.0,0.0,0.0,0.0,-5.416,-5.9238,-6.3105,-6.5566,-6.5723,-6.5156,-6.3926,-6.041,-5.6777,0.0,0.0,0.0,0.0,0.0,0.0,0.0,0.0,0.0,0.0,0.0,0.0,0.0,0.0,0.0,0.0,0.0,0.0,0.0,0.0,0.0,0.0,0.0,0.0,0.0,0.0,0.0,0.0,0.0,0.0,0.0,0.0,0.0,0.0,0.0,0.0,0.0,0.0,0.0,0.0,0.0,-5.2803,-5.134,-4.8934,0.0,0.0,0.0,0.0,-4.6601,-4.7111,0.0,0.0,0.0,0.0,0.0,0.0,0.0,0.0,0.0,0.0,0.0,0.0,0.0,0.0,0.0,0.0,0.0,0.0,0.0,0.0,0.0,0.0,0.0,0.0,0.0,0.0,0.0,0.0,0.0,0.0,0.0,0.0,0.0,0.0,0.0,0.0,0.0,0.0,0.0,0.0,0.0,0.0,0.0,0.0,0.0,0.0,0.0,0.0,0.0,0.0,0.0,0.0,0.0,0.0,0.0,0.0,-5.4492,-5.8242,-6.207,-6.5898,-6.6133,-6.5723,-6.4785,-6.2148,-5.8555,0.0,0.0,0.0,0.0,0.0,0.0,0.0,0.0,0.0,0.0,0.0,0.0,0.0,0.0,0.0,0.0,0.0,0.0,0.0,0.0,0.0,0.0,0.0,0.0,0.0,0.0,0.0,0.0,0.0,0.0,0.0,0.0,0.0,0.0,0.0,0.0,0.0,0.0,0.0,0.0,0.0,-5.6707,-5.2702,-5.047,-4.8906,0.0,0.0,-4.8828,-5.0019,-5.3254,0.0,0.0,0.0,0.0,0.0,0.0,0.0,0.0,0.0,0.0,0.0,0.0,0.0,0.0,0.0,0.0,0.0,0.0,0.0,0.0,0.0,0.0,0.0,0.0,0.0,0.0,0.0,0.0,0.0,0.0,0.0,0.0,0.0,0.0,0.0,0.0,0.0,0.0,0.0,0.0,0.0,0.0,0.0,0.0,0.0,0.0,0.0,0.0,0.0,0.0,0.0,0.0,0.0,0.0,0.0,-5.084,-5.5371,-6.0469,-6.4473,-6.7187,-6.6836,-6.6172,-6.5332,-6.1387,-5.7383,0.0,0.0,0.0,0.0,0.0,0.0,0.0,0.0,0.0,0.0,0.0,0.0,0.0,0.0,0.0,0.0,0.0,0.0,0.0,0.0,0.0,0.0,0.0,0.0,0.0,0.0,0.0,0.0,0.0,0.0,0.0,0.0,0.0,0.0,0.0,0.0,0.0,0.0,0.0,0.0,0.0,0.0,-5.5219,-5.278,0.0,0.0,0.0,-5.0879,-5.1445,0.0,0.0,0.0,0.0,0.0,0.0,0.0,0.0,0.0,0.0,0.0,0.0,0.0,0.0,0.0,0.0,0.0,0.0,0.0,0.0,0.0,0.0,0.0,0.0,0.0,0.0,0.0,0.0,0.0,0.0,0.0,0.0,0.0,0.0,0.0,0.0,0.0,0.0,0.0,0.0,0.0,0.0,0.0,0.0,0.0,0.0,0.0,0.0,0.0,0.0,0.0,0.0,0.0,0.0,0.0,0.0,0.0,-5.5957,-6.2422,-6.6543,-6.8086,-6.7422,-6.6621,-6.5703,-6.1348,0.0,0.0,0.0,0.0,0.0,0.0,0.0,0.0,0.0,0.0,0.0,0.0,0.0,0.0,0.0,0.0,0.0,0.0,0.0,0.0,0.0,0.0,0.0,0.0,0.0,0.0,0.0,-4.3303,0.0,0.0,0.0,0.0,0.0,0.0,0.0,0.0,0.0,0.0,0.0,0.0,0.0,0.0,-5.7662,-5.7292,-5.5224,-5.3945,0.0,0.0,-5.3125,-5.334,-5.4824,-5.4891,0.0,0.0,0.0,0.0,0.0,0.0,0.0,0.0,0.0,0.0,0.0,0.0,0.0,0.0,0.0,0.0,0.0,0.0,0.0,0.0,0.0,0.0,0.0,0.0,0.0,0.0,0.0,0.0,0.0,0.0,0.0,0.0,0.0,0.0,0.0,0.0,0.0,0.0,0.0,0.0,0.0,0.0,0.0,0.0,0.0,0.0,0.0,0.0,0.0,0.0,0.0,0.0,0.0,0.0,0.0,-5.6015,-6.2695,-6.6836,-6.8125,-6.7715,-6.7031,-6.6172,-6.3496,-5.9297,0.0,0.0,0.0,0.0,0.0,0.0,0.0,0.0,0.0,0.0,0.0,0.0,0.0,0.0,0.0,0.0,0.0,0.0,0.0,0.0,0.0,0.0,0.0,0.0,0.0,0.0,0.0,0.0,0.0,0.0,0.0,0.0,0.0,0.0,0.0,0.0,0.0,0.0,0.0,0.0,0.0,-5.873,-5.8357,-5.7637,-5.6914,0.0,0.0,-5.5957,-5.6738,-5.9277,-5.8672,-5.1443,0.0,0.0,0.0,0.0,0.0,0.0,0.0,0.0,0.0,0.0,0.0,0.0,0.0,0.0,0.0,0.0,0.0,0.0,0.0,0.0,0.0,0.0,0.0,0.0,0.0,0.0,0.0,0.0,0.0,0.0,0.0,0.0,0.0,0.0,0.0,0.0,0.0,0.0,0.0,0.0,0.0,0.0,0.0,0.0,0.0,0.0,0.0,0.0,0.0,0.0,0.0,0.0,0.0,-5.2363,-5.6328,-6.2851,-6.7109,-6.8847,-6.8281,-6.7637,-6.7012,-6.4258,-5.9357,0.0,0.0,0.0,0.0,0.0,0.0,0.0,0.0,0.0,0.0,0.0,0.0,0.0,0.0,0.0,0.0,0.0,0.0,0.0,0.0,0.0,0.0,0.0,0.0,0.0,0.0,0.0,0.0,-4.8426,-5.0498,-5.0813,0.0,0.0,0.0,0.0,0.0,0.0,0.0,0.0,0.0,0.0,-6.0313,-6.2482,-6.1681,0.0,0.0,-5.8086,-5.7734,-5.834,-5.8496,-5.7324,-5.379,-5.1142,0.0,0.0,0.0,0.0,0.0,0.0,0.0,0.0,0.0,0.0,0.0,0.0,0.0,0.0,0.0,0.0,0.0,0.0,0.0,0.0,0.0,0.0,0.0,0.0,0.0,0.0,0.0,0.0,0.0,0.0,0.0,0.0,0.0,0.0,0.0,0.0,0.0,0.0,0.0,0.0,0.0,0.0,0.0,0.0,0.0,0.0,0.0,0.0,0.0,0.0,0.0,0.0,-5.2422,-5.6562,-6.3066,-6.7402,-6.9394,-6.875,-6.8105,-6.7461,-6.4961,-5.9821,0.0,0.0,0.0,0.0,0.0,0.0,0.0,0.0,0.0,0.0,0.0,0.0,0.0,0.0,0.0,0.0,0.0,0.0,0.0,0.0,0.0,0.0,0.0,0.0,0.0,0.0,0.0,0.0,-4.8905,-5.0675,-5.0308,0.0,0.0,0.0,0.0,0.0,0.0,0.0,0.0,0.0,0.0,-6.2578,-6.6463,-6.5013,-6.2929,-6.1219,-5.9174,-5.8105,-5.8535,-5.7676,-5.6622,-5.5434,0.0,0.0,0.0,0.0,0.0,0.0,0.0,0.0,0.0,0.0,0.0,0.0,0.0,0.0,0.0,0.0,0.0,0.0,0.0,0.0,0.0,0.0,0.0,0.0,0.0,0.0,0.0,0.0,0.0,0.0,0.0,0.0,0.0,0.0,0.0,0.0,0.0,0.0,0.0,0.0,0.0,0.0,0.0,0.0,0.0,0.0,0.0,0.0,0.0,0.0,0.0,0.0,0.0,0.0,-5.6601,-6.3359,-6.7676,-6.9375,-6.9023,-6.8379,-6.75,-6.5801,-6.0982,-5.2943,0.0,0.0,0.0,0.0,0.0,0.0,0.0,0.0,0.0,0.0,0.0,0.0,0.0,0.0,0.0,0.0,0.0,0.0,0.0,0.0,0.0,0.0,0.0,0.0,0.0,0.0,-4.2858,-4.6065,-4.778,0.0,0.0,0.0,0.0,0.0,0.0,0.0,0.0,0.0,0.0,-6.066,-6.4996,-6.9867,-6.684,-6.4056,-6.3857,-5.9692,-5.6836,-5.7285,-5.7558,-5.7197,0.0,0.0,0.0,0.0,0.0,0.0,0.0,0.0,0.0,0.0,0.0,0.0,0.0,0.0,0.0,0.0,0.0,0.0,0.0,0.0,0.0,0.0,0.0,0.0,0.0,0.0,0.0,0.0,-4.7793,0.0,0.0,0.0,0.0,0.0,0.0,0.0,0.0,0.0,0.0,0.0,-5.0644,-5.2344,0.0,0.0,0.0,0.0,0.0,0.0,0.0,0.0,0.0,0.0,0.0,0.0,-5.2578,-5.7051,-6.3223,-6.7402,-6.9355,-6.9043,-6.8535,-6.7949,-6.6562,-6.1211,-5.1929,0.0,0.0,0.0,0.0,0.0,0.0,0.0,0.0,0.0,0.0,0.0,0.0,0.0,0.0,0.0,0.0,0.0,0.0,0.0,0.0,0.0,0.0,0.0,0.0,0.0,-4.2353,0.0,0.0,0.0,0.0,0.0,0.0,0.0,0.0,0.0,0.0,0.0,-4.9515,-5.5668,-5.9723,-6.3411,-6.7484,-6.6363,-6.4896,0.0,0.0,0.0,0.0,0.0,0.0,0.0,0.0,0.0,0.0,0.0,0.0,0.0,0.0,-6.0465,-5.5579,-5.4717,-5.4928,-5.5303,0.0,0.0,0.0,0.0,0.0,0.0,0.0,0.0,0.0,0.0,0.0,0.0,0.0,0.0,0.0,0.0,-4.9492,0.0,0.0,0.0,0.0,0.0,0.0,0.0,0.0,-5.3125,-5.4785,-5.4844,-5.6797,-5.5785,0.0,-5.0123,-4.6846,0.0,0.0,0.0,0.0,0.0,0.0,0.0,0.0,-5.3164,-5.791,-6.3535,-6.7422,-6.9316,-6.918,-6.8828,-6.8398,-6.4445,-5.8831,-5.142,-4.445,-4.0751,0.0,0.0,0.0,0.0,0.0,0.0,0.0,0.0,0.0,0.0,0.0,0.0,0.0,0.0,0.0,0.0,0.0,0.0,0.0,0.0,0.0,0.0,0.0,-4.2546,0.0,0.0,0.0,0.0,0.0,0.0,0.0,0.0,0.0,-4.4985,-4.7383,-5.1628,-5.755,-6.0331,-6.3451,-6.8051,0.0,0.0,0.0,0.0,0.0,0.0,0.0,-5.5651,-5.6721,-5.6067,-5.5586,-5.6408,-5.7637,-5.8462,-5.8599,0.0,0.0,-6.076,-6.0507,-6.1272,-6.2177,-6.1264,-5.9916,-5.8769,-5.8053,-5.7031,0.0,0.0,0.0,0.0,0.0,0.0,0.0,0.0,-5.2226,-5.2519,0.0,-5.1738,0.0,0.0,0.0,0.0,0.0,0.0,0.0,0.0,-5.8418,-6.0664,-6.0019,-6.0801,-6.0547,0.0,-5.6402,-5.3201,-4.9459,-4.1879,0.0,0.0,0.0,0.0,0.0,0.0,-5.4512,-5.918,-6.4277,-6.7715,-6.9336,-6.9433,-6.9219,-6.847,-5.9912,-5.3999,-5.1241,-4.5362,-4.1843,-4.1529,-4.1799,0.0,0.0,0.0,0.0,0.0,0.0,0.0,0.0,0.0,0.0,0.0,0.0,0.0,0.0,0.0,0.0,0.0,0.0,0.0,0.0,-4.3183,0.0,0.0,0.0,0.0,0.0,0.0,0.0,0.0,0.0,0.0,-4.8189,-5.0762,-5.5021,-6.1243,0.0,0.0,0.0,0.0,-6.4144,-6.6309,-6.1444,-5.7422,-5.748,-5.8066,-5.91,-6.0645,0.0,0.0,-6.2804,-6.1825,-6.1301,-6.1313,-6.5455,-6.8547,-6.7216,-6.8585,-7.0648,-7.2238,-6.9259,-6.7246,-6.8367,-6.5043,-6.1825,-5.8047,0.0,0.0,0.0,0.0,-5.5586,-5.709,-5.9121,-5.8887,-5.7773,-5.6035,-5.4961,0.0,0.0,0.0,0.0,0.0,0.0,-5.4551,-5.7383,-5.9609,-6.1621,-6.3476,-6.4043,-6.3789,-6.2832,-6.1245,-5.8495,-5.4279,-4.8608,-4.1664,-3.4119,0.0,0.0,0.0,0.0,-5.6269,-6.0117,-6.4863,-6.7851,-6.8965,-6.9297,-6.9101,-6.8379,-6.211,-5.6855,-5.3065,-4.9488,-4.5789,-4.1934,-4.354,0.0,0.0,0.0,0.0,0.0,0.0,0.0,0.0,0.0,0.0,0.0,0.0,0.0,0.0,0.0,0.0,0.0,0.0,0.0,-4.2246,-4.293,-4.3027,0.0,0.0,0.0,0.0,0.0,0.0,0.0,0.0,0.0,-5.4012,-5.4844,-5.6242,0.0,0.0,-6.0781,-6.3574,-6.2296,-6.205,-6.5487,0.0,0.0,0.0,-6.0293,-5.9991,-6.1598,-6.3418,-6.4453,-6.4274,-6.3956,-6.3814,-6.3916,-6.6323,-6.8906,-7.0848,-7.3187,-7.508,-7.5578,-7.5136,-7.4535,-7.3394,-7.094,-6.8306,-6.3164,-5.9453,-5.7344,-5.7305,-5.8652,-5.9355,-6.0918,-6.2969,-6.2637,-6.1758,-6.043,-5.8906,-5.6057,-5.2259,-5.0649,0.0,0.0,0.0,-5.7383,-6.0488,-6.1504,-6.3203,-6.539,-6.6074,-6.5898,-6.5058,-6.4531,-6.2659,-5.9259,-5.4676,-4.8299,-4.0623,0.0,0.0,-4.2842,-5.0425,-5.6947,-6.1699,-6.5371,-6.7676,-6.8535,-6.8808,-6.8613,-6.791,-6.3335,-5.8677,-5.4237,-5.1153,-4.761,-4.343,-4.526,-4.5357,0.0,0.0,0.0,0.0,0.0,0.0,0.0,0.0,0.0,0.0,0.0,-4.084,-3.8887,0.0,0.0,0.0,-4.1133,-4.2812,-4.4336,-4.4707,0.0,0.0,0.0,0.0,0.0,0.0,0.0,-4.9855,-5.3926,-5.7021,-5.7835,-5.8301,-5.875,-5.9101,-5.9375,-6.023,-6.2524,0.0,-6.2035,-6.566,-6.4178,-6.2734,-6.3398,-6.2598,-6.2305,-6.3672,-6.4668,-6.5293,-6.541,-6.5449,-6.5332,-6.5206,-6.7073,-6.9164,-7.0835,-7.4455,-7.7753,-7.8662,-7.9344,-7.9321,-7.8101,-7.6034,-7.3404,-6.7284,-6.6035,-6.1427,-6.0493,-6.2148,-6.2637,-6.3711,-6.5058,-6.4336,-6.457,-6.5332,-6.2949,-5.9703,-5.6254,-5.3476,0.0,0.0,-5.8383,-6.0454,-6.2715,-6.3906,-6.5098,-6.6289,-6.7109,-6.709,-6.6328,-6.6328,-6.5508,-6.3684,-5.9682,-5.4816,-4.9249,-4.2971,-4.2235,-4.644,-5.1181,-5.6669,-6.3132,-6.5781,-6.7305,-6.8164,-6.8144,-6.791,-6.7461,-6.4076,-5.9905,-5.5493,-5.1429,-4.8102,-4.6081,-4.6477,-4.6622,-4.5935,0.0,0.0,0.0,0.0,0.0,0.0,0.0,0.0,0.0,0.0,0.0,0.0,0.0,0.0,0.0,-4.4355,0.0,-4.7676,-4.7754,0.0,0.0,0.0,-4.7168,-4.8183,-5.043,-5.2363,-5.3574,0.0,0.0,-5.9805,0.0,-6.2187,-6.3027,-6.1992,-6.2312,-6.5534,-6.3845,-6.3502,-6.6332,-6.5208,-6.4043,-6.4531,-6.4765,-6.5156,-6.5918,-6.6543,-6.6484,-6.6133,-6.5976,-6.5703,-6.5,-6.7217,-6.917,-6.8988,-7.3561,-7.8147,-8.0687,-8.1567,-8.198,-8.2168,-7.9784,-7.7037,-6.6323,-6.777,-6.313,-6.2979,-6.5703,-6.6484,-6.6836,-6.6855,-6.668,-6.6035,-6.5019,-6.3769,-6.0763,-5.642,-5.6059,-5.6566,-5.8079,-5.8757,-6.1345,-6.5273,-6.5625,-6.6094,-6.6738,-6.7246,-6.7402,-6.7187,-6.7187,-6.6816,-6.6094,-6.2049,-5.7353,-5.2421,-4.8161,-4.5318,-4.4572,-5.1997,-5.7109,-5.9864,-6.4477,-6.7305,-6.8144,-6.7851,-6.7441,-6.7031,-6.5497,-6.2747,-5.8806,-5.4488,-5.0767,-4.7862,-4.8348,-4.8209,-4.6554,-4.7112,0.0,0.0,0.0,0.0,0.0,0.0,0.0,0.0,0.0,-4.3125,-4.0137,0.0,-4.3066,0.0,-4.6113,-4.8144,-4.9414,-4.9258,0.0,0.0,-5.1426,-5.1699,-5.416,-5.5273,-5.6094,-5.6719,-5.914,-6.0918,-6.123,-6.2402,-6.3398,-6.3906,-6.2598,-6.1854,-6.2748,-6.2913,-6.3618,-6.5623,-6.5766,-6.5762,-6.6113,-6.6328,-6.6445,-6.668,-6.6289,-6.5859,-6.5762,-6.5195,-6.4687,-6.4492,-6.492,-6.6251,-6.8473,-7.0293,-7.3008,-7.7902,-8.0849,-8.2508,-8.2633,-8.0343,-7.7823,-6.7722,-6.8762,-6.6207,-6.6163,-6.8027,-6.8144,-6.8144,-6.8066,-6.789,-6.7265,-6.6328,-6.5273,-6.2287,-5.8231,-5.841,-5.7972,-5.7127,-5.904,-6.1398,-6.3871,-6.5633,-6.6621,-6.6875,-6.7305,-6.7402,-6.7226,-6.7402,-6.7187,-6.6582,-6.4262,-6.0045,-5.4036,-5.2094,-4.849,-4.4065,-5.1106,-5.6227,-5.9138,-6.4112,-6.6115,-6.5411,-6.654,-6.6758,-6.5762,-6.5273,-6.2853,-5.8025,-5.4231,-5.0508,-4.6795,-4.6644,-4.6552,-4.6079,-4.6893,-4.7075,0.0,0.0,0.0,0.0,0.0,0.0,0.0,0.0,0.0,0.0,0.0,-4.5312,0.0,-4.8828,-5.0742,-5.207,-5.2305,-5.3203,-5.5234,-5.5156,-5.5683,-5.7558,-5.8613,-5.9375,-5.9824,-6.1484,-6.2656,-6.2851,-6.3515,-6.4043,-6.4297,-6.3652,-6.3223,-6.3437,-6.3887,-6.4648,-6.5937,-6.6367,-6.6582,-6.6855,-6.6855,-6.6855,-6.6816,-6.6308,-6.582,-6.5605,-6.5039,-6.4531,-6.4355,-6.4316,-6.4762,-6.661,-6.7999,-7.0293,-7.326,-7.76,-8.0828,-8.2443,-8.1288,-7.9905,-6.9722,-6.9414,-6.8501,-6.854,-6.9297,-6.8574,-6.8476,-6.8789,-6.8379,-6.8125,-6.7949,-6.6797,-6.3991,-5.9788,-5.9788,-5.7964,-5.4851,-5.8051,-6.0304,-6.1365,-6.4578,-6.6349,-6.6894,-6.7305,-6.7305,-6.6972,-6.7324,-6.7109,-6.6387,-6.6328,-6.2468,-5.5031,-5.4998,-5.1081,-4.4089,-4.981,-5.5241,-5.9378,-6.3555,-6.4294,-6.1764,-6.4616,-6.5361,-6.4258,-6.4101,-6.1383,-5.6128,-5.2764,-4.9438,-4.5544,-4.4733,-4.4875,-4.596,-4.6572,-4.7121,0.0,-4.5918,0.0,0.0,0.0,0.0,0.0,0.0,0.0,0.0,-4.7734,-4.8613,-5.0058,-5.207,-5.3789,-5.498,-5.5898,-5.6777,-5.7617,-5.8496,-5.9219,-5.9746,-6.1074,-6.2129,-6.2558,-6.3301,-6.3926,-6.4199,-6.4316,-6.4316,-6.4414,-6.4629,-6.4922,-6.5508,-6.5566,-6.5879,-6.6758,-6.6855,-6.6836,-6.6855,-6.6855,-6.6836,-6.6758,-6.6367,-6.6015,-6.5644,-6.5176,-6.4746,-6.4473,-6.4355,-6.4316,-6.4316,-6.661,-6.8257,-6.9481,-7.3327,-7.7624,-8.1046,-8.2203,-8.1746,-6.7752,-6.9171,-6.6057,-6.6436,-6.8926,-6.875,-6.873,-6.8789,-6.8379,-6.7793,-6.7109,-6.6855,-6.3266,-5.716,-5.716,-5.506,-5.1894,-5.2488,-5.5948,-6.1488,-6.2333,-6.4219,-6.6894,-6.7305,-6.7441,-6.7383,-6.7461,-6.7402,-6.7246,-6.6914,-6.2895,-5.538,-5.5363,-5.1422,0.0,0.0,0.0,0.0,-6.1511,-6.1822,-6.1109,-6.1584,-6.2186,-6.31,-6.293,0.0,-5.861,-5.5009,-5.25,-5.1366,-4.9155,0.0,0.0,0.0,0.0,0.0,0.0,0.0,0.0,0.0,0.0,0.0,-5.2344,-5.1465,-4.9824,-5.2109,-5.373,-5.375,-5.5332,-5.6601,-5.7207,-5.8359,-5.9414,-6.0273,-6.1113,-6.1953,-6.2734,-6.3125,-6.3476,-6.3887,-6.4101,-6.4219,-6.4297,-6.4316,-6.4433,-6.4746,-6.4883,-6.5254,-6.5996,-6.6074,-6.6289,-6.6758,-6.6836,-6.6855,-6.6855,-6.6855,-6.6758,-6.6406,-6.5976,-6.5703,-6.5547,-6.4941,-6.459,-6.4707,-6.4551,-6.4316,-6.4336,-6.4782,-6.6291,-6.8932,-7.008,-7.2362,-7.7823,-8.1046,-8.2443,-6.9075,0.0,-6.7608,-6.7796,0.0,0.0,-6.8926,-6.9082,-6.8457,-6.7695,-6.6875,-6.6855,-6.3964,-5.8949,-5.8949,-5.6047,-5.1019,-5.2879,-5.446,-5.631,-5.8148,-6.0803,-6.4238,-6.4445,-6.5582,-6.7187,-6.7187,-6.7187,-6.7168,-6.6972,-6.39,-5.8359,-5.6521,-5.264,-4.7267,-5.2294,-5.5811,-5.7553,-6.0019,-6.0411,-5.9192,-6.0589,-6.1901,-6.3217,0.0,0.0,0.0,0.0,0.0,0.0,0.0,0.0,0.0,0.0,0.0,-5.4091,-5.3066,-5.2637,-5.3281,-5.373,-5.4629,-5.6133,-5.7031,-5.6328,-5.3555,-5.5137,-5.6445,-5.6894,-5.789,-5.8848,-5.9687,-6.0566,-6.1348,-6.1992,-6.2637,-6.3125,-6.3359,-6.375,-6.3984,-6.4004,-6.418,-6.4316,-6.4316,-6.4316,-6.4492,-6.4883,-6.5137,-6.5469,-6.6074,-6.6211,-6.6328,-6.6523,-6.6543,-6.6543,-6.6562,-6.6758,-6.6719,-6.6289,-6.5879,-6.5527,-6.5293,-6.4746,-6.4453,-6.4824,-6.4765,-6.4668,-6.4883,-6.4785,-6.5215,-6.7178,-6.8236,-6.9738,-7.3528,-7.7342,-8.0828,-7.0976,-7.0176,-6.9844,-6.9844,-7.0039,-6.9258,-6.9082,-6.9277,0.0,0.0,0.0,-6.6894,-6.5022,-6.1578,-6.1578,-5.8148,-5.2345,-5.499,-5.4741,-5.2092,-5.507,-5.7971,-6.0544,-6.1392,-6.3232,-6.5804,-6.6603,-6.6855,-6.6855,-6.6855,-6.5105,-6.1402,-5.8241,-5.5194,-5.2598,-5.4688,-5.5993,-5.6212,-5.9304,-5.9779,-5.7005,-6.015,-6.2239,-6.2822,-6.3042,-6.1504,-5.834,-5.5401,-5.3437,-5.276,-5.0127,-4.9804,-5.216,-5.2509,-5.391,-5.6446,-5.6953,-5.7402,-5.7969,-5.834,-5.8848,-5.9512,-6.0781,-6.043,-5.7793,-5.7988,-5.8691,-5.9785,-6.0176,-6.082,-6.1855,-6.2344,-6.2754,-6.3125,-6.3535,-6.3652,-6.3379,-6.3848,-6.418,-6.3906,-6.4121,-6.4316,-6.4316,-6.4316,-6.4473,-6.4883,-6.5195,-6.5625,-6.6015,-6.6152,-6.6269,-6.6387,-6.6367,-6.6269,-6.6367,-6.6523,-6.6562,-6.6133,-6.5742,-6.5351,-6.5,-6.459,-6.4531,-6.5019,-6.5,-6.5098,-6.5449,-6.5273,-6.5215,-6.5605,-6.6955,-6.861,-6.9898,-7.3334,-7.7519,-7.1406,-7.0625,-7.0566,-7.0371,-7.0058,-6.957,-6.918,-6.8887,-6.8315,-6.7789,-6.7383,-6.7031,-6.5022,-6.1578,-6.1578,-5.947,-5.5519,-5.6063,-5.6063,0.0,-5.6375,-5.6889,-5.7133,-6.0341,-6.218,-6.2645,-6.555,-6.6855,-6.6855,-6.6855,-6.4984,-6.2039,-6.0972,-6.042,-5.9849,-5.754,-5.7801,-6.0625,-6.0889,-5.9655,-5.6393,-5.952,-6.0786,-5.9693,-6.1956,-6.1953,-5.9648,-5.8615,-5.7976,-5.6982,-5.4727,-5.4671,-5.7167,-5.5209,-5.5525,-5.8956,-5.9316,-5.9863,-6.0976,-6.1133,-6.1855,-6.3301,-6.3398,-6.2812,-6.1699,-6.1973,-6.2305,-6.248,-6.2441,-6.2637,-6.2871,-6.3223,-6.3476,-6.3613,-6.3965,-6.418,-6.4082,-6.4219,-6.4277,-6.4199,-6.4277,-6.4316,-6.4316,-6.4316,-6.4473,-6.4824,-6.5078,-6.5215,-6.5644,-6.5996,-6.6348,-6.6621,-6.6445,-6.6406,-6.6484,-6.6465,-6.6172,-6.5742,-6.5332,-6.5039,-6.4922,-6.457,-6.459,-6.5332,-6.5176,-6.5176,-6.5527,-6.5566,-6.5683,-6.5996,-6.6387,-6.7132,-6.9593,-7.0952,-7.2825,-7.164,-7.1094,-7.1074,-7.0957,-7.0722,-6.7873,-6.6659,-6.6359,-6.3611,-6.4416,-6.7147,-6.5339,-6.4408,-6.4475,-6.4475,-6.2645,-5.9227,-5.9227,-5.7217,-5.3694,-5.3866,-5.3944,-5.4229,-5.7403,-6.022,-6.1903,-6.5372,-6.6855,-6.6855,-6.6855,-6.6077,-6.4219,-6.0803,-5.8688,-5.8688,-5.7116,-5.8165,-6.1578,-6.1416,-6.0821,-5.9817,-6.1248,-6.2645,-6.343,-6.4648,-6.4219,-6.2324,-6.1855,-6.1211,-6.0332,-5.9533,-5.9322,-6.0065,-5.9495,-5.9589,-6.1191,-6.164,-6.2168,-6.2754,-6.3203,-6.3906,-6.4902,-6.4824,-6.4551,-6.414,-6.3457,-6.3027,-6.3027,-6.3027,-6.3125,-6.3359,-6.3574,-6.3789,-6.4004,-6.4219,-6.4316,-6.4316,-6.4316,-6.4316,-6.4316,-6.4316,-6.4316,-6.4316,-6.4316,-6.4473,-6.4863,-6.5117,-6.5351,-6.5527,-6.5527,-6.5586,-6.5762,-6.5644,-6.5605,-6.5801,-6.5879,-6.5683,-6.5312,-6.5078,-6.4863,-6.4668,-6.4414,-6.4609,-6.5117,-6.5234,-6.5469,-6.584,-6.5937,-6.6113,-6.6387,-6.6015,-6.6545,-6.788,-7.0007,-7.3422,-7.1816,-7.1504,-7.1406,-7.1308,-7.0864,-6.6523,-6.4554,-6.4122,-5.9057,-5.9834,-6.4656,-6.2988,-6.3328,-6.5531,-6.67,-6.5429,-6.3306,-6.3141,-5.9905,-5.4292,-5.3321,-5.2644,-5.225,-5.4782,-5.7603,-6.0938,-6.4282,-6.6212,-6.6992,-6.6914,-6.6855,-6.6077,-5.9747,-5.6624,-5.7497,-5.5914,-5.7267,-6.1572,-6.1849,-6.2156,-6.2733,-6.3666,-6.4901,-6.645,-6.6834,-6.6484,-6.5117,-6.4629,-6.4043,-6.3301,-6.3476,-6.3301,-6.2676,-6.3144,-6.3359,-6.3183,-6.373,-6.4121,-6.416,-6.4805,-6.5371,-6.5703,-6.5742,-6.5723,-6.5605,-6.4453,-6.3555,-6.3496,-6.3515,-6.3613,-6.3789,-6.3848,-6.3965,-6.4277,-6.4316,-6.4316,-6.4316,-6.4316,-6.4316,-6.4316,-6.4316,-6.4316,-6.4316,-6.4316,-6.4433,-6.4746,-6.5098,-6.5293,-6.5254,-6.5,-6.4824,-6.4824,-6.4863,-6.5058,-6.5058,-6.5273,-6.5293,-6.498,-6.4844,-6.4668,-6.4414,-6.4316,-6.4492,-6.4883,-6.5215,-6.5508,-6.5937,-6.6133,-6.6289,-6.6523,-6.625,-6.5976,-6.6435,-7.053,-7.4966,-7.1972,-7.1875,-7.1543,-7.1133,-7.0226,-6.6413,-6.4573,-6.3635,-5.6634,-5.5478,-5.8724,-6.0883,-6.1803,-6.2627,-6.5933,-6.7167,-6.6931,-6.7338,-6.5365,-6.1397,-5.8489,-5.5513,-5.234,-5.255,-5.4438,-5.787,-6.1218,-6.4469,-6.7383,-6.7031,-6.6855,-6.6077,-5.9747,-5.8073,-6.0202,-5.519,-5.5351,-6.238,-6.2661,-6.2679,-6.305,-6.6377,-6.6809,-6.3767,-6.6651,-6.7812,-6.7148,-6.6797,-6.6348,-6.5879,-6.5527,-6.5312,-6.5195,-6.4941,-6.4922,-6.5234,-6.5371,-6.541,-6.5449,-6.584,-6.6133,-6.6152,-6.6211,-6.6211,-6.6152,-6.5683,-6.5176,-6.4824,-6.4746,-6.4551,-6.4316,-6.4258,-6.4258,-6.4336,-6.4336,-6.4316,-6.4336,-6.4316,-6.4316,-6.4316,-6.4336,-6.4316,-6.4316,-6.4316,-6.4336,-6.4414,-6.4512,-6.459,-6.457,-6.4512,-6.4473,-6.4492,-6.4687,-6.5058,-6.5293,-6.5176,-6.5,-6.4883,-6.4609,-6.4414,-6.4316,-6.4336,-6.4433,-6.4726,-6.498,-6.5215,-6.5566,-6.5918,-6.6211,-6.6289,-6.6348,-6.6484,-6.6604,-7.0509,-7.5119,-7.1992,-7.1972,-7.1816,-7.164,-7.0556,-6.4603,-6.1835,-6.0941,-5.3142,-5.0551,-5.1901,-5.4862,-5.8345,-6.2561,-6.6212,-6.791,-6.793,-6.8105,-6.6429,-6.3112,-5.9482,-5.6072,-5.2881,-5.2252,-5.4061,-5.7681,-6.0605,-6.4027,-6.6892,-6.707,-6.6855,-6.6096,-5.9975,-5.7518,-5.8463,-5.4117,-5.4304,-5.954,-6.1909,-6.4314,-6.6699,-6.8027,-6.8123,-6.7209,-6.8201,-6.8711,-6.832,-6.8105,-6.7812,-6.7402,-6.7207,-6.6992,-6.6719,-6.6543,-6.6406,-6.6387,-6.6582,-6.6855,-6.7109,-6.7285,-6.7383,-6.7383,-6.7383,-6.7285,-6.6992,-6.6816,-6.6445,-6.5762,-6.5254,-6.4941,-6.5,-6.4609,-6.4414,-6.459,-6.4473,-6.4414,-6.4668,-6.4453,-6.4394,-6.4609,-6.4453,-6.4316,-6.4316,-6.4316,-6.4316,-6.4316,-6.4316,-6.4316,-6.4316,-6.4316,-6.4414,-6.4629,-6.4844,-6.4863,-6.4883,-6.4707,-6.459,-6.4551,-6.4433,-6.4316,-6.4316,-6.4316,-6.4394,-6.457,-6.4746,-6.4941,-6.5156,-6.5742,-6.6172,-6.6094,-6.6152,-6.6289,-6.5703,-7.053,-7.4533,-7.1992,-7.1992,-7.1992,-7.1933,-7.1176,-6.3182,-5.9775,-5.8497,-5.1038,-4.7375,-4.7726,-5.107,-5.5288,-6.0115,-6.4881,-6.7266,-6.8379,-6.8476,-6.7313,-6.4589,-6.0259,-5.6876,-5.4339,-5.1963,-5.3464,-5.769,-5.9771,-6.2488,-6.5735,-6.6758,-6.6077,-6.3489,-5.9066,-5.6388,-5.5162,-5.2265,-5.246,-5.6105,-6.0225,-6.41,-6.7627,-6.8889,-6.9433,-6.9609,-6.9629,-6.9414,-6.9004,-6.9101,-6.9043,-6.873,-6.8613,-6.8379,-6.8047,-6.7812,-6.7539,-6.7285,-6.75,-6.7832,-6.8164,-6.8203,-6.8203,-6.8203,-6.8203,-6.7988,-6.7617,-6.75,-6.7168,-6.6465,-6.5723,-6.543,-6.5449,-6.5019,-6.4844,-6.5058,-6.4824,-6.4785,-6.4883,-6.4629,-6.4551,-6.4707,-6.4473,-6.4316,-6.4316,-6.4316,-6.4316,-6.4316,-6.4316,-6.4316,-6.4336,-6.4414,-6.4609,-6.4883,-6.4941,-6.4824,-6.4551,-6.4551,-6.4453,-6.4316,-6.4316,-6.4316,-6.4316,-6.4316,-6.4316,-6.4453,-6.4648,-6.4765,-6.4805,-6.5332,-6.5879,-6.5723,-6.5742,-6.582,-6.543,-7.0559,-7.3611,-7.1992,-7.1992,-7.1992,-7.1777,-7.0788,-6.3078,-5.9626,-5.8774,-5.0952,-4.7482,-4.801,-5.1018,-5.3241,-5.4278,-6.0494,-6.5234,-6.8307,-6.916,-6.9074,-6.8041,-6.1718,-5.8457,-5.7667,-5.1342,-5.1594,-5.8341,-5.8522,-5.9726,-6.2239,-6.506,-6.3433,-5.715,-5.6723,-5.5178,-5.2508,-4.933,-4.9373,-5.3445,-5.7603,-6.1166,-6.4843,-6.875,-7.041,-7.0137,-7.0058,-6.9863,-6.9531,-6.9805,-7.0,-7.0,-6.959,-6.9355,-6.9277,-6.8594,-6.8164,-6.8164,-6.8164,-6.8183,-6.8242,-6.8262,-6.8262,-6.8242,-6.8301,-6.8027,-6.7676,-6.7578,-6.7344,-6.6875,-6.6387,-6.6015,-6.5723,-6.5508,-6.5469,-6.5527,-6.5527,-6.5312,-6.5019,-6.4941,-6.4726,-6.4512,-6.4394,-6.4316,-6.4316,-6.4316,-6.4316,-6.4316,-6.4316,-6.4316,-6.4355,-6.4629,-6.4863,-6.4922,-6.4961,-6.4941,-6.4902,-6.4707,-6.459,-6.4512,-6.4414,-6.4316,-6.4316,-6.4316,-6.4316,-6.4316,-6.4394,-6.4453,-6.4453,-6.4707,-6.5176,-6.5254,-6.5195,-6.5137,-6.5019,-7.0094,-7.319,-7.1992,-7.1992,-7.1992,-7.1758,-7.0499,-6.306,-5.9609,-5.8432,-5.0938,-4.7495,-4.778,-4.8875,-5.0809,-5.3287,-5.5629,-6.0059,-6.6014,-6.8401,-6.959,-6.8954,-6.1875,-5.9837,-6.1195,-5.4647,-5.4925,-6.1126,-6.1498,-6.152,-6.1831,-6.1302,-5.9329,-5.6723,-5.4624,-5.2978,-5.1546,-4.9023,-4.9329,-5.3037,-5.6903,-6.1063,-6.4933,-6.8958,-7.1055,-7.0898,-7.0625,-7.043,-7.0273,-7.0156,-7.0215,-7.0469,-7.0097,-6.9863,-6.9805,-6.9316,-6.9121,-6.9336,-6.914,-6.8984,-6.8984,-6.8984,-6.8984,-6.8984,-6.8984,-6.8789,-6.8398,-6.8086,-6.7754,-6.7305,-6.6875,-6.6543,-6.6348,-6.5937,-6.5703,-6.5898,-6.5762,-6.5664,-6.5625,-6.5293,-6.498,-6.5,-6.4687,-6.4316,-6.4336,-6.4316,-6.4316,-6.4316,-6.4316,-6.4316,-6.4375,-6.4668,-6.4961,-6.5,-6.5156,-6.5254,-6.4941,-6.4668,-6.4512,-6.4609,-6.457,-6.4375,-6.4316,-6.4316,-6.4316,-6.4316,-6.4316,-6.4316,-6.4375,-6.4433,-6.4805,-6.498,-6.4922,-6.4785,-6.459,-6.9345,-7.204,-7.1914,-7.1816,-7.1933,-7.168,-7.0305,-6.44,-6.0456,-5.8432,-5.2035,-4.8605,-4.778,-4.7495,-4.8888,-5.109,-5.2463,-5.5666,-6.1166,-6.5517,-6.8497,-6.9012,-6.1875,-5.9854,-6.0653,-5.4647,-5.5202,-6.1701,-6.436,-6.3958,-6.1168,-5.9565,-5.7053,-5.3321,-5.228,-5.136,-5.0093,-4.8345,-4.8916,-5.1812,-5.5421,-5.9365,-6.3647,-6.7666,-7.0439,-7.1253,-7.1289,-7.0996,-7.0742,-7.0566,-7.0625,-7.084,-7.0644,-7.043,-7.0293,-7.0019,-6.9431,-6.854,-6.9334,-6.9102,-6.8252,-6.8703,-6.9433,-6.9433,-6.9433,-6.9258,-6.8847,-6.8555,-6.8125,-6.7598,-6.7265,-6.7051,-6.6797,-6.6348,-6.6133,-6.6348,-6.6172,-6.6055,-6.6172,-6.5703,-6.5488,-6.5449,-6.5117,-6.4746,-6.4551,-6.4531,-6.4453,-6.4336,-6.4316,-6.4316,-6.4355,-6.4805,-6.5156,-6.5195,-6.5527,-6.5742,-6.5625,-6.5351,-6.4668,-6.4629,-6.459,-6.4414,-6.4355,-6.4355,-6.4316,-6.4316,-6.4316,-6.4316,-6.4316,-6.4316,-6.4473,-6.4707,-6.4687,-6.4551,-6.5909,-6.8248,-7.0954,-7.1758,-7.1504,-7.1816,-7.1484,-7.0245,-6.6493,-6.2677,-5.8985,-5.4801,-5.1371,-4.866,-4.7793,-4.8091,-4.8335,-5.1133,-5.3217,-5.556,-6.0807,-6.5084,-6.7362,-6.1246,-5.8199,-5.8473,-5.2184,-5.2449,-5.9565,-6.5475,-6.4559,-5.8322,-5.9591,-5.6593,-4.9105,-5.0428,-5.0558,-4.7605,-4.7902,-4.7914,-4.9559,-5.2934,-5.6354,-6.0074,-6.4646,-6.8535,-7.1389,-7.1953,-7.1601,-7.084,-7.1113,-7.1289,-7.1347,-7.1328,-7.1152,-7.082,-7.0664,-6.9018,-6.6727,-6.8387,-6.8178,-6.5634,-6.7817,-6.959,-6.957,-6.9492,-6.9355,-6.9062,-6.8828,-6.8437,-6.7812,-6.7558,-6.7363,-6.7051,-6.6933,-6.6836,-6.6855,-6.6758,-6.668,-6.6406,-6.625,-6.6055,-6.5703,-6.5508,-6.539,-6.5078,-6.4883,-6.4726,-6.4473,-6.4336,-6.4316,-6.4394,-6.498,-6.5488,-6.5586,-6.5801,-6.6035,-6.6133,-6.6133,-6.5273,-6.4629,-6.4531,-6.4433,-6.4473,-6.4473,-6.4414,-6.4394,-6.4316,-6.4316,-6.4355,-6.4355,-6.4375,-6.4531,-6.4433,-6.4414,-6.5809,-6.7668,-7.1079,-7.1914,-7.1777,-7.1621,-7.125,-7.0149,-6.6523,-6.3831,-6.2583,-5.8638,-5.4786,-5.2211,-5.1675,-5.0189,-4.8145,-4.9095,-5.0798,-5.3157,-5.5802,-5.8605,-6.0961,-5.6955,-5.6016,-5.7118,-5.355,-5.5202,-6.1465,-6.4386,-6.3154,-5.8653,-5.6826,-5.2365,-4.8324,-4.8112,-4.9527,-5.0658,-4.8723,-4.8755,-5.1551,-5.3262,-5.6102,-6.0074,-6.4124,-6.8021,-7.1467,-7.2305,-7.2187,-7.164,-7.1445,-7.1523,-7.1777,-7.1523,-7.1426,-7.1465,-7.1035,-6.9189,-6.6314,-6.8536,-6.8846,-6.6056,-6.8176,-7.0008,-7.0254,-7.0058,-6.9863,-6.9629,-6.916,-6.875,-6.8379,-6.8164,-6.789,-6.7812,-6.7773,-6.7519,-6.6933,-6.7109,-6.7246,-6.7109,-6.709,-6.6601,-6.582,-6.584,-6.5801,-6.5449,-6.5195,-6.4922,-6.4726,-6.4492,-6.4316,-6.4433,-6.5019,-6.539,-6.5273,-6.5742,-6.6094,-6.5996,-6.5898,-6.5449,-6.4902,-6.4746,-6.4531,-6.4551,-6.4531,-6.4473,-6.4414,-6.4336,-6.4316,-6.4355,-6.4394,-6.4433,-6.4473,-6.4531,-6.4696,-6.4821,-6.7306,-7.1226,-7.1894,-7.1758,-7.164,-7.1347,-7.0669,-6.8153,-6.6382,-6.4933,-6.2363,-5.9018,-5.6152,-5.423,-5.2459,-5.0115,-4.8578,-4.9397,-5.1153,-5.1038,-5.2463,-5.4815,-5.4132,-5.4508,-5.6047,-5.4107,-5.6016,-6.1212,-6.3387,-6.2023,-5.8473,-5.581,-5.2153,-4.8049,-4.7228,-4.9148,-5.2168,-5.1004,-5.1559,-5.5029,-5.4725,-5.6731,-6.1365,-6.3634,-6.6672,-7.1387,-7.2383,-7.2441,-7.2402,-7.1933,-7.1719,-7.1914,-7.1738,-7.1758,-7.1933,-7.1484,-6.9628,-6.7211,-6.7281,-6.7604,-6.5913,-6.7146,-6.9325,-7.011,-7.0469,-7.0332,-7.0234,-6.9746,-6.9512,-6.9258,-6.8906,-6.8594,-6.8437,-6.8242,-6.793,-6.7461,-6.7598,-6.7734,-6.7754,-6.7754,-6.7383,-6.668,-6.6562,-6.6387,-6.5918,-6.5449,-6.5117,-6.4961,-6.459,-6.4316,-6.4433,-6.4902,-6.5,-6.5156,-6.5527,-6.5703,-6.5644,-6.5566,-6.5488,-6.5234,-6.5019,-6.4746,-6.457,-6.4531,-6.4453,-6.4375,-6.4316,-6.4316,-6.4336,-6.4433,-6.4492,-6.457,-6.4551,-6.4433,-6.5004,-6.8689,-7.2131,-7.1758,-7.1465,-7.1797,-7.168,-7.1328,-7.0961,-6.9243,-6.6479,-6.5822,-6.3436,-5.9858,-5.7091,-5.4816,-5.341,-5.0605,-4.9205,-4.86,-4.8646,-4.8524,-4.967,-5.104,-5.2878,-5.2508,-5.2743,-5.5202,-5.902,-6.231,-6.2293,-5.9565,-5.8166,-5.4925,-4.8833,-4.8051,-4.9709,-5.2728,-5.3317,-5.5064,-5.8595,-5.6527,-5.8569,-6.538,-6.3194,-6.4772,-7.2245,-7.2305,-7.2422,-7.2754,-7.2363,-7.2051,-7.2051,-7.2051,-7.209,-7.2109,-7.207,-7.0373,-6.6986,-6.6328,-6.6514,-6.6075,-6.6845,-6.7987,-7.0766,-7.1015,-7.0762,-7.0762,-7.0644,-7.043,-7.0078,-6.9726,-6.9375,-6.9023,-6.8769,-6.8496,-6.832,-6.8281,-6.8222,-6.8222,-6.8222,-6.789,-6.7519,-6.7422,-6.7187,-6.6348,-6.5879,-6.5508,-6.5176,-6.4785,-6.4609,-6.4609,-6.4941,-6.5,-6.5273,-6.5664,-6.5742,-6.582,-6.5801,-6.5683,-6.5195,-6.5039,-6.4863,-6.4609,-6.4531,-6.4551,-6.4453,-6.4316,-6.4316,-6.4375,-6.4492,-6.4473,-6.4414,-6.4394,-6.4316,-6.593,-6.8925,-7.19,-7.1933,-7.1816,-7.1621,-7.1465,-7.1328,-7.1035,-7.0536,-6.988,-6.9516,-6.7295,-6.4392,-6.3062,-5.9266,-5.4308,-5.3405,-5.1407,-4.9273,-4.8297,-4.8257,-4.8297,-4.9341,-4.9535,-4.9835,-5.1918,-5.494,-5.849,-6.1788,-6.3405,-6.231,-5.9871,-5.6047,-5.1652,-4.9095,-5.1024,-5.5834,-5.4845,-5.7398,-6.2076,-6.0403,-6.1,-6.538,-6.5487,-6.7209,-7.1583,-7.2383,-7.2441,-7.2422,-7.248,-7.25,-7.25,-7.25,-7.2656,-7.2871,-7.291,-7.1155,-6.8537,-6.9653,-6.9894,-6.8128,-6.9466,-7.1305,-7.1934,-7.209,-7.1894,-7.125,-7.1211,-7.0976,-7.0644,-7.041,-7.0332,-7.0215,-7.0058,-6.9883,-6.957,-6.9062,-6.8672,-6.8652,-6.8633,-6.8359,-6.7676,-6.7519,-6.7207,-6.6758,-6.6289,-6.5976,-6.5781,-6.5469,-6.5137,-6.5058,-6.5098,-6.5215,-6.5703,-6.6035,-6.6055,-6.6074,-6.6074,-6.582,-6.5195,-6.4961,-6.4922,-6.4687,-6.4531,-6.4629,-6.4687,-6.4394,-6.4316,-6.4433,-6.457,-6.4453,-6.4336,-6.4473,-6.4512,-6.5286,-6.7544,-7.0526,-7.1992,-7.1972,-7.1738,-7.164,-7.1601,-7.1367,-7.1406,-7.1562,-7.1387,-7.0247,-6.8474,-6.655,-6.36,-5.9214,-5.6011,-5.3454,-5.1301,-4.9464,-4.8564,-4.8551,-4.8577,-4.831,-4.8483,-5.0259,-5.3482,-5.8429,-6.0892,-6.2662,-6.3581,-6.0705,-5.6871,-5.313,-4.9858,-5.1791,-5.8156,-5.7468,-6.0069,-6.564,-6.4516,-6.4575,-6.852,-6.7428,-6.8705,-7.1618,-7.2695,-7.2539,-7.2402,-7.289,-7.3086,-7.2832,-7.2851,-7.3066,-7.3281,-7.332,-7.2151,-7.0102,-7.0699,-7.0438,-7.0589,-7.1093,-7.1556,-7.2887,-7.3086,-7.2617,-7.2109,-7.1914,-7.1738,-7.1347,-7.1133,-7.1015,-7.0957,-7.084,-7.0625,-7.0293,-6.9746,-6.9277,-6.9101,-6.8906,-6.8515,-6.7988,-6.7598,-6.7344,-6.6914,-6.6484,-6.6269,-6.6113,-6.5762,-6.5469,-6.5293,-6.5351,-6.5371,-6.5644,-6.5723,-6.5586,-6.5508,-6.5508,-6.5449,-6.4902,-6.4765,-6.4746,-6.459,-6.4433,-6.4492,-6.4512,-6.4375,-6.4297,-6.4336,-6.4414,-6.4433,-6.4414,-6.4609,-6.4814,-6.5306,-6.617,-6.914,-7.1992,-7.1992,-7.1992,-7.1739,-7.1486,-7.1486,-7.094,-7.129,-7.1271,-7.1564,-7.1036,-6.8446,-6.6709,-6.5819,-5.9832,-5.6122,-5.521,-5.1803,-4.9443,-4.907,-4.8644,-4.8417,-4.8364,-4.8371,-5.2713,-5.8237,-5.9067,-6.1989,-6.4044,-6.1955,-5.8138,-5.4931,-5.0911,-5.2904,-5.8053,-5.9136,-6.3798,-6.9085,-6.8293,-6.8408,-7.0907,-6.9856,-7.0266,-7.2494,-7.293,-7.2832,-7.2949,-7.3398,-7.3594,-7.2871,-7.3183,-7.3418,-7.3457,-7.3476,-7.3535,-7.3056,-7.1096,-7.0908,-7.2805,-7.0927,-7.042,-7.3211,-7.3594,-7.3222,-7.2832,-7.2656,-7.248,-7.2031,-7.1719,-7.1601,-7.1504,-7.1172,-7.084,-7.0664,-7.0293,-6.9961,-6.9492,-6.9082,-6.8672,-6.8281,-6.7832,-6.7344,-6.6972,-6.6582,-6.6308,-6.6445,-6.6152,-6.5918,-6.5605,-6.543,-6.5234,-6.5039,-6.5019,-6.4902,-6.4863,-6.4824,-6.4746,-6.4531,-6.4473,-6.4433,-6.4277,-6.416,-6.4199,-6.418,-6.4082,-6.4004,-6.3965,-6.4062,-6.4199,-6.414,-6.4101,-6.418,-6.4442,-6.5669,-6.7999,-7.1992,-7.1992,-7.1992,-7.0487,-6.8187,-6.7927,-6.8092,-6.8348,-6.8367,-7.0025,-7.214,-7.1863,-6.9931,-6.6791,-6.4771,-6.2638,-5.9025,-5.5195,-5.2307,-4.9125,-4.8858,-4.8724,-4.8671,-4.8457,-5.2511,-5.7773,-5.9431,-6.3108,-6.6782,-6.5423,-6.2007,-5.8198,-5.4804,-5.5013,-5.8872,-6.0588,-6.4281,-7.0608,-7.1344,-7.1728,-7.2513,-7.2314,-7.2074,-7.334,-7.3242,-7.3203,-7.3281,-7.3691,-7.3867,-7.3769,-7.3789,-7.3945,-7.416,-7.4238,-7.4355,-7.4269,-7.4122,-7.3916,-7.458,-7.3878,-7.3363,-7.3841,-7.416,-7.4004,-7.3262,-7.3183,-7.2988,-7.2637,-7.2461,-7.2305,-7.2207,-7.1953,-7.1406,-7.0918,-7.0625,-7.0254,-6.959,-6.9082,-6.8769,-6.8535,-6.7988,-6.7461,-6.7363,-6.6992,-6.6777,-6.6719,-6.6562,-6.6367,-6.6015,-6.5605,-6.5293,-6.5,-6.5,-6.4961,-6.4687,-6.4648,-6.4531,-6.4414,-6.4355,-6.4277,-6.4121,-6.3848,-6.3848,-6.3828,-6.3789,-6.373,-6.3691,-6.375,-6.3887,-6.373,-6.3613,-6.3808,-6.4226,-6.5289,-6.7524,-7.0296,-7.1992,-7.1992,-6.9843,-6.689,-6.6647,-6.5722,-6.5157,-6.6642,-6.8477,-7.0662,-7.2449,-7.2017,-6.9803,-6.8049,-6.5899,-6.2859,-5.7827,-5.312,-5.0144,-4.9098,-4.9112,-4.9219,-4.9619,-5.2862,-5.8786,-5.981,-6.4081,-6.8447,-6.7684,-6.3844,-6.0322,-5.6831,-5.5818,-5.7992,-6.0141,-6.3993,-6.8947,-7.2178,-7.3398,-7.3594,-7.3633,-7.3613,-7.3613,-7.3633,-7.3633,-7.3672,-7.4043,-7.4238,-7.4258,-7.4258,-7.4336,-7.4531,-7.459,-7.4726,-7.4883,-7.5156,-7.5332,-7.543,-7.5332,-7.5097,-7.4844,-7.4726,-7.4238,-7.3808,-7.3633,-7.3418,-7.3066,-7.2793,-7.2617,-7.2383,-7.2187,-7.164,-7.1191,-7.082,-7.043,-6.9824,-6.9199,-6.8808,-6.8691,-6.8222,-6.7949,-6.7695,-6.7344,-6.7168,-6.707,-6.6777,-6.6582,-6.6269,-6.5859,-6.5527,-6.5293,-6.5273,-6.5117,-6.4726,-6.4551,-6.4473,-6.4394,-6.4336,-6.4277,-6.4199,-6.3828,-6.3457,-6.3496,-6.3535,-6.3555,-6.3535,-6.3574,-6.3496,-6.3398,-6.3379,-6.3555,-6.3951,-6.457,-6.7535,-6.8297,-7.1136,-7.172,-6.9473,-6.5837,-6.5296,-6.3538,-6.0993,-6.3848,-6.5811,-6.8041,-7.1315,-7.2228,-7.2429,-7.0083,-6.8305,-6.4589,-6.0066,-5.4593,-4.9862,-4.9259,-4.9379,-4.9553,-5.0119,-5.2592,-5.894,-6.0138,-6.4543,-6.8427,-6.8778,-6.6349,-6.234,-5.8382,-5.7544,-5.7776,-5.9795,-6.3838,-6.7813,-7.1785,-7.375,-7.4004,-7.4082,-7.4082,-7.4199,-7.4219,-7.4297,-7.4394,-7.459,-7.4687,-7.4687,-7.4629,-7.459,-7.4609,-7.4687,-7.4687,-7.4746,-7.5156,-7.543,-7.5527,-7.541,-7.5312,-7.5664,-7.5039,-7.4492,-7.416,-7.3945,-7.3672,-7.3262,-7.2871,-7.248,-7.2226,-7.207,-7.1777,-7.1308,-7.0898,-7.0527,-7.0,-6.9336,-6.9023,-6.8887,-6.8594,-6.8281,-6.8008,-6.7695,-6.7558,-6.7383,-6.707,-6.6758,-6.6445,-6.6133,-6.5801,-6.539,-6.5293,-6.5,-6.4609,-6.4492,-6.4414,-6.4355,-6.4316,-6.4238,-6.414,-6.3652,-6.3281,-6.3301,-6.332,-6.3242,-6.3144,-6.3086,-6.3027,-6.3008,-6.3066,-6.3164,-6.3359,-6.3594,-6.7349,-6.66,-6.745,-7.057,-6.8206,-6.2507,-6.1954,-6.0114,-5.7269,-5.8114,-6.1643,-6.7229,-6.8689,-7.1244,-7.2267,-7.2746,-6.8629,-6.2859,-5.9584,-5.6015,-5.0787,-4.993,-5.0065,-5.0336,-5.0078,-5.2385,-5.6269,-5.9409,-6.3467,-6.8068,-7.0213,-6.9038,-6.6236,-6.254,-6.089,-6.0116,-6.194,-6.3809,-6.7143,-7.1435,-7.3715,-7.4394,-7.4492,-7.4629,-7.4844,-7.4902,-7.5097,-7.5312,-7.5234,-7.5117,-7.5078,-7.4785,-7.4648,-7.4726,-7.4961,-7.5097,-7.5117,-7.5449,-7.5644,-7.541,-7.5312,-7.5058,-7.4863,-7.4687,-7.4609,-7.4414,-7.418,-7.3847,-7.334,-7.2773,-7.2402,-7.3027,-7.2422,-7.166,-7.1113,-7.0762,-7.043,-6.9805,-6.9433,-6.9277,-6.9219,-6.8906,-6.8633,-6.8398,-6.8105,-6.7851,-6.7598,-6.7246,-6.6933,-6.6601,-6.6328,-6.6035,-6.5625,-6.5215,-6.4844,-6.4414,-6.4414,-6.4375,-6.4355,-6.4277,-6.414,-6.3926,-6.3418,-6.3144,-6.3183,-6.293,-6.2637,-6.2578,-6.2676,-6.248,-6.2422,-6.2558,-6.2734,-6.3086,-6.3657,-6.5449,-6.4614,-6.66,-7.0296,-6.756,-6.1469,-6.0933,-5.7678,-5.3948,-5.6839,-6.0984,-6.4901,-6.8862,-7.19,-7.2758,-7.1301,-6.6112,-6.0662,-6.0918,-5.7943,-5.3509,-5.2763,-5.2934,-5.2383,-5.1177,-5.1409,-5.3987,-5.7321,-6.2329,-6.7265,-7.1505,-7.1282,-6.8442,-6.5944,-6.345,-6.0565,-6.1281,-6.3411,-6.611,-6.9169,-7.2513,-7.4347,-7.4765,-7.5058,-7.5195,-7.5449,-7.5664,-7.5762,-7.5722,-7.5566,-7.5527,-7.5371,-7.5156,-7.5156,-7.541,-7.5566,-7.5195,-7.5508,-7.5683,-7.5312,-7.5234,-7.5117,-7.4961,-7.4746,-7.4609,-7.4551,-7.4375,-7.4062,-7.3633,-7.3164,-7.2832,-7.3222,-7.25,-7.1875,-7.1426,-7.0996,-7.043,-6.9922,-6.9609,-6.9492,-6.9433,-6.9238,-6.9023,-6.8945,-6.8594,-6.8183,-6.7812,-6.7422,-6.709,-6.6758,-6.6562,-6.6308,-6.5918,-6.5488,-6.5078,-6.4687,-6.457,-6.4414,-6.4336,-6.4297,-6.416,-6.3965,-6.3574,-6.3242,-6.3105,-6.2715,-6.2383,-6.2578,-6.2851,-6.2344,-6.1933,-6.2246,-6.2598,-6.293,-6.3739,-6.5546,-6.235,-6.5469,-7.0022,-6.8021,-6.235,-6.1785,-5.7686,-5.3042,-5.7084,-6.0369,-6.2356,-6.7669,-7.1391,-7.2575,-6.9476,-6.3911,-5.7154,-6.0292,-5.9288,-5.6172,-5.539,-5.5863,-5.502,-5.2775,-5.0777,-5.2039,-5.5349,-6.0152,-6.5675,-7.0418,-7.1115,-7.0036,-6.9437,-6.5447,-6.0702,-6.1556,-6.2521,-6.2798,-6.5447,-6.9565,-7.2722,-7.4814,-7.541,-7.5488,-7.582,-7.6035,-7.623,-7.6074,-7.6015,-7.5957,-7.5859,-7.5703,-7.5547,-7.6074,-7.5918,-7.5097,-7.5469,-7.5508,-7.5234,-7.5078,-7.5019,-7.4941,-7.4844,-7.4726,-7.4531,-7.4453,-7.4297,-7.4062,-7.3574,-7.3242,-7.3203,-7.2617,-7.209,-7.166,-7.1113,-7.0547,-7.0097,-6.9746,-6.9472,-6.9433,-6.9453,-6.9297,-6.9062,-6.8652,-6.8164,-6.7734,-6.7344,-6.7148,-6.6875,-6.6836,-6.6601,-6.625,-6.584,-6.5449,-6.5098,-6.4844,-6.4609,-6.4336,-6.4316,-6.4238,-6.4101,-6.3906,-6.3613,-6.332,-6.289,-6.2656,-6.2871,-6.2773,-6.2226,-6.1953,-6.2168,-6.248,-6.289,-6.3281,-6.4592,-6.0936,-6.2067,-6.9142,-6.9436,-6.5748,-6.5469,-6.1219,-5.5041,-5.5909,-5.7608,-6.09,-6.2859,-6.7787,-7.0794,-6.9457,-6.308,-5.9051,-5.9193,-5.9336,-5.6337,-5.6526,-5.6662,-5.5806,-5.2327,-5.1268,-5.1593,-5.4876,-5.8954,-6.3511,-6.766,-7.1225,-7.2153,-7.0102,-6.6354,-6.2226,-6.2226,-6.1046,-5.8985,-6.1948,-6.622,-7.0384,-7.4057,-7.5631,-7.6191,-7.6406,-7.6582,-7.6777,-7.6601,-7.6445,-7.6387,-7.6094,-7.5898,-7.5879,-7.623,-7.5976,-7.5586,-7.5488,-7.5527,-7.4902,-7.4746,-7.4746,-7.4824,-7.4922,-7.4902,-7.4726,-7.4433,-7.4336,-7.4512,-7.3828,-7.3418,-7.332,-7.2851,-7.2265,-7.1699,-7.1172,-7.0664,-7.0234,-6.9902,-6.9648,-6.9512,-6.9531,-6.9258,-6.9004,-6.8535,-6.8086,-6.7676,-6.7324,-6.7148,-6.6992,-6.6933,-6.6836,-6.6484,-6.623,-6.5859,-6.539,-6.5137,-6.4765,-6.4414,-6.4316,-6.4316,-6.4199,-6.4082,-6.4004,-6.3691,-6.3223,-6.2734,-6.2598,-6.2363,-6.1973,-6.1953,-6.2129,-6.25,-6.2949,-6.3559,-6.3912,-6.1785,-6.4334,-6.9729,-6.971,-6.66,-6.6322,-6.2067,-5.6955,-5.9515,-6.0919,-6.1819,-6.5629,-6.852,-6.93,-6.6553,-6.1703,-5.7312,-5.807,-5.824,-5.7556,-5.8086,-5.8443,-5.658,-5.4787,-5.3385,-5.1606,-5.2964,-5.5756,-6.0427,-6.5859,-7.0729,-7.344,-7.2551,-6.8703,-6.3419,-6.2815,-6.0581,-6.016,-6.331,-6.8735,-7.2142,-7.494,-7.6328,-7.6504,-7.6758,-7.6972,-7.707,-7.7051,-7.6894,-7.6855,-7.668,-7.6347,-7.6191,-7.6367,-7.6367,-7.5039,-7.5762,-7.5664,-7.4805,-7.4629,-7.4648,-7.4707,-7.4961,-7.5097,-7.4922,-7.4785,-7.457,-7.457,-7.4062,-7.3711,-7.3437,-7.2812,-7.2441,-7.1933,-7.1367,-7.1094,-7.0664,-7.0117,-6.9844,-6.9726,-6.959,-6.9336,-6.914,-6.8965,-6.8613,-6.8222,-6.7812,-6.75,-6.7246,-6.7012,-6.6894,-6.6699,-6.6504,-6.6289,-6.5781,-6.5371,-6.4902,-6.457,-6.4316,-6.4297,-6.4277,-6.4219,-6.414,-6.3965,-6.3555,-6.3047,-6.2519,-6.2226,-6.209,-6.207,-6.2051,-6.2519,-6.2988,-6.3398,-6.4451,-6.2913,-6.66,-7.0296,-7.0296,-6.7745,-6.7726,-6.4054,-5.8944,-6.3475,-6.4649,-6.4439,-6.8796,-7.0146,-6.6852,-6.4251,-6.0806,-5.6446,-5.676,-5.6879,-5.7984,-5.9065,-5.9049,-5.7058,-5.5503,-5.3223,-5.1143,-5.1624,-5.4173,-5.8655,-6.3852,-6.901,-7.3291,-7.3936,-6.9962,-6.4933,-6.2751,-6.1213,-5.8445,-6.412,-6.9253,-7.3114,-7.5712,-7.6582,-7.6797,-7.6992,-7.7187,-7.7187,-7.7187,-7.7168,-7.7148,-7.7129,-7.6797,-7.6504,-7.6601,-7.6347,-7.5469,-7.5879,-7.5801,-7.5156,-7.4902,-7.4902,-7.5019,-7.5137,-7.543,-7.539,-7.5312,-7.5039,-7.4629,-7.4355,-7.4043,-7.3672,-7.2851,-7.2519,-7.2187,-7.1738,-7.1543,-7.123,-7.0547,-7.0039,-6.9883,-6.9707,-6.9492,-6.9375,-6.9394,-6.916,-6.8789,-6.8379,-6.7871,-6.7461,-6.7051,-6.6933,-6.6777,-6.6699,-6.6445,-6.5879,-6.543,-6.5019,-6.4687,-6.4433,-6.4316,-6.4297,-6.4277,-6.4219,-6.4004,-6.3789,-6.3496,-6.3047,-6.2656,-6.2305,-6.2285,-6.2344,-6.2637,-6.3027,-6.3476,-6.431,-6.2913,-6.66,-7.0296,-7.172,-7.1428,-7.17,-6.9142,-6.4614,-6.6026,-6.6466,-6.6683,-7.0669,-7.1003,-6.7542,-6.454,-6.1148,-5.6743,-5.6775,-5.6594,-5.6609,-5.7194,-5.7194,-5.5752,-5.3723,-5.2034,-5.1396,-5.153,-5.3756,-5.7791,-6.2228,-6.6204,-6.9298,-7.314,-6.9606,-6.4912,-6.1954,-6.0695,-5.9113,-6.3283,-6.7345,-7.1594,-7.4642,-7.707,-7.709,-7.7168,-7.7187,-7.7187,-7.7187,-7.7187,-7.7187,-7.7187,-7.7109,-7.6816,-7.6699,-7.6211,-7.5781,-7.5859,-7.5762,-7.5371,-7.543,-7.5703,-7.5781,-7.5762,-7.5762,-7.582,-7.543,-7.5078,-7.4726,-7.4531,-7.4101,-7.3672,-7.3203,-7.2695,-7.2207,-7.1836,-7.168,-7.1308,-7.0762,-7.0293,-7.0058,-6.9844,-6.9629,-6.9433,-6.9433,-6.9238,-6.8847,-6.8105,-6.7598,-6.7265,-6.6914,-6.6894,-6.6836,-6.6836,-6.6504,-6.582,-6.543,-6.5176,-6.4785,-6.4453,-6.4355,-6.4316,-6.4277,-6.4258,-6.418,-6.3984,-6.3789,-6.3574,-6.3125,-6.2754,-6.2578,-6.2617,-6.293,-6.3301,-6.3769,-6.4043,-6.2913,-6.66,-7.0296,-7.1992,-7.1992,-7.1992,-6.9729,-6.7173,-6.8867,-6.9937,-7.0297,-7.2261,-7.2416,-7.042,-6.7554,-6.4078,-6.0025,-5.764,-5.5693,-5.4848,-5.5149,-5.5265,-5.4471,-5.4309,-5.4145,-5.2282,-5.1744,-5.2175,-5.4553,-6.077,-6.3737,-6.7505,-7.246,-6.9406,-6.5268,-5.9597,-5.7739,-5.9616,-6.2299,-6.6774,-7.0561,-7.4794,-7.7187,-7.7187,-7.7187,-7.7187,-7.7187,-7.7187,-7.7187,-7.7187,-7.7168,-7.7012,-7.6797,-7.6543,-7.6152,-7.5722,-7.5937,-7.5957,-7.5722,-7.582,-7.5957,-7.6172,-7.6055,-7.5996,-7.6211,-7.5859,-7.5449,-7.5097,-7.4707,-7.4219,-7.3515,-7.3066,-7.2637,-7.2148,-7.1894,-7.1797,-7.1465,-7.0976,-7.0586,-7.0371,-7.0078,-6.9805,-6.9609,-6.9433,-6.918,-6.8828,-6.8047,-6.7383,-6.7109,-6.6875,-6.6855,-6.6855,-6.6855,-6.666,-6.6015,-6.5664,-6.5371,-6.4961,-6.4531,-6.4531,-6.4531,-6.4316,-6.4297,-6.4238,-6.4219,-6.4082,-6.3848,-6.3496,-6.3203,-6.2949,-6.3008,-6.3223,-6.3633,-6.4062,-6.4199,-6.2067,-6.519,-7.0003,-7.1992,-7.1992,-7.1992,-7.057,-6.8886,-7.1017,-7.2461,-7.289,-7.3183,-7.3398,-7.2536,-7.0092,-6.6215,-6.1981,-5.8579,-5.4833,-5.3377,-5.3419,-5.3587,-5.3157,-5.3323,-5.342,-5.2229,-5.2051,-5.2484,-5.3367,-6.0411,-6.3682,-6.7013,-7.1191,-7.0277,-6.3723,-5.6557,-5.4396,-5.8389,-6.2491,-6.6995,-7.0723,-7.4871,-7.7187,-7.7187,-7.7187,-7.7187,-7.7187,-7.7187,-7.707,-7.6992,-7.6894,-7.6719,-7.6445,-7.6152,-7.5859,-7.5801,-7.5879,-7.6172,-7.6133,-7.625,-7.6445,-7.6836,-7.6562,-7.6543,-7.6504,-7.6211,-7.5625,-7.5234,-7.4824,-7.4297,-7.3555,-7.334,-7.293,-7.2519,-7.2324,-7.2168,-7.1836,-7.1406,-7.1015,-7.0683,-7.039,-7.0078,-6.9629,-6.9433,-6.9199,-6.8887,-6.8301,-6.7676,-6.7265,-6.7031,-6.6855,-6.6855,-6.6855,-6.6601,-6.6269,-6.5996,-6.5703,-6.5371,-6.5019,-6.4922,-6.4844,-6.4629,-6.4492,-6.4531,-6.4492,-6.4375,-6.4082,-6.373,-6.3496,-6.3281,-6.3418,-6.3574,-6.3848,-6.4219,-6.4238,-6.0652,-6.1785,-6.8867,-7.172,-7.1992,-7.1992,-7.172,-7.1213,-7.2187,-7.2871,-7.3281,-7.3269,-7.3502,-7.3202,-7.0884,-6.7136,-6.2749,-5.8954,-5.5149,-5.2203,-5.162,-5.1503,-5.1704,-5.2188,-5.2728,-5.2511,-5.2305,-5.2398,-5.3035,-5.9861,-6.3099,-6.6422,-7.1001,-7.209,-6.397,-5.6423,-5.4903,-5.8513,-6.2504,-6.614,-6.9484,-7.3179,-7.5042,-7.6272,-7.6272,-7.596,-7.7187,-7.709,-7.6914,-7.6699,-7.6562,-7.6367,-7.6133,-7.5703,-7.5625,-7.5898,-7.5918,-7.6133,-7.6465,-7.6894,-7.7187,-7.7383,-7.7012,-7.6992,-7.6933,-7.6445,-7.5781,-7.543,-7.4941,-7.4453,-7.4101,-7.3828,-7.332,-7.293,-7.2715,-7.2461,-7.2129,-7.1777,-7.1387,-7.0976,-7.0722,-7.043,-6.9844,-6.9394,-6.9219,-6.8906,-6.8457,-6.7988,-6.75,-6.7129,-6.6894,-6.6855,-6.6855,-6.6719,-6.6484,-6.6289,-6.6035,-6.5723,-6.5449,-6.5293,-6.5195,-6.5078,-6.498,-6.4902,-6.4707,-6.4512,-6.4258,-6.3965,-6.3867,-6.3808,-6.3789,-6.3926,-6.418,-6.4433,-6.459,-5.8373,-6.0936,-6.6044,-6.971,-7.172,-7.1992,-7.1992,-7.2109,-7.2323,-7.2771,-7.3121,-7.3424,-7.3773,-7.3549,-7.2701,-6.8991,-6.3109,-6.1932,-5.8106,-5.162,-5.1049,-5.1356,-5.1597,-5.1811,-5.2064,-5.2425,-5.2505,-5.2505,-5.2759,-5.8748,-6.2361,-6.5704,-7.0028,-6.9694,-6.468,-5.8997,-5.6988,-5.5824,-5.8587,-6.1631,-6.347,-6.7098,-7.0732,-7.3161,-7.3438,-7.4653,-7.6779,-7.6875,-7.664,-7.6445,-7.6289,-7.6133,-7.6074,-7.5781,-7.582,-7.6152,-7.6269,-7.6504,-7.6836,-7.7129,-7.7207,-7.7324,-7.7324,-7.7207,-7.7109,-7.666,-7.6133,-7.5664,-7.5215,-7.4707,-7.414,-7.3984,-7.3594,-7.3203,-7.293,-7.2695,-7.2402,-7.2051,-7.168,-7.1269,-7.0957,-7.041,-6.9824,-6.9492,-6.9297,-6.9062,-6.8652,-6.8164,-6.7656,-6.7187,-6.6875,-6.6855,-6.6855,-6.6797,-6.666,-6.6484,-6.6348,-6.6113,-6.5781,-6.5508,-6.5449,-6.5469,-6.5234,-6.5058,-6.4844,-6.4648,-6.4414,-6.4258,-6.4375,-6.4375,-6.4394,-6.4433,-6.4648,-6.4961,-6.5234,-5.7242,-6.0936,-6.4614,-6.8573,-7.17,-7.1992,-7.207,-7.2265,-7.2323,-7.2712,-7.3296,-7.3541,-7.3851,-7.4531,-7.4006,-7.0157,-6.3402,-6.2521,-5.8389,-5.1939,-5.1156,-5.1477,-5.1784,-5.2024,-5.2305,-5.2612,-5.2639,-5.2612,-5.3075,-5.6561,-6.1733,-6.6728,-6.9537,-6.9801,-6.614,-6.2213,-5.7654,-5.6762,-5.8587,-5.9426,-6.0568,-6.3228,-6.7108,-6.9743,-7.1519,-7.2734,-7.5421,-7.6484,-7.6269,-7.6191,-7.6094,-7.5918,-7.5976,-7.6015,-7.5918,-7.6055,-7.6406,-7.6582,-7.6836,-7.7129,-7.7187,-7.7226,-7.7187,-7.7265,-7.7226,-7.6816,-7.6445,-7.6015,-7.5547,-7.5019,-7.4492,-7.4316,-7.3945,-7.3555,-7.3203,-7.2969,-7.2597,-7.2246,-7.1816,-7.1426,-7.125,-7.0605,-6.9922,-6.9648,-6.9394,-6.914,-6.8867,-6.8379,-6.789,-6.7402,-6.7031,-6.7012,-6.6914,-6.6816,-6.6758,-6.666,-6.6543,-6.6465,-6.6211,-6.5918,-6.5859,-6.5879,-6.5547,-6.5156,-6.4844,-6.459,-6.457,-6.4531,-6.459,-6.4805,-6.5058,-6.5117,-6.5176,-6.539,-6.5683,-5.697,-6.0652,-6.4614,-6.8021,-7.1428,-7.172,-7.2226,-7.2617,-7.2617,-7.3166,-7.3926,-7.3938,-7.421,-7.457,-7.459,-7.0462,-6.4865,-6.3695,-5.8389,-5.3779,-5.2769,-5.251,-5.2202,-5.2171,-5.2452,-5.2666,-5.2732,-5.2692,-5.3391,-5.7002,-6.281,-6.832,-7.0153,-7.0768,-6.8638,-6.5281,-6.0414,-5.8897,-5.8276,-5.8143,-5.8275,-6.0581,-6.4049,-6.6612,-6.8601,-7.099,-7.3649,-7.5324,-7.5859,-7.582,-7.5781,-7.5547,-7.5508,-7.5644,-7.5508,-7.5625,-7.6133,-7.6426,-7.664,-7.6953,-7.7148,-7.7187,-7.7187,-7.7422,-7.7383,-7.6992,-7.6601,-7.6191,-7.5722,-7.539,-7.5039,-7.4707,-7.4355,-7.3945,-7.3515,-7.3164,-7.2773,-7.2344,-7.1894,-7.166,-7.168,-7.1191,-7.0312,-6.9883,-6.9531,-6.9316,-6.9101,-6.8965,-6.8437,-6.7695,-6.7383,-6.7265,-6.7148,-6.6894,-6.6816,-6.6758,-6.6738,-6.664,-6.6699,-6.6504,-6.6426,-6.625,-6.5957,-6.5508,-6.4824,-6.457,-6.4668,-6.4707,-6.4746,-6.5039,-6.5469,-6.5547,-6.5547,-6.5742,-6.5937,-5.3268,-5.6955,-6.0652,-6.4334,-6.8021,-7.0863,-7.207,-7.2207,-7.248,-7.3008,-7.3535,-7.3899,-7.4171,-7.459,-7.459,-7.1337,-6.8667,-6.6029,-6.1621,-5.7944,-5.5251,-5.3728,-5.2823,-5.2225,-5.2505,-5.2679,-5.2773,-5.2773,-5.3693,-5.6762,-6.1031,-6.5888,-6.922,-7.1679,-7.1994,-7.0153,-6.4977,-6.0707,-5.9487,-5.7124,-5.5102,-5.6215,-5.9327,-6.2105,-6.5277,-6.8266,-7.1843,-7.4611,-7.5144,-7.543,-7.5137,-7.4941,-7.5293,-7.5371,-7.5351,-7.5762,-7.6191,-7.6523,-7.6582,-7.6933,-7.7187,-7.7187,-7.7187,-7.7226,-7.7265,-7.707,-7.668,-7.625,-7.582,-7.5449,-7.5078,-7.4726,-7.4531,-7.4258,-7.3789,-7.3262,-7.2851,-7.2402,-7.1953,-7.1699,-7.1738,-7.1113,-7.0293,-7.0,-6.9687,-6.9492,-6.9355,-6.9258,-6.8945,-6.8203,-6.7715,-6.7598,-6.7285,-6.7012,-6.6894,-6.6816,-6.6836,-6.6836,-6.6855,-6.6855,-6.6719,-6.6523,-6.6328,-6.582,-6.5058,-6.4824,-6.4863,-6.4863,-6.4805,-6.541,-6.584,-6.5879,-6.5957,-6.6133,-6.6308,-5.1571,-5.4966,-5.7529,-6.0652,-6.4614,-6.971,-7.1505,-7.0564,-7.1912,-7.2832,-7.3359,-7.3926,-7.4336,-7.457,-7.4288,-7.2513,-6.8667,-6.8091,-6.4916,-6.107,-5.8323,-5.663,-5.4807,-5.3244,-5.2599,-5.2732,-5.2773,-5.2773,-5.3391,-5.4925,-5.8587,-6.2536,-6.6796,-7.075,-7.2884,-7.2902,-7.0153,-6.4928,-6.0568,-5.6388,-5.4085,-5.2376,-5.5126,-5.9125,-6.2599,-6.617,-7.093,-7.4187,-7.4794,-7.5176,-7.4902,-7.4941,-7.5156,-7.5117,-7.5176,-7.5508,-7.5742,-7.6035,-7.6211,-7.6621,-7.6933,-7.7148,-7.7187,-7.7207,-7.7109,-7.6953,-7.6621,-7.625,-7.582,-7.541,-7.5039,-7.4707,-7.4648,-7.4551,-7.3965,-7.3359,-7.289,-7.2441,-7.207,-7.1719,-7.1269,-7.0664,-7.0234,-7.0019,-6.9785,-6.9551,-6.9414,-6.9394,-6.916,-6.8691,-6.8183,-6.791,-6.75,-6.7129,-6.6992,-6.6855,-6.6855,-6.6855,-6.6855,-6.6855,-6.6836,-6.6582,-6.6211,-6.5742,-6.5215,-6.5156,-6.5195,-6.4922,-6.4922,-6.5605,-6.6172,-6.6172,-6.6308,-6.6543,-6.668,-5.1222,-5.4357,-5.4966,-5.7529,-6.1519,-6.7782,-6.9148,-6.7161,-6.9851,-7.2381,-7.3082,-7.3452,-7.3618,-7.4249,-7.3704,-7.2229,-7.0443,-6.987,-6.8287,-6.3935,-6.1752,-5.9417,-5.7113,-5.5001,-5.3817,-5.3008,-5.2746,-5.2692,-5.2759,-5.4008,-5.5838,-5.8897,-6.3454,-6.8002,-7.1679,-7.4909,-7.3031,-6.871,-6.3576,-5.8732,-5.4638,-5.3448,-5.4903,-6.0581,-6.3762,-6.6407,-7.1697,-7.4366,-7.4765,-7.5019,-7.5137,-7.5097,-7.5,-7.4863,-7.4941,-7.5156,-7.541,-7.5703,-7.6055,-7.6484,-7.6855,-7.709,-7.7187,-7.7109,-7.6972,-7.6797,-7.6504,-7.6133,-7.5722,-7.5293,-7.4902,-7.4707,-7.4609,-7.4375,-7.3906,-7.3476,-7.3125,-7.2558,-7.1953,-7.1621,-7.1289,-7.0703,-7.0195,-6.998,-6.9785,-6.9551,-6.9433,-6.9433,-6.9258,-6.8926,-6.8555,-6.8144,-6.7539,-6.709,-6.6972,-6.6855,-6.6855,-6.6855,-6.6855,-6.6855,-6.6855,-6.6484,-6.6015,-6.5762,-6.5566,-6.5527,-6.5488,-6.5254,-6.5371,-6.6133,-6.6543,-6.6484,-6.6621,-6.6797,-6.6855,-4.9484,-5.0652,-5.3733,-5.7242,-6.0702,-6.2655,-6.3392,-6.2659,-6.3735,-6.7813,-7.2352,-7.1529,-7.1472,-7.3099,-7.1337,-7.0748,-7.2551,-7.1963,-7.072,-6.8645,-6.6239,-6.2201,-5.9189,-5.7215,-5.5201,-5.3202,-5.2626,-5.2599,-5.2732,-5.3391,-5.4925,-5.8897,-6.2536,-6.6494,-7.0416,-7.4208,-7.3982,-7.1242,-6.7644,-6.2357,-5.7836,-5.6396,-5.7584,-6.0581,-6.2815,-6.6917,-7.1052,-7.3421,-7.4045,-7.4746,-7.4746,-7.4746,-7.4726,-7.4629,-7.4648,-7.4824,-7.5312,-7.5625,-7.5996,-7.6465,-7.6933,-7.709,-7.7148,-7.6933,-7.6758,-7.6582,-7.6328,-7.5976,-7.5586,-7.5156,-7.4863,-7.4687,-7.4551,-7.4219,-7.3847,-7.3555,-7.3281,-7.2578,-7.1855,-7.1543,-7.1289,-7.082,-7.0273,-6.9941,-6.9765,-6.9609,-6.9492,-6.9414,-6.9277,-6.9023,-6.8633,-6.8164,-6.7402,-6.6992,-6.6933,-6.6855,-6.6855,-6.6855,-6.6855,-6.6855,-6.6855,-6.664,-6.6348,-6.6172,-6.6015,-6.5918,-6.5801,-6.5664,-6.5937,-6.6582,-6.6719,-6.6601,-6.668,-6.6836,-6.6855,-4.8618,-4.9227,-5.3195,-5.5135,-5.6167,-5.9329,-6.0418,-5.9473,-6.0955,-6.4505,-6.8306,-6.6959,-6.7336,-6.9834,-6.8667,-6.9406,-7.2399,-7.4064,-7.3712,-7.258,-6.9623,-6.5913,-6.2776,-5.9265,-5.5881,-5.3598,-5.2941,-5.2652,-5.2759,-5.2773,-5.4624,-5.6748,-6.0414,-6.4352,-6.855,-7.1574,-7.3755,-7.3152,-7.0552,-6.6793,-6.1832,-6.005,-5.7449,-5.9001,-6.221,-6.6627,-6.9852,-7.2229,-7.4006,-7.459,-7.4609,-7.4609,-7.4629,-7.4609,-7.459,-7.4765,-7.5156,-7.5664,-7.5996,-7.6426,-7.6953,-7.707,-7.7168,-7.6972,-7.6875,-7.666,-7.5976,-7.5586,-7.5176,-7.4765,-7.4726,-7.4609,-7.459,-7.4394,-7.375,-7.3262,-7.2832,-7.2265,-7.1758,-7.1465,-7.1133,-7.0703,-7.0195,-6.9765,-6.9629,-6.9551,-6.9453,-6.9433,-6.9297,-6.9082,-6.8711,-6.8281,-6.7578,-6.7207,-6.7207,-6.7051,-6.6855,-6.6855,-6.6855,-6.6855,-6.6855,-6.6855,-6.6738,-6.6426,-6.623,-6.6152,-6.6035,-6.5996,-6.6191,-6.6699,-6.6719,-6.664,-6.6758,-6.6855,-6.6855,-4.8364,-4.9024,-5.2155,-5.2193,-5.0506,-5.6549,-5.8021,-5.6322,-5.8985,-6.0741,-6.1261,-6.0741,-6.1394,-6.3887,-6.5533,-6.7506,-6.9642,-7.1904,-7.3675,-7.4671,-7.2151,-6.8914,-6.5319,-6.1655,-5.7391,-5.4145,-5.3008,-5.2719,-5.2773,-5.2773,-5.3089,-5.3693,-5.6748,-6.0707,-6.4205,-6.8483,-7.1503,-7.2722,-7.1639,-7.0131,-6.6394,-6.2685,-6.0502,-6.0158,-6.221,-6.6029,-6.9565,-7.221,-7.4288,-7.459,-7.459,-7.459,-7.459,-7.459,-7.459,-7.4726,-7.5039,-7.543,-7.5742,-7.6133,-7.6601,-7.6914,-7.7031,-7.6972,-7.6797,-7.6347,-7.5683,-7.5234,-7.4805,-7.4629,-7.4609,-7.459,-7.459,-7.4414,-7.3711,-7.2969,-7.248,-7.2031,-7.1738,-7.1426,-7.0996,-7.0586,-7.0156,-6.9726,-6.9531,-6.9472,-6.9433,-6.9433,-6.9355,-6.9082,-6.8769,-6.8418,-6.793,-6.7676,-6.748,-6.7148,-6.6855,-6.6855,-6.6855,-6.6855,-6.6855,-6.6855,-6.6758,-6.6523,-6.6367,-6.6426,-6.6445,-6.6426,-6.668,-6.6914,-6.6777,-6.6738,-6.6777,-6.6855,-6.6855,-4.8297,-4.8751,-4.9912,-4.993,-4.993,-5.1677,-5.1981,-5.1998,-5.2865,-5.3046,-5.3955,-5.3955,-5.6009,-6.2537,-5.9909,-6.2074,-6.8087,-7.0164,-7.2967,-7.492,-7.3981,-7.1663,-6.815,-6.2938,-5.8486,-5.5088,-5.2981,-5.2759,-5.2719,-5.2746,-5.2759,-5.3048,-5.6733,-5.9351,-6.0581,-6.5118,-6.9857,-7.1368,-7.3102,-7.2133,-6.973,-6.7259,-6.7224,-6.8091,-7.0157,-7.221,-7.3704,-7.4006,-7.459,-7.459,-7.459,-7.459,-7.459,-7.459,-7.459,-7.4687,-7.5,-7.5234,-7.5566,-7.5879,-7.6308,-7.6543,-7.6523,-7.6308,-7.6094,-7.582,-7.5293,-7.4961,-7.4668,-7.4609,-7.459,-7.459,-7.457,-7.4258,-7.373,-7.293,-7.2265,-7.2031,-7.1797,-7.1406,-7.0976,-7.0566,-7.0156,-6.9785,-6.9492,-6.9433,-6.9433,-6.9433,-6.9414,-6.9121,-6.8808,-6.8515,-6.8183,-6.7793,-6.748,-6.7109,-6.6855,-6.6855,-6.6855,-6.6855,-6.6855,-6.6855,-6.6738,-6.6621,-6.6719,-6.6816,-6.6836,-6.6855,-6.707,-6.7226,-6.6972,-6.6855,-6.6914,-6.7186,-6.7498]}]]